[[{"header":{"parameterUnit":"m.s-1","parameterCategory":1,"la1":30.6,"la2":28.766,"lo1":-90.7593,"lo2":-88.6598,"dy":0.0162,"dx":0.0183,"nx":116,"ny":114,"refTime":"2024-03-15T12:00:00:Z","depth":0,"parameterNumber":2,"parameterNumberName":"U-component_of_WINDS"},"data":[0.0,0.0,0.0,0.0,0.0,0.0,0.0,0.0,0.0,0.0,0.0,0.0,0.0,0.0,0.0,0.0,0.0,0.0,0.0,0.0,0.0,0.0,0.0,0.0,0.0,0.0,0.0,0.0,0.0,0.0,0.0,0.0,0.0,0.0,0.0,0.0,0.0,0.0,0.0,0.0,0.0,0.0,0.0,0.0,0.0,0.0,0.0,0.0,0.0,0.0,0.0,0.0,0.0,0.0,0.0,0.0,0.0,0.0,0.0,0.0,0.0,0.0,0.0,0.0,0.0,0.0,0.0,0.0,0.0,0.0,0.0,0.0,0.0,0.0,0.0,0.0,0.0,0.0,0.0,0.0,0.0,0.0,0.0,0.0,0.0,0.0,0.0,0.0,0.0,0.0,0.0,0.0,0.0,0.0,0.0,0.0,0.0,0.0,0.0,0.0,0.0,0.0,0.0,0.0,0.0,0.0,0.0,0.0,0.0,0.0,0.0,0.0,0.0,0.0,0.0,0.0,0.0,0.0,0.0,0.0,0.0,0.0,0.0,0.0,0.0,0.0,0.0,0.0,0.0,0.0,0.0,0.0,0.0,0.0,0.0,0.0,0.0,0.0,0.0,0.0,0.0,0.0,0.0,0.0,0.0,0.0,0.0,0.0,0.0,0.0,0.0,0.0,0.0,0.0,0.0,0.0,0.0,0.0,0.0,0.0,0.0,0.0,0.0,0.0,0.0,0.0,0.0,0.0,0.0,0.0,0.0,0.0,0.0,0.0,0.0,0.0,0.0,0.0,0.0,0.0,0.0,0.0,0.0,0.0,0.0,0.0,0.0,0.0,0.0,0.0,0.0,0.0,0.0,0.0,0.0,0.0,0.0,0.0,0.0,0.0,0.0,0.0,0.0,0.0,0.0,0.0,0.0,0.0,0.0,0.0,0.0,0.0,0.0,0.0,0.0,0.0,0.0,0.0,0.0,0.0,0.0,0.0,0.0,0.0,0.0,0.0,0.0,0.0,0.0,0.0,0.0,0.0,0.0,0.0,0.0,0.0,0.0,0.0,0.0,0.0,0.0,0.0,0.0,0.0,0.0,0.0,0.0,0.0,0.0,0.0,0.0,0.0,0.0,0.0,0.0,0.0,0.0,0.0,0.0,0.0,0.0,0.0,0.0,0.0,0.0,0.0,0.0,0.0,0.0,0.0,0.0,0.0,0.0,0.0,0.0,0.0,0.0,0.0,0.0,0.0,0.0,0.0,0.0,0.0,0.0,0.0,0.0,0.0,0.0,0.0,0.0,0.0,0.0,0.0,0.0,0.0,0.0,0.0,0.0,0.0,0.0,0.0,0.0,0.0,0.0,0.0,0.0,0.0,0.0,0.0,0.0,0.0,0.0,0.0,0.0,0.0,0.0,0.0,0.0,0.0,0.0,0.0,0.0,0.0,0.0,0.0,0.0,0.0,0.0,0.0,0.0,0.0,0.0,0.0,0.0,0.0,0.0,0.0,0.0,0.0,0.0,0.0,0.0,0.0,0.0,0.0,0.0,0.0,0.0,0.0,0.0,0.0,0.0,0.0,0.0,0.0,0.0,0.0,0.0,0.0,0.0,0.0,0.0,0.0,0.0,0.0,0.0,0.0,0.0,0.0,0.0,0.0,0.0,0.0,0.0,0.0,0.0,0.0,0.0,0.0,0.0,0.0,0.0,0.0,0.0,0.0,0.0,0.0,0.0,0.0,0.0,0.0,0.0,0.0,0.0,0.0,0.0,0.0,0.0,0.0,0.0,0.0,0.0,0.0,0.0,0.0,0.0,0.0,0.0,0.0,0.0,0.0,0.0,0.0,0.0,0.0,0.0,0.0,0.0,0.0,0.0,0.0,0.0,0.0,0.0,0.0,0.0,0.0,0.0,0.0,0.0,0.0,0.0,0.0,0.0,0.0,0.0,0.0,0.0,0.0,0.0,0.0,0.0,0.0,0.0,0.0,0.0,0.0,0.0,0.0,0.0,0.0,0.0,0.0,0.0,0.0,0.0,0.0,0.0,0.0,0.0,0.0,0.0,0.0,0.0,0.0,0.0,0.0,0.0,0.0,0.0,0.0,0.0,0.0,0.0,0.0,0.0,0.0,0.0,0.0,0.0,0.0,0.0,0.0,0.0,0.0,0.0,0.0,0.0,0.0,0.0,0.0,0.0,0.0,0.0,0.0,0.0,0.0,0.0,0.0,0.0,0.0,0.0,0.0,0.0,0.0,0.0,0.0,0.0,0.0,0.0,0.0,0.0,0.0,0.0,0.0,0.0,0.0,0.0,0.0,0.0,0.0,0.0,0.0,0.0,0.0,0.0,0.0,0.0,0.0,0.0,0.0,0.0,0.0,0.0,0.0,0.0,0.0,0.0,0.0,0.0,0.0,0.0,0.0,0.0,0.0,0.0,0.0,0.0,0.0,0.0,0.0,0.0,0.0,0.0,0.0,0.0,0.0,0.0,0.0,0.0,0.0,0.0,0.0,0.0,0.0,0.0,0.0,0.0,0.0,0.0,0.0,0.0,0.0,0.0,0.0,0.0,0.0,0.0,0.0,0.0,0.0,0.0,0.0,0.0,0.0,0.0,0.0,0.0,0.0,0.0,0.0,0.0,0.0,0.0,0.0,0.0,0.0,0.0,0.0,0.0,0.0,0.0,0.0,0.0,0.0,0.0,0.0,0.0,0.0,0.0,0.0,0.0,0.0,0.0,0.0,0.0,0.0,0.0,0.0,0.0,0.0,0.0,0.0,0.0,0.0,0.0,0.0,0.0,0.0,0.0,0.0,0.0,0.0,0.0,0.0,0.0,0.0,0.0,0.0,0.0,0.0,0.0,0.0,0.0,0.0,0.0,0.0,0.0,0.0,0.0,0.0,0.0,0.0,0.0,0.0,0.0,0.0,0.0,0.0,0.0,0.0,0.0,0.0,0.0,0.0,0.0,0.0,0.0,0.0,0.0,0.0,0.0,0.0,0.0,0.0,0.0,0.0,0.0,0.0,0.0,0.0,0.0,0.0,0.0,0.0,0.0,0.0,0.0,0.0,0.0,0.0,0.0,0.0,0.0,0.0,0.0,0.0,0.0,0.0,0.0,0.0,0.0,0.0,0.0,0.0,0.0,0.0,0.0,0.0,0.0,0.0,0.0,0.0,0.0,0.0,0.0,0.0,0.0,0.0,0.0,0.0,0.0,0.0,0.0,0.0,0.0,0.0,0.0,0.0,0.0,0.0,0.0,0.0,0.0,0.0,0.0,0.0,0.0,0.0,0.0,0.0,0.0,0.0,0.0,0.0,0.0,0.0,0.0,0.0,0.0,0.0,0.0,0.0,0.0,0.0,0.0,0.0,0.0,0.0,0.0,0.0,0.0,0.0,0.0,0.0,0.0,0.0,0.0,0.0,0.0,0.0,0.0,0.0,0.0,0.0,0.0,0.0,0.0,0.0,0.0,0.0,0.0,0.0,0.0,0.0,0.0,0.0,0.0,0.0,0.0,0.0,0.0,0.0,0.0,0.0,0.0,0.0,0.0,0.0,0.0,0.0,0.0,0.0,0.0,0.0,0.0,0.0,0.0,0.0,0.0,0.0,0.0,0.0,0.0,0.0,0.0,0.0,0.0,0.0,0.0,0.0,0.0,0.0,0.0,0.0,0.0,0.0,0.0,0.0,0.0,0.0,0.0,0.0,0.0,0.0,0.0,0.0,0.0,0.0,0.0,0.0,0.0,0.0,0.0,0.0,0.0,0.0,0.0,0.0,0.0,0.0,0.0,0.0,0.0,0.0,0.0,0.0,0.0,0.0,0.0,0.0,0.0,0.0,0.0,0.0,0.0,0.0,0.0,0.0,0.0,0.0,0.0,0.0,0.0,0.0,0.0,0.0,0.0,0.0,0.0,0.0,0.0,0.0,0.0,0.0,0.0,0.0,0.0,0.0,0.0,0.0,0.0,0.0,0.0,0.0,0.0,0.0,0.0,0.0,0.0,0.0,0.0,0.0,0.0,0.0,0.0,0.0,0.0,0.0,0.0,0.0,0.0,0.0,0.0,0.0,0.0,0.0,0.0,0.0,0.0,0.0,0.0,0.0,0.0,0.0,0.0,0.0,0.0,0.0,0.0,0.0,0.0,0.0,0.0,0.0,0.0,0.0,0.0,0.0,0.0,0.0,0.0,0.0,0.0,0.0,0.0,0.0,0.0,0.0,0.0,0.0,0.0,0.0,0.0,0.0,0.0,0.0,0.0,0.0,0.0,0.0,0.0,0.0,0.0,0.0,0.0,0.0,0.0,0.0,0.0,0.0,0.0,0.0,0.0,0.0,0.0,0.0,0.0,0.0,0.0,0.0,0.0,0.0,0.0,0.0,0.0,0.0,0.0,0.0,0.0,0.0,0.0,0.0,0.0,0.0,0.0,0.0,0.0,0.0,0.0,0.0,0.0,0.0,0.0,0.0,0.0,0.0,0.0,0.0,0.0,0.0,0.0,0.0,0.0,0.0,0.0,0.0,0.0,0.0,0.0,0.0,0.0,0.0,0.0,0.0,0.0,0.0,0.0,0.0,0.0,0.0,0.0,0.0,0.0,0.0,0.0,0.0,0.0,0.0,0.0,0.0,0.0,0.0,0.0,0.0,0.0,0.0,0.0,0.0,0.0,0.0,0.0,0.0,0.0,0.0,0.0,0.0,0.0,0.0,0.0,0.0,0.0,0.0,0.0,0.0,0.0,0.0,0.0,0.0,0.0,0.0,0.0,0.0,0.0,0.0,0.0,0.0,0.0,0.0,0.0,0.0,0.0,0.0,0.0,0.0,0.0,0.0,0.0,0.0,0.0,0.0,0.0,0.0,0.0,0.0,0.0,0.0,0.0,0.0,0.0,0.0,0.0,0.0,0.0,0.0,0.0,0.0,0.0,0.0,0.0,0.0,0.0,0.0,0.0,0.0,0.0,0.0,0.0,0.0,0.0,0.0,0.0,0.0,0.0,0.0,0.0,0.0,0.0,0.0,0.0,0.0,0.0,0.0,0.0,0.0,0.0,0.0,0.0,0.0,0.0,0.0,0.0,0.0,0.0,0.0,0.0,0.0,0.0,0.0,0.0,0.0,0.0,0.0,0.0,0.0,0.0,0.0,0.0,0.0,0.0,0.0,0.0,0.0,0.0,0.0,0.0,0.0,0.0,0.0,0.0,0.0,0.0,0.0,0.0,0.0,0.0,0.0,0.0,0.0,0.0,0.0,0.0,0.0,0.0,0.0,0.0,0.0,0.0,0.0,0.0,0.0,0.0,0.0,0.0,0.0,0.0,0.0,0.0,0.0,0.0,0.0,0.0,0.0,0.0,0.0,0.0,0.0,0.0,0.0,0.0,0.0,0.0,0.0,0.0,0.0,0.0,0.0,0.0,0.0,0.0,0.0,0.0,0.0,0.0,0.0,0.0,0.0,0.0,0.0,0.0,0.0,0.0,0.0,0.0,0.0,0.0,0.0,0.0,0.0,0.0,0.0,0.0,0.0,0.0,0.0,0.0,0.0,0.0,0.0,0.0,0.0,0.0,0.0,0.0,0.0,0.0,0.0,0.0,0.0,0.0,0.0,0.0,0.0,0.0,0.0,0.0,0.0,0.0,0.0,0.0,0.0,0.0,0.0,0.0,0.0,0.0,0.0,0.0,0.0,0.0,0.0,0.0,0.0,0.0,0.0,0.0,0.0,0.0,0.0,0.0,0.0,0.0,0.0,0.0,0.0,0.0,0.0,0.0,0.0,0.0,0.0,0.0,0.0,0.0,0.0,0.0,0.0,0.0,0.0,0.0,0.0,0.0,0.0,0.0,0.0,0.0,0.0,0.0,0.0,0.0,0.0,0.0,0.0,0.0,0.0,0.0,0.0,0.0,0.0,0.0,0.0,0.0,0.0,0.0,0.0,0.0,0.0,0.0,0.0,0.0,0.0,0.0,0.0,0.0,0.0,0.0,0.0,0.0,0.0,0.0,0.0,0.0,0.0,0.0,0.0,0.0,0.0,0.0,0.0,0.0,0.0,0.0,0.0,0.0,0.0,0.0,0.0,0.0,0.0,0.0,0.0,0.0,0.0,0.0,0.0,0.0,0.0,0.0,0.0,4.013,0.0,0.0,0.0,0.0,0.0,0.0,0.0,0.0,0.0,0.0,0.0,0.0,0.0,0.0,0.0,0.0,0.0,0.0,0.0,0.0,0.0,0.0,0.0,0.0,0.0,0.0,0.0,3.23,3.1632,3.1197,3.0772,3.0327,2.9921,2.9033,2.8174,2.7316,2.6823,2.7007,2.7798,2.9098,3.0783,3.28,3.1891,3.0571,2.9021,0.0,0.0,0.0,0.0,0.0,0.0,0.0,0.0,0.0,0.0,0.0,0.0,0.0,0.0,0.0,0.0,0.0,0.0,0.0,0.0,0.0,0.0,0.0,0.0,0.0,0.0,0.0,0.0,0.0,0.0,0.0,0.0,0.0,0.0,0.0,0.0,0.0,0.0,0.0,0.0,0.0,0.0,0.0,0.0,0.0,0.0,0.0,0.0,0.0,0.0,0.0,0.0,0.0,0.0,0.0,0.0,0.0,0.0,0.0,0.0,0.0,0.0,0.0,0.0,0.0,0.0,0.0,0.0,0.0,0.0,0.0,4.2376,0.0,0.0,0.0,0.0,0.0,0.0,0.0,0.0,0.0,0.0,0.0,0.0,0.0,0.0,0.0,0.0,0.0,0.0,0.0,0.0,0.0,0.0,0.0,3.2676,3.3295,3.3721,3.3478,3.3004,3.2297,3.1437,3.0799,3.0507,2.9659,2.8849,2.8145,2.826,2.9098,3.0606,3.2519,3.5147,3.8454,3.8608,3.7185,3.4493,3.2981,0.0,0.0,0.0,0.0,0.0,0.0,0.0,0.0,0.0,0.0,0.0,0.0,0.0,0.0,0.0,0.0,0.0,0.0,0.0,0.0,0.0,0.0,0.0,0.0,0.0,0.0,0.0,0.0,0.0,0.0,0.0,0.0,0.0,0.0,0.0,0.0,0.0,0.0,0.0,0.0,0.0,0.0,0.0,0.0,0.0,0.0,0.0,0.0,0.0,0.0,0.0,0.0,0.0,0.0,0.0,0.0,0.0,0.0,0.0,0.0,0.0,0.0,0.0,0.0,0.0,5.7327,5.8013,5.8787,5.9249,5.2552,4.9732,4.959,0.0,0.0,0.0,0.0,0.0,0.0,0.0,0.0,0.0,0.0,0.0,0.0,0.0,0.0,0.0,0.0,0.0,0.0,0.0,0.0,0.0,0.0,3.3042,3.3997,3.6199,3.5017,3.4106,3.399,3.3141,3.2011,3.0475,2.9627,2.9115,2.894,2.9693,3.0518,3.1444,3.7386,4.2082,4.5475,4.6167,4.6263,4.5534,3.8108,3.5047,3.5185,0.0,0.0,0.0,0.0,0.0,0.0,0.0,0.0,0.0,0.0,0.0,0.0,0.0,0.0,0.0,0.0,0.0,0.0,0.0,0.0,0.0,0.0,0.0,0.0,0.0,0.0,0.0,0.0,0.0,0.0,0.0,0.0,0.0,0.0,0.0,0.0,0.0,0.0,0.0,0.0,0.0,3.5793,3.8529,0.0,0.0,0.0,0.0,0.0,0.0,0.0,0.0,0.0,0.0,0.0,0.0,0.0,0.0,5.6239,5.9426,6.1447,6.2337,6.5537,6.6757,6.6125,6.6227,6.6772,6.7447,6.4906,0.0,5.4061,5.1178,0.0,0.0,0.0,0.0,0.0,0.0,0.0,0.0,0.0,0.0,0.0,0.0,0.0,0.0,0.0,0.0,0.0,0.0,0.0,0.0,0.0,3.5504,3.7257,3.8852,3.9571,3.894,3.6537,3.5612,3.4135,3.1915,3.0556,3.0094,3.0544,3.1802,3.4721,3.938,4.4691,4.8294,5.0291,5.0636,5.0828,5.0636,4.6396,4.3159,4.0575,3.6807,0.0,0.0,0.0,0.0,0.0,0.0,0.0,0.0,0.0,0.0,0.0,0.0,0.0,0.0,0.0,0.0,0.0,0.0,0.0,0.0,0.0,0.0,0.0,0.0,0.0,0.0,0.0,0.0,0.0,0.0,0.0,0.0,0.0,0.0,0.0,0.0,0.0,0.0,0.0,3.6957,4.0927,4.1082,4.1209,4.0364,0.0,0.0,0.0,0.0,0.0,0.0,0.0,0.0,0.0,5.4815,5.7508,6.0328,6.3317,6.6244,6.8147,6.904,7.1503,7.2491,7.2158,7.2585,7.2757,7.264,7.1358,6.8093,6.3249,5.8258,5.4451,5.1507,0.0,0.0,0.0,0.0,0.0,4.9917,0.0,0.0,0.0,0.0,0.0,0.0,0.0,0.0,0.0,0.0,0.0,0.0,3.5056,3.8093,4.0626,4.2086,4.3744,4.3458,4.0462,3.8281,3.615,3.3968,3.1852,3.1225,3.2301,3.5575,4.0781,4.7945,5.1545,5.3843,5.4901,5.4901,5.5016,5.5207,5.4317,5.1232,4.6411,4.2164,3.8647,3.5534,0.0,0.0,0.0,0.0,0.0,0.0,0.0,0.0,0.0,0.0,0.0,0.0,0.0,0.0,0.0,0.0,0.0,0.0,0.0,0.0,0.0,0.0,0.0,0.0,0.0,0.0,0.0,0.0,0.0,0.0,0.0,0.0,0.0,0.0,0.0,0.0,0.0,4.1432,4.5131,4.3363,4.4694,4.4355,0.0,0.0,0.0,0.0,0.0,0.0,5.3674,5.6251,5.8881,6.1662,6.4668,6.7464,7.005,7.2168,7.3643,7.4554,7.6086,7.6786,7.6824,7.7425,7.7365,7.676,7.5672,7.3829,7.1115,6.4473,6.0009,5.7192,5.5531,5.4991,0.0,5.6881,5.7439,5.7857,0.0,0.0,0.0,0.0,0.0,0.0,0.0,0.0,0.0,0.0,0.0,3.5136,3.7642,4.0159,4.298,4.6292,4.595,4.5778,4.6394,4.1123,3.7507,3.6546,3.3391,3.2366,3.3939,4.1857,4.8898,5.4905,5.669,5.8448,6.0108,6.0108,6.0556,6.1245,6.0441,5.7698,5.326,4.6598,4.4093,4.4017,3.6642,0.0,0.0,0.0,0.0,0.0,0.0,0.0,0.0,0.0,0.0,0.0,0.0,0.0,0.0,0.0,0.0,0.0,0.0,0.0,0.0,0.0,0.0,0.0,0.0,0.0,0.0,0.0,0.0,0.0,0.0,0.0,0.0,0.0,0.0,0.0,0.0,0.0,0.0,4.603,4.9446,0.0,0.0,0.0,0.0,5.1695,5.4347,5.7343,6.0716,6.3317,6.6221,6.96,7.1365,7.354,7.6221,7.7117,7.8049,7.8981,7.9893,8.032,8.032,8.0398,8.0359,8.0242,7.8552,7.6842,7.4766,6.8684,6.5134,6.3386,6.1648,6.1512,6.2377,6.3241,6.3583,6.3769,0.0,0.0,0.0,0.0,0.0,0.0,0.0,0.0,3.1058,3.1637,3.5148,3.8323,4.0275,4.5192,4.9047,5.0798,5.2184,5.1895,4.951,4.4278,4.1354,4.1585,3.7271,3.7402,4.2852,4.8039,5.2738,5.6996,5.9185,6.0867,6.2041,6.2041,6.2194,6.2424,6.1583,6.0092,5.7837,5.269,4.9098,4.6424,4.0998,3.6986,0.0,0.0,0.0,0.0,0.0,0.0,0.0,0.0,0.0,0.0,0.0,0.0,0.0,0.0,0.0,0.0,0.0,0.0,0.0,0.0,0.0,0.0,0.0,0.0,0.0,0.0,0.0,0.0,0.0,0.0,0.0,0.0,0.0,0.0,0.0,0.0,0.0,5.2627,5.5424,0.0,0.0,5.4155,5.6214,5.8817,6.1391,6.4116,6.6954,6.9532,7.1726,7.3472,7.5658,7.7827,7.988,8.0766,8.1621,8.2514,8.2882,8.3058,8.3039,8.3,8.2417,8.1387,8.0727,7.8844,7.6107,7.395,7.1442,6.8823,6.8241,6.8233,6.8564,6.8836,6.9328,6.9716,0.0,0.0,0.0,0.0,0.0,0.0,0.0,0.0,3.1769,3.3234,3.7384,4.1262,4.4042,4.9432,5.3261,5.4374,5.5742,5.5511,5.2951,4.7491,4.4607,4.5145,4.1831,4.312,4.9893,5.3847,5.734,6.0446,6.2624,6.4038,6.4611,6.4611,6.439,6.4084,6.3512,6.2795,6.1735,5.811,5.4142,4.993,4.5693,4.2504,3.9738,0.0,0.0,0.0,0.0,0.0,0.0,0.0,0.0,0.0,0.0,0.0,0.0,0.0,0.0,0.0,0.0,0.0,0.0,0.0,0.0,0.0,0.0,0.0,0.0,0.0,0.0,0.0,0.0,0.0,0.0,0.0,0.0,0.0,0.0,0.0,5.7208,5.7465,6.0546,6.1749,5.9512,6.105,6.3262,6.5895,6.8225,7.036,7.2344,7.4558,7.6165,7.6953,7.8912,8.0641,8.2097,8.2948,8.3656,8.4262,8.4612,8.4767,8.4786,8.4748,8.4164,8.3169,8.2844,8.1077,7.8437,7.8456,7.6764,7.4084,7.2996,7.288,7.3307,7.2746,7.3273,7.3989,0.0,0.0,0.0,0.0,0.0,0.0,0.0,3.0497,3.2016,3.624,3.9792,4.3893,4.8894,5.2549,5.5297,5.6844,5.6236,5.6104,5.6844,5.0584,4.682,4.6877,4.6932,4.9319,5.4345,5.9213,6.293,6.5452,6.7095,6.7897,6.7897,6.7859,6.7407,6.6548,6.651,6.5982,6.4971,6.2535,5.9139,5.5042,5.0849,4.8552,4.7034,0.0,0.0,0.0,0.0,0.0,0.0,0.0,0.0,0.0,0.0,0.0,0.0,0.0,0.0,0.0,0.0,0.0,0.0,0.0,0.0,0.0,0.0,0.0,0.0,0.0,0.0,0.0,0.0,0.0,0.0,0.0,0.0,0.0,5.1215,5.7085,6.1109,6.0399,6.4754,6.7174,6.5604,6.7677,7.0176,7.2792,7.4557,7.5915,7.6788,7.8318,7.9554,8.0384,8.1208,8.2057,8.305,8.3811,8.4237,8.432,8.5191,8.5602,8.568,8.568,8.573,8.5681,8.4842,8.3504,8.1892,8.1892,8.0864,7.8981,7.5641,7.5348,7.657,7.4956,7.5422,7.6493,0.0,0.0,0.0,0.0,0.0,0.0,0.0,3.1426,3.3276,3.6272,4.175,4.6647,4.9852,5.4885,5.825,5.8688,5.7981,5.7328,5.6921,5.0504,4.7241,4.8443,5.2594,5.6665,6.0436,6.2433,6.442,6.633,6.74,6.7897,6.7897,6.7286,6.7184,6.7425,6.6777,6.5988,6.5085,6.44,6.2693,6.0038,5.4694,5.1307,4.896,0.0,0.0,0.0,0.0,0.0,0.0,0.0,0.0,0.0,0.0,0.0,0.0,0.0,0.0,0.0,0.0,0.0,0.0,0.0,0.0,0.0,0.0,0.0,0.0,0.0,0.0,0.0,0.0,0.0,0.0,0.0,0.0,5.9047,5.8463,6.2177,6.601,6.8859,7.099,7.256,7.3374,7.4576,7.5894,7.7271,7.7835,7.8706,8.0174,8.0655,8.1562,8.3024,8.385,8.4985,8.6505,8.6157,8.63,8.6972,8.7229,8.7396,8.7429,8.7957,8.7553,8.6472,8.6185,8.4456,8.1776,8.1796,8.0785,7.906,7.8224,7.8142,7.8453,7.8046,7.7813,7.7481,0.0,0.0,0.0,0.0,0.0,0.0,0.0,3.1826,3.4186,3.774,4.3517,4.8702,5.2269,5.7036,5.9826,5.9393,5.8626,5.7512,5.5892,5.1705,5.0511,5.3173,5.7289,6.0895,6.3885,6.5834,6.7254,6.8215,6.9017,6.9437,6.9365,6.8564,6.8002,6.7673,6.7521,6.6954,6.6015,6.5293,6.4875,6.4086,5.8988,5.6054,5.4334,4.9898,4.8085,4.7571,4.4789,4.3632,4.3292,4.2221,0.0,0.0,0.0,0.0,0.0,0.0,0.0,0.0,0.0,0.0,0.0,0.0,0.0,0.0,0.0,0.0,0.0,0.0,0.0,0.0,0.0,0.0,0.0,0.0,6.1002,6.5528,6.6845,6.849,7.0834,7.4358,7.5249,7.6372,7.8463,7.8734,7.9338,8.06,8.1026,8.1507,8.2104,8.2801,8.3474,8.4057,8.4895,8.5785,8.6803,8.6726,8.6919,8.7422,8.7809,8.7835,8.7551,8.835,8.8011,0.0,8.676,8.5419,8.3297,8.3324,8.2505,0.0,0.0,0.0,0.0,0.0,7.8823,7.746,0.0,0.0,0.0,0.0,0.0,0.0,0.0,3.1955,3.4864,4.0005,4.5071,5.0086,5.5017,5.8619,6.0248,5.9358,5.8678,5.7273,5.4776,5.3896,5.5249,5.9224,6.1172,6.335,6.591,6.8935,7.0544,7.0556,7.1242,7.155,7.1517,7.0527,6.9312,6.7952,6.8522,6.8334,6.7428,6.595,6.6139,6.7049,6.3221,6.1581,6.0849,5.5388,5.4258,5.5119,5.1243,4.9487,4.8563,4.6199,0.0,0.0,0.0,0.0,0.0,0.0,0.0,0.0,0.0,0.0,0.0,0.0,0.0,0.0,0.0,0.0,0.0,0.0,0.0,0.0,0.0,0.0,0.0,0.0,6.6861,7.1192,7.5276,7.5276,7.5701,7.7867,7.8138,7.9105,8.1542,8.1194,8.1451,8.3048,8.39,8.4016,8.3358,0.0,0.0,0.0,0.0,8.5488,8.5604,8.6261,8.6648,8.6764,8.7615,8.7603,8.6867,8.7836,8.7836,8.7061,8.6945,8.643,8.5616,8.5526,8.4979,8.3901,8.0838,7.9988,8.0553,8.0592,7.9212,0.0,0.0,0.0,0.0,0.0,0.0,0.0,0.0,3.2787,3.5921,4.166,4.6263,5.0615,5.4977,5.7901,5.9473,5.9243,5.9115,5.8489,5.7263,5.7034,5.8181,6.0981,6.4076,6.6872,6.9327,7.0701,7.1624,7.2238,7.1705,7.1784,7.2392,7.0185,6.9655,7.0497,6.9319,6.8637,6.8337,6.8034,6.7693,6.7276,6.576,6.3941,6.1928,5.9425,5.8342,5.7996,5.6445,5.5919,5.567,5.3836,5.1767,4.9635,4.7642,4.4036,0.0,0.0,0.0,0.0,0.0,0.0,0.0,0.0,0.0,0.0,0.0,0.0,0.0,0.0,0.0,0.0,0.0,0.0,0.0,6.6797,7.2229,7.6905,7.9854,8.073,8.1001,8.0807,8.0769,8.1504,8.3399,8.4018,8.4443,8.4817,8.5011,8.532,8.5862,8.5552,0.0,8.6107,8.6261,8.6687,8.7383,8.688,8.6958,8.7654,0.0,0.0,8.7719,8.9228,8.9499,8.8687,8.799,8.719,8.6339,8.5681,8.4906,8.3995,8.2668,8.1889,8.1461,8.1422,8.1131,8.0649,0.0,0.0,0.0,0.0,0.0,0.0,0.0,3.3042,3.5891,4.0955,4.5304,4.9214,5.2518,5.4848,5.5983,5.549,5.5785,5.6563,5.781,5.9071,6.144,6.5222,6.6987,6.9022,7.1506,7.1931,7.2543,7.3231,7.2395,7.213,7.251,7.0801,6.9966,6.9929,6.9929,6.9436,6.8603,6.8603,6.8603,6.8527,6.7276,6.6025,6.4661,6.2576,6.1381,6.0806,6.0289,5.9693,5.8956,5.7695,5.5938,5.3813,5.1245,4.8221,4.4778,0.0,0.0,0.0,0.0,0.0,0.0,0.0,0.0,0.0,0.0,0.0,0.0,0.0,0.0,5.3917,5.7677,0.0,6.849,7.1926,7.6405,8.0034,8.1787,8.2779,8.3192,8.2857,8.2819,8.3283,8.4598,8.5062,8.5681,8.6532,8.661,8.6996,8.7847,8.7499,8.7461,8.7886,8.7886,8.7859,8.787,8.7859,8.7859,8.787,8.9599,8.9975,8.9201,9.0478,9.0594,8.9743,8.8892,8.8041,8.719,8.6377,8.5514,8.4674,8.4243,8.3638,8.2857,8.2393,8.2259,8.2117,0.0,0.0,0.0,0.0,0.0,0.0,0.0,3.3091,3.563,4.0001,4.3867,4.7144,4.963,5.1168,5.1935,5.1676,5.27,5.4944,5.8814,6.1106,6.4505,6.9399,6.9675,7.0747,7.296,7.3078,7.3422,7.399,7.3117,7.2775,7.2848,7.1635,7.0536,6.9626,7.046,7.0195,6.9096,6.8906,6.9247,6.9778,6.8413,6.7769,6.739,6.5192,6.3774,6.294,6.2687,6.1522,5.9998,5.9147,5.7927,5.629,5.3376,5.1485,4.9317,4.3816,4.2277,0.0,0.0,0.0,0.0,0.0,0.0,0.0,0.0,0.0,4.8874,5.2627,5.6578,6.0783,6.5341,6.9731,7.3639,7.6673,7.9913,8.2266,8.2912,8.3933,8.4607,8.4545,8.4417,8.4637,8.5488,8.5565,8.6223,8.777,8.7925,8.835,8.9367,8.9251,8.9212,8.9406,8.9096,8.8605,8.8016,8.8731,8.8875,8.8316,9.0576,9.1223,9.0439,9.1107,9.1058,9.0362,8.9704,8.8931,8.8106,8.719,8.6339,8.5539,8.5539,8.5152,8.4443,8.3283,8.2857,8.265,0.0,0.0,0.0,0.0,0.0,0.0,0.0,0.0,3.5796,4.0784,4.3177,4.5361,4.7907,4.8328,4.9302,5.1453,5.376,5.7477,6.2963,6.4298,6.6745,7.0946,7.186,7.2736,7.3688,7.441,7.4749,7.4781,7.3909,7.3871,7.4591,7.2203,7.1787,7.2962,7.0915,7.0308,7.0763,7.0043,6.9816,6.9891,6.9702,6.9171,6.8375,6.7352,6.5603,6.3579,6.2845,6.1149,5.9064,5.8279,5.7494,5.6597,5.5446,5.454,5.3203,4.9471,0.0,4.3585,4.1623,4.1316,0.0,4.4201,4.5547,4.8279,0.0,0.0,5.7126,6.2012,6.5254,6.8052,7.0848,7.4868,7.8402,8.0328,8.2832,8.4635,8.4802,8.6191,8.6924,8.6221,8.5562,8.5526,8.6377,8.6455,8.688,8.7847,8.7925,8.8594,9.0093,8.9436,8.933,9.008,8.8613,8.8112,8.8776,8.8884,8.93,9.0016,9.0999,9.1068,9.04,9.046,9.046,9.0362,9.0323,8.9792,8.9008,8.8079,8.7228,8.6455,8.6455,8.6416,8.6029,8.3695,8.2832,8.2689,0.0,0.0,0.0,0.0,0.0,0.0,0.0,0.0,0.0,3.8894,4.0806,4.2298,4.3369,4.3904,4.4822,4.6347,5.1457,5.6442,6.0798,6.5035,6.8583,7.1289,7.2129,7.2966,7.3763,7.3611,7.3949,7.4895,7.3568,7.3341,7.4136,7.3037,7.2696,7.2886,7.2317,7.1976,7.1787,7.0953,7.0574,7.0536,7.0081,6.9436,6.8563,6.7199,6.549,6.366,6.2883,6.1043,0.0,5.87,5.7468,5.605,5.6189,5.5071,5.3238,5.0856,4.8779,0.0,4.6394,0.0,0.0,0.0,5.1779,5.5164,5.8704,6.0896,6.3205,6.6821,7.0028,7.3097,7.6053,7.8921,8.1184,0.0,8.4311,8.5812,8.6345,8.6639,8.6863,8.6986,8.6414,8.6279,8.709,8.7167,8.7939,8.9793,8.9948,9.045,9.1624,9.1346,9.1084,9.0898,9.0204,8.9748,8.9601,9.0095,9.0319,9.0211,9.2055,9.2775,9.2586,9.3029,9.278,9.186,9.0847,9.0228,8.9831,8.9008,8.8455,8.8068,8.7538,8.7345,8.7112,8.5036,8.4263,8.4134,0.0,0.0,0.0,0.0,0.0,0.0,0.0,0.0,0.0,0.0,3.8476,3.9355,3.9546,4.054,4.1686,4.3003,4.912,5.4749,5.8986,6.4666,6.9008,7.1558,7.1978,7.2737,7.4066,7.3191,7.3454,7.4895,7.3682,7.3492,7.4288,7.4061,7.3757,7.3416,7.3568,7.3151,7.2317,7.1445,7.1104,7.1029,7.0195,6.955,6.8865,6.663,6.462,6.29,6.1438,5.9329,5.7101,5.6294,5.5148,5.4149,5.4556,5.3782,5.2543,5.1624,5.0625,4.9663,4.9163,0.0,0.0,5.3126,5.678,6.0512,6.1704,6.4551,6.7782,7.0821,7.3609,7.6457,7.9554,8.1547,8.3002,8.3824,8.5363,8.6594,8.6978,8.6967,8.6846,8.6807,8.6492,8.6632,8.748,8.7588,8.8545,9.0898,9.1091,9.1554,9.264,9.2448,9.2107,9.1721,9.1258,9.0917,9.0774,9.138,9.1611,9.1501,9.3384,9.4216,9.408,9.4234,9.3802,9.2818,9.1329,9.0711,9.0692,8.9842,8.9395,8.9151,8.8505,8.8207,8.8014,8.6544,8.5693,8.5191,0.0,0.0,0.0,0.0,0.0,0.0,0.0,0.0,0.0,0.0,0.0,0.0,0.0,3.9317,4.1265,4.3666,4.78,5.3046,5.9558,6.3204,6.7309,7.2167,7.1559,7.2317,7.4819,7.4023,7.4023,7.4895,7.4857,7.5236,7.6032,7.5236,7.5274,7.5918,7.4326,7.3151,7.2317,7.1445,7.1104,7.1029,7.0195,6.9891,6.9512,6.6177,6.3407,6.0855,5.7718,5.4933,5.2334,4.9182,4.922,5.0435,4.9669,5.0538,5.2005,5.2773,5.1893,5.0279,4.8586,0.0,5.3741,5.6242,5.9435,6.3089,6.7205,6.8898,7.0783,7.4938,7.6553,7.8015,8.0592,8.2439,8.3824,8.4709,8.6286,8.7055,8.6247,8.7555,8.7709,8.5286,8.5632,8.644,0.0,8.7526,8.8352,9.0088,9.0242,9.0943,9.2503,9.1809,9.1698,9.2441,9.0825,9.0748,9.2402,9.2441,9.332,9.493,9.4975,9.4625,9.3946,9.2287,9.194,9.2634,9.1771,9.1423,9.1492,9.0643,8.9852,8.9201,8.9163,8.9068,8.8895,8.8091,8.6764,8.5191,0.0,0.0,0.0,0.0,0.0,0.0,0.0,0.0,0.0,0.0,0.0,0.0,0.0,0.0,0.0,0.0,4.6853,5.1597,5.7156,6.2184,6.591,6.811,7.1142,7.2393,7.1597,7.2393,7.2962,7.3227,7.2658,7.3075,7.444,7.4781,7.5046,7.5311,7.5274,7.4478,7.3189,7.2886,7.2128,7.1029,7.0195,6.9588,6.8865,6.5985,6.2037,5.7354,0.0,5.0507,4.911,4.7487,4.6254,4.5625,4.7044,4.7124,4.6972,4.8452,5.0143,5.1739,5.2856,0.0,5.9595,6.2131,6.5306,6.8339,7.0392,7.1929,7.3534,7.5592,7.6669,7.79,7.9862,8.117,8.2401,8.3824,8.5016,8.6017,8.6863,8.7478,8.7094,8.5132,8.6132,0.0,0.0,0.0,0.0,9.1506,9.1737,9.2203,9.3246,9.3054,9.3015,9.3287,9.2749,9.271,9.3287,9.3287,9.3592,9.417,9.4783,9.4968,9.4694,9.3605,9.2981,9.2673,9.1753,9.1438,9.1431,9.1161,9.0904,9.0633,9.0063,8.987,8.9648,8.8312,8.7406,8.6703,0.0,0.0,0.0,0.0,0.0,0.0,0.0,0.0,0.0,0.0,0.0,0.0,0.0,0.0,0.0,0.0,0.0,4.9504,5.4582,5.8932,6.2349,6.4699,6.7314,6.8527,6.811,6.8262,6.8944,7.0157,6.9588,7.0649,7.3189,7.3757,7.4174,7.4478,7.497,7.4288,7.2696,7.2393,7.1673,7.0498,6.8451,6.7199,6.6097,6.2345,5.7673,0.0,4.7832,4.5255,4.3971,4.285,4.203,4.1762,4.3713,4.5092,4.6146,4.7338,5.0294,5.3865,5.7043,6.0301,6.3514,6.6699,6.9587,7.1896,7.3176,7.4282,7.5272,7.584,7.5947,7.6284,7.7331,7.7985,7.9177,8.1823,8.3445,8.5099,8.7132,8.7671,8.7363,8.5978,8.6478,8.6632,0.0,0.0,0.0,9.1364,9.2133,9.271,9.3249,9.3518,9.371,9.371,9.371,9.3826,9.4172,9.4172,9.4326,9.4634,9.4937,9.5087,9.5049,9.4236,9.3423,9.2613,9.204,9.1616,9.138,9.1688,9.1638,9.1385,9.1145,9.0904,9.0402,8.8779,8.8103,8.7919,0.0,0.0,0.0,0.0,0.0,0.0,0.0,0.0,0.0,0.0,0.0,0.0,0.0,0.0,0.0,0.0,0.0,0.0,5.1888,5.3821,5.6929,6.1818,6.0643,6.1401,6.4585,6.2311,6.2652,6.5836,6.5836,6.7921,7.1862,7.1976,7.2431,7.3189,7.3227,7.2279,7.0649,6.9891,6.9475,6.902,6.4926,6.2766,6.1401,5.5716,5.093,4.6795,4.2775,3.968,3.7354,3.5938,3.7177,3.947,4.031,4.4516,4.9269,4.9506,5.2516,5.6712,6.0981,6.3411,6.5695,6.9873,7.2172,7.3852,7.5557,7.5895,7.5818,7.5664,7.4341,7.3178,0.0,0.0,7.4734,7.8869,8.176,8.4412,8.7055,8.8132,8.8363,0.0,0.0,0.0,0.0,0.0,0.0,8.9979,0.0,9.2556,9.2633,9.3403,9.3864,9.3903,9.3941,9.4364,9.5172,9.5134,9.5518,9.6365,9.548,9.5018,9.498,9.4134,9.3326,9.2556,9.2556,9.2095,9.1441,9.2245,9.213,9.1441,9.2305,9.2107,9.111,8.9491,8.8836,8.856,0.0,0.0,0.0,0.0,0.0,0.0,0.0,0.0,0.0,0.0,0.0,0.0,0.0,0.0,0.0,0.0,0.0,0.0,4.9504,5.1802,5.4162,5.6702,5.8786,6.0302,6.1174,6.1136,6.1515,6.2349,6.2349,6.3259,6.5002,6.6215,6.6935,6.7162,6.7731,6.7087,6.5495,6.5305,6.413,6.2235,5.9923,5.8104,5.6436,5.3101,4.8856,4.4369,4.2107,3.8917,3.608,3.8249,4.1074,4.3711,4.394,4.6369,4.9755,5.2924,5.6409,6.0162,6.4457,6.7697,7.0585,7.3603,7.5173,7.6087,7.6574,7.5794,7.4427,7.2563,7.0805,6.9036,0.0,0.0,0.0,7.5648,8.0254,0.0,8.7055,8.8132,0.0,0.0,0.0,8.8786,8.8402,8.971,0.0,0.0,9.2249,9.3056,9.4287,9.5172,9.5903,9.6519,9.7173,9.7596,9.7827,9.7173,9.698,9.7173,9.6365,9.5634,9.498,9.4749,9.421,9.3403,9.3364,9.2941,9.2207,9.2438,9.2014,9.1248,9.1476,9.1437,9.1048,8.9453,8.8765,8.8425,0.0,0.0,0.0,0.0,0.0,0.0,0.0,0.0,0.0,0.0,0.0,0.0,0.0,0.0,0.0,0.0,0.0,0.0,0.0,4.892,5.0599,5.2608,5.3783,5.4769,5.5489,5.4882,5.5261,5.6777,5.636,5.7384,5.9696,6.0643,6.1288,6.1629,6.2084,6.178,6.0833,6.0113,5.8976,0.0,0.0,5.257,5.0789,4.7908,4.4611,4.1396,4.0152,3.9642,3.9986,0.0,0.0,4.715,4.8258,5.0588,5.3823,5.8042,0.0,6.424,6.8893,7.1765,7.3992,7.6174,7.7126,7.7155,7.5686,7.4405,7.2361,6.8317,6.6127,0.0,6.2081,0.0,0.0,0.0,0.0,0.0,8.7517,8.8709,8.921,0.0,8.9556,0.0,8.9787,9.0979,9.2133,0.0,9.3364,9.4172,9.548,9.6365,9.7211,9.8057,9.8519,9.8788,9.8788,9.7942,9.7519,9.748,9.6673,9.6057,9.5557,9.5557,9.5095,9.4249,0.0,9.3595,9.2518,9.2861,9.2322,9.1248,9.1595,9.1518,9.0979,8.9354,8.8738,8.8282,0.0,0.0,0.0,0.0,0.0,0.0,0.0,0.0,0.0,0.0,0.0,0.0,0.0,0.0,0.0,0.0,0.0,0.0,0.0,0.0,4.7036,4.9311,4.7908,4.7832,4.9538,4.7226,4.7567,5.0713,4.9917,5.1509,5.5223,5.5299,5.5678,5.6247,5.6247,5.6247,5.6133,5.4465,5.3745,5.3404,4.9462,4.6923,4.5179,0.0,4.003,3.8725,3.8156,4.0959,4.5316,4.7685,4.9251,5.0665,5.3072,5.6167,5.971,6.3743,6.6115,6.8457,7.3226,7.5135,7.6207,7.7892,7.8228,7.7297,7.4021,7.2246,6.9596,6.3667,0.0,5.9355,5.7733,6.1186,6.592,7.1025,0.0,8.3451,8.7902,8.9248,9.0171,9.1248,9.071,9.0633,9.1595,9.2402,9.3172,9.398,9.4749,9.5557,9.6403,9.725,9.8134,9.9096,9.9135,9.9058,9.8981,9.8096,9.7634,9.748,9.6673,9.6288,9.6288,9.6288,9.5903,9.5172,0.0,0.0,9.271,9.34,9.2707,9.1287,9.2168,9.1902,9.0825,8.9286,8.8556,8.7902,0.0,0.0,0.0,0.0,0.0,0.0,0.0,0.0,0.0,0.0,4.1841,4.1684,0.0,0.0,0.0,0.0,0.0,0.0,0.0,0.0,0.0,4.6771,4.5862,4.6127,4.7795,4.6051,4.6089,4.806,4.7908,4.859,4.9993,5.0675,5.0713,5.0182,5.0182,5.0182,5.0107,4.8401,4.7719,4.7453,4.4649,4.2943,4.1844,3.9873,0.0,0.0,3.9509,4.1245,4.4131,5.0046,5.3962,5.6702,5.8498,6.142,6.4728,6.7599,6.9689,7.1712,7.4664,7.6082,7.7188,7.8837,7.8256,7.6593,7.3906,7.0008,0.0,0.0,5.7152,5.517,5.4089,5.91,6.4872,6.9344,0.0,0.0,0.0,0.0,8.9748,0.0,0.0,0.0,0.0,0.0,0.0,0.0,0.0,0.0,9.725,9.8096,9.9288,10.0789,10.0904,10.0519,9.9865,9.8904,9.8096,9.748,9.6597,9.6213,9.6288,9.6288,9.6211,9.6019,0.0,0.0,9.3482,9.3633,9.271,9.1287,9.2172,9.1518,9.0017,8.9056,8.7786,8.6363,0.0,0.0,0.0,0.0,0.0,0.0,0.0,4.138,4.334,4.6663,4.6397,4.5688,4.509,4.4256,4.409,0.0,0.0,0.0,0.0,0.0,0.0,0.0,4.5103,4.5066,4.5483,4.4232,0.0,0.0,0.0,4.5445,4.6733,0.0,0.0,4.6089,4.5634,4.5672,4.5975,4.4308,4.3853,4.4042,4.1958,4.0631,3.9873,0.0,0.0,0.0,0.0,4.3194,4.6042,5.0199,5.5287,6.0376,6.2968,6.5485,6.8033,7.057,7.2249,7.3852,7.6383,7.7719,7.8596,7.9402,7.77,7.461,6.9788,0.0,0.0,0.0,5.2214,5.1083,5.108,5.6284,0.0,6.5692,7.2063,7.8438,8.3978,0.0,0.0,0.0,0.0,0.0,0.0,0.0,0.0,0.0,0.0,0.0,9.8096,9.9404,10.0519,10.1289,10.1326,10.0787,9.998,9.9095,9.8211,9.7443,9.6597,9.6251,9.6288,9.6288,9.6288,9.6249,9.5365,0.0,9.3672,9.3249,9.2326,9.121,9.1171,9.0633,8.971,8.7979,8.6824,8.594,0.0,0.0,0.0,0.0,0.0,0.0,0.0,4.3632,4.5894,4.9885,5.0748,4.9961,4.734,4.5746,4.4872,0.0,0.0,0.0,0.0,0.0,0.0,0.0,0.0,0.0,0.0,0.0,0.0,0.0,0.0,0.0,0.0,0.0,0.0,0.0,0.0,0.0,4.3322,4.1844,4.1579,0.0,0.0,0.0,0.0,0.0,0.0,0.0,0.0,4.4743,4.7401,5.0068,5.4953,6.0571,6.4408,6.7477,7.0085,7.2118,7.3806,7.5564,7.7752,7.9012,7.9691,7.9499,7.6763,7.2437,6.5769,6.0873,0.0,5.0159,4.8336,4.8145,4.9355,0.0,5.835,0.0,6.8552,7.4668,8.1131,8.3824,8.6599,0.0,0.0,0.0,0.0,0.0,0.0,0.0,0.0,0.0,9.8404,9.9904,10.0788,10.098,10.0824,10.0282,9.9591,9.8746,9.7978,9.7365,9.6597,9.6327,9.6557,9.6365,9.6211,9.598,9.5095,0.0,0.0,9.2713,9.1828,9.0829,9.0364,8.9863,8.9094,8.6901,8.5863,8.5363,0.0,0.0,0.0,0.0,0.0,0.0,0.0,4.4281,4.748,5.0912,5.2653,5.2589,5.0025,4.8897,4.7403,0.0,0.0,0.0,0.0,0.0,0.0,0.0,0.0,0.0,0.0,0.0,0.0,0.0,0.0,0.0,0.0,0.0,0.0,0.0,0.0,0.0,0.0,4.1579,0.0,0.0,0.0,0.0,0.0,0.0,0.0,0.0,0.0,0.0,4.5283,5.0862,0.0,5.477,5.9796,6.5654,7.071,7.094,0.0,0.0,7.8246,7.91,7.9631,7.8823,7.5476,7.086,6.4782,0.0,5.4451,4.9278,4.7549,4.7722,5.0066,5.1585,0.0,0.0,0.0,7.1783,8.0054,8.3978,8.7252,9.0605,0.0,0.0,0.0,0.0,0.0,0.0,0.0,0.0,0.0,9.8404,9.9209,9.9977,9.9204,9.8741,9.8664,9.7741,9.7362,9.7365,9.652,9.6559,9.7365,9.6634,9.5865,9.5057,0.0,0.0,0.0,9.2334,9.1335,9.0027,9.079,8.9671,8.7517,8.6478,8.5132,8.3785,0.0,0.0,0.0,0.0,0.0,0.0,4.3864,4.5197,4.7632,5.301,5.4371,5.4192,5.2563,5.1649,4.9467,4.5328,0.0,0.0,0.0,0.0,0.0,0.0,0.0,0.0,0.0,0.0,0.0,0.0,0.0,0.0,0.0,0.0,0.0,0.0,0.0,0.0,0.0,0.0,0.0,0.0,0.0,0.0,0.0,0.0,0.0,0.0,0.0,0.0,0.0,0.0,0.0,0.0,5.3759,5.8219,0.0,0.0,7.164,7.5284,7.663,7.8361,7.9361,7.7476,7.3437,6.8359,6.2348,0.0,5.0759,4.6646,4.5166,4.524,4.7222,4.9106,0.0,5.828,0.0,0.0,7.2342,7.6301,8.035,8.5662,0.0,0.0,0.0,0.0,0.0,0.0,0.0,0.0,0.0,9.8283,9.9204,9.9051,9.9117,9.8653,9.7619,9.7316,9.6746,9.5789,9.556,9.5635,9.598,9.5134,9.4789,9.4791,0.0,0.0,0.0,9.1682,9.0761,8.9687,8.9604,8.8333,8.6411,8.506,8.3824,8.2824,0.0,0.0,0.0,0.0,0.0,3.9433,4.4628,4.5731,4.7999,5.3722,5.5033,5.5007,5.4051,5.2767,5.038,4.6502,4.5475,0.0,0.0,0.0,0.0,0.0,0.0,0.0,0.0,0.0,0.0,0.0,0.0,0.0,0.0,0.0,0.0,0.0,0.0,0.0,0.0,0.0,0.0,0.0,0.0,0.0,0.0,0.0,0.0,0.0,0.0,0.0,0.0,0.0,0.0,5.0642,4.9413,5.2087,5.6973,6.3666,6.8667,7.2514,7.4976,7.713,7.813,7.5822,7.1629,6.6397,0.0,0.0,4.8798,4.5396,4.4013,4.3953,4.5663,4.7663,5.0394,5.4664,5.7181,6.1041,6.806,7.1679,7.5916,0.0,0.0,0.0,0.0,0.0,0.0,0.0,0.0,0.0,0.0,9.7657,9.8615,9.8082,9.826,9.7949,9.6992,9.6852,9.636,9.544,9.5137,9.5134,9.5289,9.4174,9.383,9.3947,0.0,0.0,0.0,9.0838,8.9995,8.9113,8.8382,8.7075,8.542,8.4028,8.2984,8.2215,0.0,0.0,0.0,0.0,0.0,0.0,4.2297,4.566,4.8984,5.2384,5.4333,5.5059,5.418,5.1801,4.9858,4.8933,4.6453,0.0,0.0,0.0,0.0,0.0,0.0,0.0,0.0,0.0,4.4876,4.4876,4.5748,0.0,0.0,0.0,0.0,0.0,0.0,0.0,0.0,0.0,0.0,0.0,0.0,0.0,0.0,0.0,0.0,0.0,0.0,0.0,0.0,0.0,0.0,0.0,0.0,4.874,5.1164,5.9665,6.5128,6.936,7.3591,7.5361,7.563,7.3937,7.0283,6.532,0.0,5.3682,4.9643,4.6278,4.4897,4.4841,4.6568,4.7548,4.951,5.3818,5.7274,6.2068,6.9711,7.2916,7.6344,0.0,0.0,0.0,0.0,0.0,0.0,0.0,0.0,0.0,0.0,9.6019,9.6942,9.7035,9.6101,9.6057,9.6898,9.6236,9.6322,9.7166,9.5713,9.5405,9.6021,9.4369,9.3102,0.0,0.0,0.0,0.0,8.9839,8.8997,8.8155,8.7389,8.6156,8.4613,8.373,8.2885,8.2079,0.0,0.0,0.0,0.0,0.0,0.0,0.0,4.367,4.5519,4.8876,5.0312,5.1381,5.2234,5.0555,4.9501,4.9744,4.6844,0.0,0.0,0.0,0.0,0.0,0.0,0.0,0.0,0.0,4.6051,4.662,4.7491,4.8174,4.8704,4.7567,0.0,0.0,0.0,0.0,0.0,0.0,0.0,0.0,0.0,0.0,0.0,0.0,0.0,0.0,0.0,0.0,0.0,0.0,0.0,0.0,0.0,0.0,0.0,5.2125,5.8473,6.4512,6.6397,6.8821,7.0129,6.7244,6.4205,6.0589,5.5549,5.1105,4.7299,4.447,4.3645,4.3838,4.4932,4.674,4.9875,5.5253,5.7997,6.1441,0.0,0.0,0.0,0.0,0.0,0.0,0.0,0.0,0.0,0.0,0.0,0.0,0.0,9.5407,9.6019,9.6025,9.6324,9.6324,9.6019,9.5925,9.5355,9.4474,9.4713,9.4292,9.3409,9.2833,0.0,0.0,0.0,0.0,0.0,8.9717,8.8876,8.8076,8.7274,8.5627,8.3671,8.3435,8.2438,8.1172,0.0,0.0,0.0,0.0,0.0,0.0,0.0,4.2334,4.3802,4.6854,4.7426,4.8548,5.1217,4.9096,4.8081,4.9591,4.683,0.0,0.0,0.0,0.0,0.0,0.0,0.0,0.0,4.5445,4.6582,4.8325,4.8894,4.9754,5.0882,4.9792,4.82,4.6177,0.0,0.0,0.0,0.0,0.0,0.0,0.0,0.0,4.5239,0.0,0.0,0.0,0.0,0.0,0.0,0.0,0.0,0.0,0.0,0.0,0.0,0.0,5.2664,5.755,6.0935,6.3897,6.5436,6.2974,6.0681,5.7912,5.3682,4.9643,4.6167,4.3957,4.3209,4.3248,4.4128,4.6357,0.0,0.0,0.0,0.0,0.0,0.0,0.0,0.0,0.0,0.0,0.0,0.0,0.0,0.0,0.0,0.0,0.0,0.0,9.4643,9.4643,9.5789,9.6133,9.5598,9.5729,9.5274,9.4164,9.4211,9.3636,9.2601,9.1872,0.0,0.0,0.0,0.0,0.0,8.9218,8.8148,8.704,8.624,8.4595,8.2719,8.2754,8.1872,8.072,0.0,0.0,0.0,0.0,0.0,0.0,0.0,4.1686,4.352,4.5851,4.554,4.6603,5.0531,4.7424,4.6007,4.8438,0.0,0.0,0.0,0.0,0.0,0.0,0.0,0.0,0.0,4.5028,4.6657,4.9879,5.0096,5.1033,5.2683,5.2561,5.035,4.6516,4.721,0.0,0.0,0.0,0.0,0.0,0.0,4.5201,0.0,0.0,0.0,0.0,0.0,0.0,0.0,0.0,0.0,0.0,0.0,0.0,0.0,0.0,0.0,0.0,0.0,5.9819,6.1089,6.0204,5.8773,5.6521,5.2466,4.891,0.0,4.4442,4.3369,4.3101,4.4344,0.0,0.0,0.0,0.0,0.0,0.0,0.0,0.0,0.0,0.0,0.0,0.0,0.0,0.0,0.0,0.0,0.0,0.0,0.0,9.3115,9.3115,9.4681,9.5522,9.5522,9.561,9.5696,9.5619,9.417,9.3328,9.3054,9.1523,0.0,0.0,0.0,0.0,0.0,8.8415,8.7078,8.5435,8.4594,8.3333,8.1915,8.1915,8.1341,8.0614,0.0,0.0,0.0,0.0,0.0,0.0,0.0,0.0,0.0,0.0,4.3552,4.456,4.5506,4.5338,4.5376,0.0,0.0,0.0,0.0,0.0,0.0,0.0,0.0,0.0,4.4986,4.619,4.7832,4.9879,5.1906,5.3404,5.4392,5.3756,5.1619,4.8163,4.7099,4.5612,0.0,0.0,0.0,0.0,4.459,4.4322,0.0,0.0,0.0,0.0,4.402,4.4344,0.0,0.0,0.0,0.0,0.0,0.0,0.0,0.0,4.4701,4.5586,4.7394,0.0,5.3164,5.2279,5.1739,5.0776,0.0,4.6302,0.0,0.0,0.0,0.0,0.0,0.0,0.0,0.0,0.0,0.0,0.0,0.0,0.0,0.0,0.0,0.0,0.0,0.0,0.0,0.0,0.0,0.0,0.0,0.0,9.3115,9.3115,9.4146,9.4681,9.4681,9.4725,9.4381,9.3731,9.3999,9.312,9.1246,9.1438,0.0,0.0,0.0,0.0,8.9256,8.8496,8.712,8.5435,8.4672,8.3333,8.1843,8.1843,8.1269,8.0505,0.0,0.0,0.0,0.0,0.0,0.0,0.0,0.0,0.0,0.0,0.0,4.3493,4.3814,4.4614,0.0,0.0,0.0,0.0,0.0,0.0,0.0,0.0,0.0,4.4393,4.4393,4.6,4.7858,4.9933,5.2123,5.404,5.5627,5.518,5.2759,4.8694,4.6288,4.495,4.4543,4.5065,4.5277,4.5239,4.4781,0.0,0.0,0.0,0.0,0.0,4.3369,4.3847,0.0,4.6147,4.6147,4.5435,0.0,0.0,0.0,0.0,4.3124,4.3239,4.3607,4.6819,4.9932,4.9471,4.9258,4.8851,4.7586,4.5361,0.0,0.0,0.0,0.0,0.0,0.0,0.0,0.0,0.0,0.0,0.0,0.0,0.0,0.0,0.0,0.0,0.0,0.0,0.0,0.0,0.0,0.0,0.0,0.0,9.2504,9.2504,9.2962,9.3421,9.3803,9.4223,9.3955,9.3115,9.3191,9.2465,9.1166,9.1204,0.0,0.0,0.0,0.0,8.8644,8.7424,8.5933,8.4289,8.3525,8.2378,8.1232,8.1652,8.1499,8.1117,0.0,0.0,0.0,0.0,0.0,0.0,0.0,0.0,0.0,0.0,0.0,0.0,0.0,0.0,0.0,0.0,0.0,0.0,0.0,0.0,0.0,0.0,0.0,4.3952,4.4104,4.5621,4.7656,5.0214,5.2113,5.4182,5.6216,5.6662,5.405,4.8846,4.5536,4.4347,4.481,4.5027,4.5086,4.5086,4.4972,0.0,0.0,0.0,0.0,0.0,0.0,0.0,0.0,4.6589,4.6973,4.6378,4.6378,0.0,0.0,0.0,0.0,0.0,4.309,4.6282,4.9181,4.8644,4.8715,4.869,4.7733,4.5166,0.0,0.0,0.0,0.0,0.0,0.0,0.0,0.0,0.0,0.0,0.0,0.0,0.0,0.0,0.0,0.0,0.0,0.0,0.0,0.0,0.0,0.0,0.0,0.0,0.0,9.1816,9.1816,9.216,9.2886,9.365,9.365,9.2886,9.216,9.1739,9.1586,9.0899,9.0555,0.0,0.0,0.0,8.7804,8.6314,8.4632,8.2913,8.2264,8.1385,8.0582,8.1347,8.1614,8.1614,0.0,0.0,0.0,0.0,0.0,0.0,0.0,0.0,0.0,0.0,0.0,0.0,0.0,0.0,0.0,0.0,0.0,0.0,0.0,0.0,0.0,4.3999,4.4493,4.5138,4.5859,4.6809,4.8542,5.1087,5.4286,5.5646,5.5351,5.8144,5.5987,4.9682,4.6458,4.4315,4.3132,4.3881,4.4208,4.4131,4.3443,0.0,0.0,0.0,0.0,0.0,0.0,0.0,0.0,4.4173,4.471,4.4614,4.4614,0.0,0.0,0.0,0.0,0.0,4.4393,4.7165,4.8544,4.5669,4.6549,4.7695,4.6125,4.4745,0.0,0.0,0.0,0.0,0.0,0.0,0.0,0.0,0.0,0.0,0.0,0.0,0.0,0.0,0.0,0.0,0.0,0.0,0.0,0.0,0.0,0.0,0.0,0.0,0.0,9.1778,9.1816,9.1854,9.2007,9.2121,9.2121,9.2007,9.1854,9.1434,9.0784,9.0669,9.0211,0.0,0.0,8.8415,8.6963,8.6775,8.5207,8.299,8.2988,8.1957,8.0506,8.0659,8.0697,8.0697,0.0,0.0,0.0,0.0,0.0,0.0,0.0,0.0,0.0,0.0,0.0,0.0,0.0,0.0,0.0,0.0,0.0,0.0,0.0,0.0,4.4796,4.4524,4.5285,4.5703,4.5603,4.7756,5.0177,5.2699,5.5646,5.732,5.7777,5.6112,5.3232,4.9239,4.5529,4.3437,4.2751,4.3194,4.3367,4.3329,0.0,0.0,0.0,0.0,0.0,0.0,0.0,0.0,0.0,0.0,4.448,4.4748,4.4345,0.0,0.0,0.0,0.0,0.0,4.1673,4.423,4.6299,4.5668,4.8039,5.0252,4.9029,4.7363,0.0,0.0,0.0,0.0,0.0,0.0,0.0,0.0,0.0,0.0,0.0,0.0,0.0,0.0,0.0,0.0,0.0,0.0,0.0,0.0,0.0,0.0,0.0,0.0,0.0,0.0,9.1768,9.1773,9.1816,9.1357,9.1166,9.1166,9.1166,9.0708,8.9905,8.9905,8.9447,8.8644,0.0,8.7536,8.6734,8.5857,8.4519,8.2951,8.2569,8.1919,8.127,8.169,8.1576,8.1194,0.0,0.0,0.0,0.0,0.0,0.0,0.0,0.0,0.0,0.0,0.0,0.0,0.0,0.0,0.0,0.0,0.0,0.0,0.0,0.0,4.4486,4.4554,4.5734,4.6549,4.6768,4.9365,5.2056,5.4798,5.7311,5.9177,6.0289,5.4455,5.0685,4.8743,4.456,4.239,4.1856,4.2125,4.2335,4.2488,0.0,0.0,0.0,0.0,0.0,0.0,0.0,0.0,0.0,0.0,0.0,0.0,0.0,0.0,0.0,4.1583,4.0241,3.961,4.0607,4.2603,4.49,4.6967,4.9564,5.1735,5.2117,0.0,0.0,0.0,0.0,0.0,0.0,0.0,0.0,0.0,0.0,0.0,0.0,0.0,0.0,0.0,0.0,0.0,0.0,0.0,0.0,0.0,0.0,0.0,0.0,0.0,0.0,0.0,9.1343,9.1272,9.151,9.0517,9.0211,9.0593,9.0402,8.9944,8.9294,8.9103,8.8568,8.7766,8.7078,8.6696,8.639,8.49,8.3792,8.2913,8.2111,8.169,8.1576,8.2187,8.2034,8.1499,0.0,0.0,0.0,0.0,0.0,0.0,0.0,0.0,0.0,0.0,0.0,0.0,0.0,0.0,0.0,0.0,0.0,0.0,0.0,0.0,4.2802,4.2865,4.5192,4.8257,5.1954,5.2374,5.4154,5.751,5.9998,6.1264,6.1164,5.5358,5.1269,4.8691,4.4624,4.1495,3.9317,4.0119,4.0922,4.1533,4.0769,0.0,0.0,0.0,0.0,0.0,0.0,0.0,0.0,0.0,0.0,0.0,0.0,0.0,4.2872,4.2699,4.153,4.1182,4.5112,4.5744,4.6087,4.9302,4.9143,0.0,5.3034,5.1964,0.0,5.4218,0.0,0.0,0.0,0.0,0.0,0.0,0.0,0.0,0.0,0.0,0.0,0.0,0.0,0.0,0.0,0.0,0.0,0.0,0.0,0.0,0.0,0.0,0.0,0.0,0.0,8.9867,9.0669,8.9103,8.9065,9.0593,8.9791,8.937,8.9256,8.853,8.7727,8.6887,8.6849,8.6352,8.555,8.4671,8.3792,8.2913,8.2111,8.1308,8.0582,8.0659,8.0621,8.0582,0.0,0.0,0.0,0.0,0.0,0.0,0.0,0.0,0.0,0.0,0.0,0.0,0.0,0.0,0.0,0.0,0.0,0.0,0.0,4.1566,4.2349,4.3441,4.5426,4.7983,5.1089,5.3748,5.6763,6.0103,6.159,6.1217,5.8919,5.3658,4.983,4.719,4.3614,4.1457,4.0578,4.0922,4.1227,4.1418,4.0616,4.0348,0.0,0.0,0.0,0.0,0.0,0.0,0.0,0.0,4.1303,4.2355,4.2546,4.3025,4.3369,4.2336,4.0881,3.9983,4.2125,4.3618,4.5337,4.8745,5.0252,0.0,0.0,5.6129,5.739,6.0293,0.0,0.0,0.0,0.0,0.0,0.0,0.0,0.0,0.0,0.0,0.0,0.0,0.0,0.0,0.0,0.0,0.0,0.0,0.0,0.0,0.0,0.0,0.0,0.0,0.0,8.9087,8.9065,8.8415,8.8415,8.9027,8.8721,8.8262,8.7766,8.7422,8.681,8.6008,8.6008,8.5817,8.5435,8.4632,8.3792,8.2913,8.2111,8.127,8.0582,8.1117,8.0964,8.0506,0.0,0.0,0.0,0.0,0.0,0.0,0.0,0.0,0.0,0.0,0.0,0.0,0.0,0.0,0.0,0.0,0.0,0.0,4.0176,4.0463,4.1418,4.3138,4.4819,4.7035,4.9862,5.4065,5.7592,6.0361,6.1171,5.9845,5.6387,5.2234,4.9052,4.6679,4.3652,4.2297,4.2259,4.1724,4.1342,4.1036,4.0234,3.9546,0.0,0.0,0.0,0.0,0.0,0.0,0.0,0.0,4.0194,4.1667,4.1933,4.2776,4.3405,4.2298,4.1303,4.0654,4.0997,4.2508,4.4819,4.8264,0.0,0.0,5.7695,5.995,6.2051,6.5146,0.0,0.0,0.0,0.0,0.0,0.0,0.0,0.0,0.0,0.0,0.0,0.0,0.0,0.0,0.0,0.0,0.0,0.0,0.0,0.0,0.0,0.0,0.0,0.0,0.0,8.8052,8.7689,8.7422,8.7269,8.7269,8.7269,8.7116,8.681,8.6543,8.6084,8.5511,8.5511,8.5358,8.5053,8.4212,8.3219,8.2149,8.1614,8.1041,8.0582,8.1156,8.1003,8.0506,0.0,0.0,0.0,0.0,0.0,0.0,0.0,0.0,0.0,0.0,0.0,0.0,0.0,0.0,0.0,0.0,0.0,0.0,4.0081,3.9395,3.9737,4.1418,4.31,4.5583,4.8945,5.3187,5.6167,5.7886,5.8634,5.727,5.3913,5.137,4.931,4.7579,4.5142,4.4017,4.3902,4.2221,4.1036,4.0234,3.9355,3.9011,3.8897,0.0,0.0,0.0,0.0,0.0,0.0,0.0,3.9047,3.9431,4.1972,4.2795,4.2832,4.2794,4.3367,4.3825,4.2985,4.3405,4.4857,0.0,0.0,0.0,6.1402,6.2968,6.4153,6.8394,0.0,0.0,0.0,0.0,0.0,0.0,0.0,0.0,0.0,0.0,0.0,0.0,0.0,0.0,0.0,0.0,0.0,0.0,0.0,0.0,0.0,0.0,0.0,0.0,0.0,0.0,8.681,8.5932,8.5511,8.5511,8.5511,8.597,8.6772,8.5893,8.5511,8.5511,8.5511,8.5015,8.4212,8.3333,8.1996,8.0506,8.0506,8.0506,8.0506,8.0506,8.0506,8.0506,0.0,0.0,0.0,0.0,0.0,0.0,0.0,0.0,0.0,0.0,0.0,0.0,0.0,0.0,0.0,0.0,0.0,0.0,3.8382,3.7695,3.8247,4.0578,4.1686,4.2985,4.4628,4.822,5.2627,5.7832,5.6851,5.4955,5.212,4.9616,4.7861,4.6755,4.6058,4.4781,4.3176,4.3252,4.245,4.1113,4.0845,4.0043,3.8973,0.0,0.0,0.0,0.0,0.0,0.0,0.0,0.0,0.0,4.0596,4.2661,4.4208,4.2412,4.2908,4.3596,4.1571,4.3825,0.0,0.0,0.0,0.0,0.0,6.6407,0.0,0.0,0.0,0.0,0.0,0.0,0.0,0.0,0.0,0.0,0.0,0.0,0.0,0.0,0.0,0.0,0.0,0.0,0.0,0.0,0.0,0.0,0.0,0.0,0.0,0.0,0.0,0.0,8.5647,8.4847,8.4733,8.5266,8.5349,8.5584,8.5893,8.5626,8.5471,8.5391,8.478,8.4358,8.4012,8.2565,8.1423,8.0506,8.0506,8.0506,8.0506,8.0506,8.0506,8.0506,0.0,0.0,0.0,0.0,0.0,0.0,0.0,0.0,0.0,0.0,3.882,3.8476,0.0,0.0,0.0,0.0,0.0,0.0,0.0,3.7139,3.7636,4.0196,4.0769,4.203,4.4208,4.692,4.9778,5.2743,5.2755,5.1586,4.9428,4.9224,4.8715,4.7938,4.9037,4.8143,4.5774,4.5583,4.3978,4.1533,4.1877,4.0425,3.8094,0.0,0.0,0.0,0.0,0.0,0.0,0.0,0.0,0.0,3.9088,4.0883,4.2641,4.1762,4.2679,4.3902,4.3405,0.0,0.0,0.0,0.0,0.0,0.0,0.0,0.0,0.0,0.0,0.0,0.0,0.0,0.0,0.0,0.0,0.0,0.0,0.0,0.0,0.0,0.0,0.0,0.0,0.0,0.0,0.0,0.0,0.0,0.0,0.0,0.0,0.0,0.0,0.0,8.4191,8.3735,8.3735,8.4191,8.4275,8.4358,8.4398,8.4822,8.4975,8.4816,8.3555,8.3018,8.2859,8.1609,8.0621,8.001,8.0316,8.0277,8.0047,8.0391,8.0506,8.0506,0.0,0.0,3.5916,3.7445,0.0,0.0,0.0,0.0,0.0,0.0,3.7597,3.7597,0.0,0.0,0.0,0.0,0.0,0.0,0.0,0.0,3.7712,4.0196,4.054,4.2374,4.608,4.7646,4.7182,4.463,4.7372,4.7867,4.6344,4.9733,5.0901,5.0326,5.278,5.2346,4.9633,4.8028,4.501,4.1342,4.2297,4.031,3.691,3.8438,0.0,0.0,0.0,0.0,0.0,0.0,0.0,0.0,3.7674,3.8362,3.9393,4.0845,4.2679,4.4704,4.6882,0.0,0.0,0.0,0.0,0.0,0.0,0.0,0.0,0.0,0.0,0.0,0.0,0.0,0.0,0.0,0.0,0.0,0.0,0.0,0.0,0.0,0.0,0.0,0.0,0.0,0.0,0.0,0.0,0.0,0.0,0.0,0.0,0.0,0.0,0.0,8.2669,8.2593,8.2593,0.0,8.271,8.271,8.2749,8.3712,8.4057,8.3745,8.206,8.1296,8.1223,8.0423,7.9664,7.9171,7.9972,7.9896,7.936,8.0124,8.043,8.0506,0.0,0.0,3.7292,3.7636,0.0,0.0,0.0,0.0,0.0,0.0,0.0,0.0,0.0,0.0,0.0,0.0,0.0,0.0,0.0,0.0,3.8285,4.0234,4.2183,4.3329,4.3596,4.3291,4.2487,4.1203,4.5094,4.6466,4.543,4.8867,5.0403,5.0336,5.1582,4.9633,4.5316,4.4322,4.2183,3.9661,4.1151,4.0463,3.8514,3.8858,3.7827,0.0,0.0,0.0,0.0,0.0,0.0,0.0,3.7483,3.8782,3.9966,3.9623,4.2603,4.5812,4.5048,4.8984,0.0,0.0,0.0,0.0,0.0,0.0,0.0,0.0,0.0,0.0,0.0,0.0,0.0,0.0,0.0,0.0,0.0,0.0,0.0,0.0,0.0,0.0,0.0,0.0,0.0,0.0,0.0,0.0,0.0,0.0,0.0,8.3031,8.1957,8.1811,8.2707,8.1977,8.1977,0.0,8.279,8.2868,8.2868,8.298,8.2634,8.1863,8.1393,8.0824,8.0262,7.9426,7.9051,7.8979,7.9247,7.9286,7.9171,7.9474,7.9971,8.0391,0.0,0.0,0.0,0.0,0.0,0.0,0.0,0.0,0.0,0.0,0.0,0.0,0.0,0.0,0.0,0.0,0.0,0.0,0.0,0.0,3.8247,4.0769,4.2526,4.3252,4.2794,4.1953,4.0654,3.8937,4.2047,4.3857,4.4592,4.8052,5.0083,5.0932,5.0971,4.8831,4.5125,4.3902,4.1915,3.9814,4.1877,4.096,3.8438,3.8858,3.7712,3.584,3.5458,0.0,0.0,0.0,0.0,0.0,0.0,0.0,3.7674,3.9623,4.18,4.4131,4.6882,0.0,0.0,6.2433,0.0,0.0,0.0,0.0,0.0,0.0,0.0,0.0,0.0,0.0,0.0,0.0,0.0,0.0,0.0,0.0,0.0,0.0,0.0,0.0,0.0,0.0,0.0,0.0,0.0,0.0,0.0,8.1755,8.1609,8.1322,8.0482,8.0296,8.088,8.0421,8.0611,8.1489,8.1568,8.134,8.0956,8.1299,8.0763,7.9461,7.9372,7.9107,7.8732,7.8276,7.7941,7.768,7.8178,7.818,7.7951,7.8407,7.8903,7.9245,0.0,0.0,0.0,0.0,0.0,0.0,0.0,0.0,0.0,0.0,0.0,0.0,0.0,0.0,0.0,0.0,0.0,0.0,0.0,0.0,0.0,4.1151,4.2259,4.2717,4.2565,4.1571,4.0024,3.7926,3.9356,4.1436,4.4195,4.748,4.993,5.1582,5.0703,4.8716,4.5965,4.4131,4.1915,3.9852,4.203,4.0731,3.7597,3.8438,3.7215,3.4923,3.4235,3.4999,3.6281,3.6281,0.0,0.0,0.0,0.0,3.5305,3.9775,4.0922,4.2183,4.8716,0.0,5.7963,6.5879,7.0162,0.0,0.0,0.0,0.0,0.0,0.0,0.0,0.0,0.0,0.0,0.0,0.0,0.0,0.0,0.0,0.0,0.0,0.0,0.0,0.0,0.0,0.0,0.0,0.0,0.0,8.0731,8.0656,8.032,7.9571,7.8929,7.8631,7.8712,7.8712,7.9093,7.9816,7.9816,7.9279,7.84,7.9203,7.8783,7.7483,7.7438,7.7396,7.7396,7.7244,7.6793,7.6306,7.703,7.6997,7.6617,7.7341,7.7758,7.7984,0.0,0.0,0.0,0.0,0.0,0.0,0.0,0.0,0.0,0.0,3.6451,3.6451,0.0,3.6451,3.6451,3.6337,3.6337,3.6107,3.5572,0.0,0.0,4.0425,4.1953,4.245,4.1686,4.0082,3.9071,3.8747,3.8994,4.1131,4.5099,4.7815,4.9977,5.1582,5.0703,4.8067,4.4208,4.18,3.9355,3.7101,3.8132,3.7789,3.6757,3.7559,3.6337,3.4159,3.4044,3.4601,3.537,3.5365,3.6323,0.0,0.0,0.0,0.0,3.8687,4.0807,4.2985,0.0,0.0,6.0074,0.0,6.9284,7.1269,0.0,0.0,0.0,0.0,0.0,0.0,0.0,0.0,0.0,0.0,0.0,0.0,0.0,0.0,0.0,0.0,0.0,0.0,0.0,0.0,0.0,0.0,0.0,0.0,7.8988,7.8912,7.8576,7.7865,7.7713,7.7796,7.7951,7.7951,7.8027,7.8292,7.8179,7.7608,7.6731,7.6806,7.7027,7.7438,7.7396,7.7396,7.7358,7.66,7.6221,7.6149,7.6463,7.6503,7.6465,7.6728,7.7335,7.7908,0.0,0.0,0.0,0.0,0.0,0.0,0.0,0.0,0.0,0.0,0.0,3.6986,3.6566,3.691,3.7177,3.7177,3.6298,3.584,3.5916,3.7406,3.8667,3.9546,4.0272,4.0501,4.0119,3.8878,3.8211,3.8211,3.7735,4.0406,4.5944,4.7128,4.9075,5.1505,4.9213,4.6615,4.3825,4.0845,3.84,3.6604,3.7903,3.8209,3.7827,3.7219,3.6608,3.5806,0.0,0.0,0.0,0.0,0.0,3.7833,3.8803,0.0,0.0,0.0,3.9433,4.1532,4.8861,5.5262,6.0991,0.0,6.8717,7.0625,7.1662,0.0,0.0,0.0,0.0,0.0,0.0,0.0,0.0,0.0,0.0,0.0,0.0,0.0,0.0,0.0,0.0,0.0,0.0,0.0,0.0,0.0,0.0,7.9519,7.8647,7.8609,7.8045,7.6878,7.684,7.6882,7.6999,7.7037,7.7265,7.7837,7.7684,7.7187,7.6349,7.623,7.6111,7.5994,7.5994,7.5994,7.5956,7.5577,7.516,7.4743,7.5358,7.5361,7.5094,7.5663,7.6229,7.6532,0.0,0.0,0.0,0.0,0.0,0.0,0.0,0.0,0.0,0.0,0.0,3.6528,3.5916,0.0,0.0,0.0,3.5496,3.5267,3.6107,3.6719,3.7445,3.8323,3.8362,3.8362,3.8362,3.7695,3.7351,3.7406,3.7336,4.0577,4.6822,4.7442,4.9563,5.2704,4.9519,4.692,4.4743,4.1151,3.882,3.7504,3.8344,3.8802,3.8935,3.8269,0.0,3.8251,3.528,0.0,0.0,0.0,0.0,0.0,0.0,0.0,0.0,0.0,0.0,0.0,0.0,0.0,5.87,6.365,6.6815,6.8989,0.0,0.0,0.0,0.0,0.0,0.0,0.0,0.0,0.0,0.0,0.0,0.0,0.0,0.0,0.0,0.0,0.0,0.0,0.0,0.0,0.0,0.0,0.0,7.8874,7.8002,7.7965,7.7362,7.6002,7.5966,7.6006,7.6046,7.6084,7.6427,7.7074,7.669,7.6232,7.5662,7.5314,7.4819,7.4288,7.4743,7.4895,7.4895,7.4895,7.4516,7.3985,7.4523,7.4524,7.4295,7.4824,7.5201,7.5501,0.0,0.0,0.0,0.0,0.0,0.0,0.0,0.0,0.0,0.0,0.0,3.4159,3.412,3.4159,3.3853,3.3035,3.3624,3.4426,3.5229,3.5305,3.5725,3.6604,3.6642,0.0,3.6642,3.6479,3.6441,3.6566,3.8746,4.2493,4.7686,5.0038,5.297,5.6137,5.362,5.0665,4.7341,4.3138,0.0,0.0,0.0,0.0,3.924,0.0,0.0,0.0,0.0,0.0,0.0,0.0,0.0,0.0,0.0,0.0,0.0,0.0,0.0,0.0,0.0,4.8181,0.0,5.8711,6.2407,0.0,0.0,0.0,0.0,0.0,0.0,0.0,0.0,0.0,0.0,0.0,0.0,0.0,0.0,0.0,0.0,0.0,0.0,0.0,0.0,0.0,0.0,0.0,0.0,7.7169,7.6297,7.6221,7.5842,7.5008,7.5053,7.5055,7.5055,7.5209,7.5285,7.5323,7.441,7.3953,7.3915,7.2963,7.2545,7.262,7.4212,7.4895,7.4895,7.4895,7.4857,7.4743,7.422,7.4448,7.5057,7.4476,7.4775,7.5501,0.0,0.0,0.0,0.0,0.0,0.0,0.0,0.0,0.0,0.0,0.0,0.0,0.0,3.4312,3.4082,3.4312,3.412,3.3891,3.3624,3.3624,3.3968,3.4846,3.4885,3.5136,3.5637,3.5602,3.5851,3.6365,3.7224,4.0494,4.6062,4.8009,5.071,5.391,5.198,5.0197,4.8258,4.2354,0.0,0.0,0.0,0.0,0.0,0.0,0.0,0.0,0.0,0.0,0.0,0.0,0.0,0.0,0.0,0.0,0.0,0.0,0.0,0.0,0.0,0.0,0.0,5.4895,5.9223,6.2833,0.0,0.0,0.0,0.0,0.0,0.0,0.0,0.0,0.0,0.0,0.0,0.0,0.0,0.0,0.0,0.0,0.0,0.0,0.0,0.0,0.0,0.0,0.0,0.0,7.6145,7.6107,7.5728,7.4932,7.4935,7.4935,7.4935,7.4975,7.4749,7.418,7.3837,7.338,7.2888,7.2546,7.2393,7.2431,7.3037,7.3303,7.3303,7.3303,7.3303,7.3342,7.3726,7.4067,7.4409,7.4857,7.5233,7.5501,0.0,0.0,0.0,0.0,0.0,0.0,0.0,0.0,0.0,0.0,0.0,0.0,0.0,0.0,3.3891,3.4732,3.4044,3.3433,3.3165,3.2844,3.3058,3.3914,3.3936,3.4339,3.5145,3.5127,3.5377,3.5892,3.6692,3.9561,4.4281,4.6453,4.9138,5.2041,4.9556,4.8982,0.0,0.0,0.0,4.0654,0.0,0.0,4.3326,0.0,0.0,0.0,0.0,0.0,0.0,0.0,0.0,0.0,0.0,0.0,0.0,0.0,0.0,0.0,3.9861,0.0,0.0,0.0,5.5893,5.9345,6.2971,0.0,0.0,0.0,0.0,0.0,0.0,0.0,0.0,0.0,0.0,0.0,0.0,0.0,0.0,0.0,0.0,0.0,0.0,0.0,0.0,0.0,0.0,0.0,7.5728,7.569,7.5463,7.4932,7.4895,7.4895,7.4895,7.4895,7.4478,7.3606,7.3341,7.2772,7.1938,7.1673,7.1559,7.1559,7.1559,7.1862,7.2393,7.2393,7.2545,7.2849,7.327,7.3763,7.4258,7.4481,7.4934,7.5356,0.0,0.0,0.0,0.0,0.0,0.0,0.0,0.0,0.0,3.1446,0.0,0.0,0.0,0.0,0.0,3.3968,3.3242,3.3073,3.3891,3.308,3.2934,3.3827,3.3815,3.4217,3.5092,3.5039,3.5039,3.5131,3.747,3.9895,4.2405,4.5697,4.8567,5.0848,4.6833,4.7314,5.0888,0.0,4.5284,4.395,0.0,4.3869,4.4636,0.0,0.0,0.0,5.01,4.9022,0.0,0.0,0.0,0.0,0.0,0.0,0.0,0.0,0.0,0.0,0.0,0.0,0.0,0.0,0.0,0.0,6.3736,0.0,0.0,0.0,0.0,0.0,0.0,0.0,0.0,0.0,0.0,0.0,0.0,0.0,0.0,0.0,0.0,0.0,0.0,0.0,0.0,0.0,0.0,7.4857,7.4895,7.4895,7.4895,7.4857,7.4895,7.4895,7.4819,7.4857,7.4402,7.353,7.2734,7.19,7.1029,7.027,6.9891,6.9891,6.9891,7.0801,7.2317,7.2355,7.2848,7.3492,7.2775,7.3497,7.4751,7.3269,7.3725,7.5019,0.0,0.0,0.0,0.0,0.0,0.0,3.1202,0.0,3.2325,0.0,0.0,0.0,3.3624,3.411,3.4514,3.478,3.3985,3.3337,3.2988,3.2156,3.2064,3.2901,3.3511,3.42,3.5001,3.502,3.5268,3.5894,3.6557,3.7543,3.8871,4.1616,4.3587,4.4862,4.5583,4.5494,4.4645,4.0739,0.0,0.0,4.2965,4.4585,0.0,0.0,0.0,0.0,0.0,5.2371,0.0,0.0,4.9273,4.5483,0.0,0.0,0.0,0.0,0.0,0.0,3.6272,0.0,0.0,0.0,0.0,0.0,5.3462,5.5291,0.0,0.0,0.0,0.0,0.0,0.0,0.0,0.0,0.0,0.0,0.0,0.0,0.0,0.0,0.0,0.0,0.0,0.0,0.0,0.0,7.3833,7.425,7.4857,7.4895,7.4629,7.3985,7.4591,7.4326,7.3075,7.3682,7.3227,7.1787,7.1559,7.1029,7.0195,7.0005,6.9891,6.9891,6.9891,7.0157,7.0649,7.1218,7.1938,7.2696,7.2548,7.2776,7.3117,7.2812,7.2963,7.3344,0.0,0.0,3.2333,3.1951,0.0,3.3073,3.2562,3.2615,3.3012,0.0,0.0,0.0,3.4339,3.6385,3.7128,3.5719,3.5131,3.4217,3.2689,3.2107,3.2015,3.2564,3.3329,3.4299,3.5477,3.5135,3.5363,3.6196,3.5817,3.6083,3.6955,3.9115,4.0404,4.0934,4.2412,4.264,4.1654,0.0,0.0,0.0,4.4729,0.0,0.0,5.2313,5.3803,0.0,0.0,0.0,5.5223,5.5223,5.2002,0.0,0.0,0.0,0.0,0.0,0.0,0.0,0.0,0.0,0.0,0.0,0.0,0.0,5.1395,5.2836,5.492,0.0,0.0,0.0,0.0,0.0,0.0,0.0,0.0,0.0,0.0,0.0,0.0,0.0,0.0,0.0,0.0,0.0,0.0,7.3037,7.3416,7.3833,7.4326,7.4364,7.3985,7.3113,7.3606,7.3378,7.2393,7.2886,7.2431,7.1104,7.1104,7.0687,6.9891,6.9891,6.9891,6.9891,6.9891,7.0081,7.0422,7.0915,7.1408,7.1862,7.1902,7.213,7.2434,7.213,7.2244,7.251,0.0,0.0,3.356,3.2988,3.3684,3.4296,3.4301,3.3783,3.3684,0.0,3.3424,3.3451,3.593,3.9315,4.0228,3.7243,3.6616,3.5437,3.3151,3.2683,3.2552,3.2627,3.341,3.4567,3.6159,3.5514,3.5552,3.631,3.5476,3.5438,3.6234,3.7637,0.0,3.8281,3.8281,3.9115,4.0328,0.0,0.0,4.2161,4.7454,5.0035,0.0,0.0,5.7118,0.0,5.9241,5.9127,5.7914,5.7535,5.3821,0.0,0.0,0.0,0.0,0.0,3.9191,0.0,0.0,0.0,0.0,0.0,0.0,0.0,5.3139,5.329,5.3631,0.0,0.0,0.0,0.0,0.0,0.0,0.0,0.0,0.0,0.0,0.0,0.0,0.0,0.0,0.0,0.0,7.1029,7.1332,7.2166,7.2999,7.3492,7.3492,7.3492,7.3075,7.2279,7.2355,7.2317,7.209,7.2203,7.1824,7.0953,7.0953,7.0574,6.9891,6.9891,6.9891,6.9891,6.9891,7.0308,7.0953,7.0953,7.1029,7.1104,7.1104,7.1521,7.2014,7.1256,7.1445,7.2014,3.3075,3.307,3.3239,3.4475,3.5425,3.6222,3.6854,3.7445,3.8076,3.8861,3.9223,4.0304,4.2807,4.2579,4.2009,4.1364,3.8778,3.6729,3.5647,3.358,3.2727,3.3448,3.4226,3.5135,3.6159,3.6651,3.6992,3.7182,3.6348,3.6007,0.0,3.5817,0.0,3.5628,3.5628,3.5817,3.631,0.0,0.0,4.4369,4.619,0.0,5.5177,5.6777,5.8521,6.0189,6.0681,6.1098,6.1022,0.0,5.5754,5.2873,0.0,0.0,0.0,0.0,0.0,0.0,0.0,0.0,0.0,0.0,0.0,0.0,4.5899,4.7302,4.95,0.0,0.0,0.0,0.0,0.0,0.0,0.0,0.0,0.0,0.0,0.0,0.0,0.0,0.0,0.0,0.0,7.0498,7.046,7.1294,7.2128,7.262,7.262,7.262,7.2241,7.137,7.2014,7.1749,7.0384,7.1029,7.0915,7.0119,7.0119,7.0043,6.9891,6.9891,6.9891,6.9891,6.9891,6.9967,7.0119,7.0119,7.0498,7.1104,7.1104,7.0801,7.0346,7.0195,7.0233,7.0346,3.245,3.3227,3.4217,3.5564,3.684,3.8194,3.9871,4.0138,4.0728,4.2421,4.365,4.4402,4.4355,4.4355,4.3497,4.1374,3.9288,3.7354,3.5704,3.4017,3.324,3.3695,3.4453,3.5704,3.7409,3.7389,3.7578,3.8054,3.6742,3.591,0.0,3.5533,0.0,0.0,3.5742,3.6234,3.7485,0.0,4.1465,4.5217,4.9007,0.0,5.7649,5.9696,6.125,6.2463,6.3227,6.3797,6.3535,5.9753,5.7937,0.0,0.0,5.0043,4.9741,0.0,4.6301,4.6906,0.0,0.0,0.0,4.4789,0.0,0.0,0.0,4.6403,4.7878,5.2038,0.0,0.0,0.0,0.0,0.0,0.0,0.0,0.0,0.0,0.0,0.0,0.0,0.0,0.0,0.0,6.8981,6.9058,7.0228,7.1098,7.1401,7.0985,7.1064,7.0458,6.9209,7.0421,7.0536,6.9247,7.0081,7.0308,6.9891,6.9891,6.9891,6.9891,6.9891,6.9891,6.9891,6.9891,6.9891,6.9891,6.9891,6.9891,6.9891,7.0308,7.027,6.9891,6.9891,6.9929,6.9929,3.1787,3.3405,3.5115,3.6194,3.7738,3.9546,4.1791,4.1656,4.2189,4.4547,4.6529,4.6935,4.4876,0.0,0.0,0.0,4.0252,3.8471,0.0,0.0,0.0,3.4415,3.487,3.6272,3.8622,3.7953,3.7764,3.8184,3.6738,3.5718,3.5116,3.5627,0.0,0.0,0.0,0.0,0.0,0.0,0.0,4.7023,0.0,5.6027,5.8142,6.1743,6.3145,6.3338,6.5311,6.6031,6.5464,6.1615,0.0,5.9241,5.4565,5.4,0.0,0.0,0.0,0.0,0.0,0.0,0.0,0.0,0.0,4.641,0.0,0.0,0.0,5.1231,0.0,0.0,0.0,0.0,0.0,0.0,0.0,0.0,0.0,0.0,0.0,0.0,0.0,0.0,0.0,6.6825,6.7089,6.9015,6.9204,6.9204,6.9204,6.9245,6.8641,6.7278,6.8679,6.9171,6.8603,6.9133,6.9588,6.9891,6.974,6.9626,6.9626,6.9626,6.955,6.9437,6.9588,6.955,6.9437,6.9588,6.9133,6.8451,6.9512,6.9778,6.9664,6.9816,6.9967,6.9966,3.2993,3.3711,3.4451,3.6027,3.77,3.9185,4.0193,4.0954,4.1998,4.3741,4.6632,4.8465,0.0,0.0,0.0,0.0,0.0,0.0,4.0555,0.0,0.0,3.6955,3.6386,3.6859,3.8558,3.8521,3.7743,3.6302,3.6171,3.6041,3.5947,3.5343,0.0,0.0,3.6154,0.0,0.0,0.0,4.5164,0.0,5.4101,5.4534,0.0,5.9582,6.1363,6.178,6.4895,6.6409,6.6558,0.0,6.2408,6.12,0.0,5.6639,0.0,0.0,0.0,0.0,0.0,0.0,0.0,0.0,5.0409,0.0,0.0,0.0,4.7947,4.7013,0.0,0.0,0.0,0.0,0.0,0.0,0.0,0.0,0.0,0.0,0.0,0.0,0.0,0.0,0.0,0.0,6.4247,6.7391,6.4967,6.4626,6.7505,6.7656,6.7579,6.739,6.7579,6.7996,6.8603,6.7996,6.8413,6.9891,6.9133,6.8754,6.8754,6.8754,6.8375,6.7731,6.8451,6.8337,6.7731,6.8451,6.8262,6.7693,6.9285,6.9437,6.883,6.9626,6.9891,6.9929,3.1986,3.2669,3.3693,3.5894,3.7223,3.8933,4.1759,4.4986,4.715,4.7315,4.9413,0.0,0.0,0.0,0.0,0.0,0.0,0.0,0.0,0.0,0.0,0.0,0.0,0.0,0.0,3.8735,3.792,3.6772,3.6217,3.5748,3.5358,3.545,3.6432,0.0,3.8735,0.0,4.4044,0.0,0.0,0.0,0.0,0.0,0.0,6.0475,6.3689,6.4671,6.6029,6.7306,6.7864,0.0,6.3651,0.0,0.0,0.0,0.0,0.0,0.0,0.0,0.0,0.0,0.0,0.0,0.0,0.0,0.0,0.0,4.6262,0.0,0.0,0.0,0.0,0.0,0.0,0.0,0.0,0.0,0.0,0.0,0.0,0.0,0.0,0.0,0.0,0.0,0.0,0.0,0.0,6.2743,6.5615,6.6295,6.6369,6.5839,6.6823,6.7314,6.7162,6.7314,6.7731,6.8451,6.8072,6.7883,6.7883,6.7883,6.7731,6.7428,6.7769,6.7693,6.7428,6.7769,6.7428,6.6783,6.7996,6.8489,6.8716,6.9588,6.9929,6.9966,3.1004,3.1858,3.3128,3.5515,3.6538,3.8298,4.2071,4.6354,0.0,0.0,0.0,0.0,5.2655,5.1773,0.0,0.0,0.0,4.7636,0.0,0.0,4.1531,0.0,0.0,0.0,0.0,0.0,3.789,3.6917,3.6001,3.5512,3.5447,3.5781,3.7363,0.0,0.0,4.432,4.8135,0.0,0.0,5.1789,5.435,5.5706,5.6794,6.2183,6.5349,6.6927,6.7153,6.7785,6.8152,6.5523,6.4472,0.0,6.2332,0.0,0.0,0.0,0.0,0.0,5.4334,0.0,0.0,0.0,0.0,0.0,0.0,0.0,0.0,0.0,0.0,0.0,0.0,0.0,0.0,0.0,0.0,0.0,0.0,0.0,0.0,0.0,0.0,0.0,0.0,0.0,0.0,0.0,0.0,0.0,6.3462,6.4518,6.4819,6.4403,6.5914,6.6518,6.6101,6.6518,6.6935,6.739,6.7162,6.7049,6.7049,6.7049,6.6935,6.6746,6.6935,6.6935,6.6746,6.6935,6.6556,6.5874,6.6708,6.7542,6.8375,6.9209,6.9702,6.9966,3.0676,3.1694,0.0,0.0,0.0,0.0,0.0,0.0,0.0,0.0,0.0,0.0,0.0,0.0,0.0,0.0,0.0,5.3225,5.0757,0.0,4.4831,0.0,0.0,0.0,0.0,0.0,0.0,0.0,3.5136,3.5571,3.7115,3.633,3.7762,0.0,0.0,4.6769,5.0723,5.2301,5.6662,6.2444,6.098,6.2745,6.6128,0.0,6.4821,6.7002,6.7793,0.0,0.0,6.5786,6.4923,0.0,0.0,0.0,0.0,0.0,0.0,0.0,0.0,0.0,0.0,5.3256,0.0,0.0,0.0,0.0,4.8759,0.0,0.0,0.0,0.0,0.0,0.0,4.852,0.0,0.0,0.0,0.0,0.0,0.0,0.0,0.0,0.0,0.0,0.0,0.0,0.0,0.0,6.0909,6.2046,6.288,6.3638,6.4509,6.5343,6.6101,6.5381,6.5798,6.739,6.6556,6.6139,6.6139,6.6139,6.5722,6.504,6.5798,6.5722,6.504,6.5836,6.5684,6.504,6.5836,6.667,6.7542,6.8337,6.9171,6.9929,3.2467,0.0,0.0,0.0,0.0,0.0,0.0,4.3019,0.0,0.0,0.0,0.0,0.0,0.0,5.8079,0.0,0.0,5.6772,5.2672,5.0535,0.0,0.0,0.0,4.3386,0.0,0.0,0.0,0.0,0.0,0.0,3.7911,3.7633,3.9288,0.0,0.0,4.9596,0.0,0.0,0.0,0.0,0.0,6.4209,6.8227,0.0,0.0,6.7706,6.8532,6.8307,0.0,6.7889,6.6312,6.4284,6.4203,6.2555,6.0679,6.1087,6.0862,0.0,0.0,0.0,6.1531,5.622,0.0,0.0,0.0,0.0,0.0,0.0,0.0,0.0,0.0,0.0,4.8664,4.7604,4.6966,0.0,0.0,0.0,0.0,0.0,0.0,0.0,0.0,0.0,0.0,0.0,0.0,0.0,0.0,6.1629,6.2766,6.3562,6.3903,6.4471,6.5305,6.504,6.5192,6.576,6.5457,6.5305,6.5305,6.5305,6.5154,6.4926,6.5192,6.5154,6.4926,6.5192,6.5154,6.4926,6.5192,6.5798,6.6632,6.7504,6.8679,6.9929,3.3364,0.0,0.0,0.0,0.0,0.0,0.0,0.0,0.0,0.0,5.2885,0.0,5.8971,0.0,6.0116,0.0,6.1206,5.9515,5.4822,5.3996,0.0,5.1565,4.8377,0.0,0.0,0.0,0.0,0.0,0.0,3.9227,3.9989,3.9414,4.0765,4.3774,0.0,5.1373,5.6213,0.0,6.1506,0.0,0.0,6.6349,0.0,0.0,6.8264,6.8114,0.0,6.849,6.7664,6.8189,6.6683,6.4732,6.4912,6.33,6.1424,6.1827,6.1603,6.1269,6.145,6.2678,0.0,5.8793,5.7189,0.0,5.0325,0.0,0.0,0.0,0.0,0.0,0.0,0.0,0.0,4.8865,4.699,4.443,0.0,4.0228,0.0,0.0,0.0,0.0,0.0,0.0,0.0,0.0,0.0,0.0,0.0,0.0,6.1439,6.2273,6.3145,6.3751,6.4017,6.4623,6.4737,6.4434,6.4775,6.4888,6.4888,6.4888,6.4888,6.4888,6.4888,6.4737,6.4471,6.4775,6.4737,6.4471,6.4775,6.5381,6.6177,6.6746,6.7996,6.9475,0.0,0.0,0.0,0.0,3.6842,0.0,0.0,0.0,4.9927,0.0,5.4689,5.8159,6.0679,6.0905,6.1543,6.3158,6.327,0.0,5.7525,5.7225,0.0,0.0,5.1765,5.0833,5.077,0.0,0.0,0.0,0.0,0.0,4.3108,4.152,4.2081,4.452,4.7835,0.0,5.7041,6.1279,6.5486,6.9203,6.9203,6.9241,6.9235,6.9278,0.0,6.8227,6.9015,6.8264,6.6913,6.6913,6.6266,6.5282,6.4421,6.3551,6.2832,6.279,6.2827,6.3056,6.3835,6.4022,6.3462,6.0986,0.0,0.0,0.0,0.0,5.6144,0.0,0.0,0.0,0.0,0.0,0.0,5.1877,4.8166,4.4149,4.0328,0.0,0.0,0.0,0.0,0.0,0.0,0.0,0.0,0.0,0.0,0.0,0.0,0.0,5.8938,5.9847,6.2235,6.3145,6.2425,6.4017,6.4434,6.3638,6.4471,6.4888,6.4888,6.4888,6.4888,6.4888,6.4888,6.4434,6.3751,6.4547,6.4434,6.3751,6.4585,6.5381,6.6101,6.6177,6.72,6.8679,3.442,3.5739,3.7122,0.0,3.7009,3.7769,0.0,0.0,0.0,0.0,5.774,6.162,6.414,6.489,6.5373,6.5786,6.5824,0.0,0.0,0.0,0.0,5.9397,5.7117,5.5921,5.5884,5.1665,0.0,4.8795,0.0,0.0,4.4886,4.3212,4.3436,4.5365,0.0,0.0,5.7903,6.1542,6.5486,6.9203,6.9203,6.9528,0.0,0.0,6.9896,6.9611,6.9889,6.9327,6.8376,6.8376,6.7404,6.5976,6.5067,6.4657,6.4507,6.4331,6.4741,6.5456,6.6221,6.5998,6.5403,6.4725,6.2569,5.9966,0.0,0.0,0.0,0.0,0.0,0.0,0.0,0.0,0.0,0.0,4.6165,0.0,0.0,0.0,0.0,0.0,0.0,0.0,0.0,0.0,0.0,0.0,0.0,0.0,0.0,0.0,0.0,5.9809,6.1098,6.1932,6.2425,6.341,6.3827,6.3638,6.4471,6.4888,6.4888,6.4888,6.4888,6.4888,6.4888,6.4775,6.4585,6.4813,6.4775,6.4585,6.4813,6.5381,6.6253,6.7504,6.7845,6.7921,3.5749,0.0,0.0,3.9902,0.0,0.0,4.4519,0.0,0.0,5.4995,5.925,0.0,6.3759,6.5298,6.6345,6.6598,6.6341,0.0,0.0,0.0,0.0,6.1479,6.077,6.0058,5.9309,5.5844,0.0,5.186,0.0,0.0,4.6483,4.4468,4.4207,4.5581,0.0,5.1809,5.6631,6.2173,6.6069,6.854,6.8922,0.0,0.0,7.0234,7.0255,7.0022,7.0116,6.9332,6.8398,6.8772,6.7494,6.5695,6.5158,6.4748,6.4525,6.4762,6.5171,6.5923,6.7428,6.7243,6.6722,6.7057,6.5496,6.3342,6.1298,6.0927,6.063,0.0,0.0,0.0,0.0,0.0,0.0,0.0,0.0,0.0,0.0,0.0,0.0,0.0,0.0,0.0,0.0,0.0,0.0,0.0,0.0,0.0,0.0,0.0,0.0,5.8218,6.0113,6.1174,6.1326,6.2842,6.3448,6.3107,6.432,6.4888,6.4888,6.4888,6.4888,6.4888,6.4888,6.4471,6.3865,6.4623,6.4471,6.3903,6.4623,6.5192,6.5798,6.7466,6.7807,6.7655,0.0,0.0,0.0,0.0,0.0,0.0,0.0,5.0842,0.0,5.7152,0.0,6.2703,6.2545,6.4574,6.6149,6.668,0.0,6.5085,6.3462,6.544,6.5247,6.206,6.3401,6.3431,6.1707,5.9812,0.0,0.0,0.0,0.0,4.7512,4.5345,4.4712,4.543,0.0,0.0,0.0,6.2977,6.6904,6.8032,6.8721,6.9087,6.9295,7.0031,7.0116,6.9927,7.0038,6.9192,6.8128,6.8688,6.7328,6.5411,6.5188,6.4659,6.4196,6.4828,6.5125,6.5794,6.806,6.8097,6.7651,6.8468,6.806,6.6871,6.4605,6.3453,6.2859,6.2747,6.0741,5.9589,0.0,0.0,0.0,0.0,0.0,0.0,0.0,0.0,0.0,0.0,0.0,0.0,0.0,0.0,0.0,0.0,0.0,0.0,0.0,0.0,0.0,5.6171,5.9165,0.0,5.9885,0.0,6.3107,6.2425,6.4092,6.4888,6.4888,6.4888,6.4888,6.4888,6.4888,6.4017,6.269,6.4244,6.4055,6.288,6.432,6.4964,6.5229,6.6708,6.7238,6.7504,0.0,0.0,0.0,0.0,0.0,5.114,5.4613,5.708,5.9283,6.1416,6.5191,0.0,6.7614,6.8032,6.8369,6.8435,6.8323,0.0,0.0,0.0,0.0,6.5357,6.6212,6.5905,6.4233,6.1224,5.8438,0.0,0.0,0.0,4.6759,4.5648,4.5201,4.5456,4.7239,0.0,5.947,6.3654,0.0,6.9769,6.9252,6.976,7.0826,7.0442,7.0163,7.0001,7.0672,7.066,7.0153,6.8963,6.8294,6.7651,6.6361,6.6239,6.6574,6.6054,6.6834,6.8097,6.9211,6.8914,6.8506,6.9286,6.8877,6.8023,6.6908,6.6054,6.5274,6.4531,6.2457,6.0343,5.8661,0.0,0.0,0.0,0.0,0.0,0.0,0.0,0.0,0.0,0.0,0.0,0.0,0.0,0.0,0.0,0.0,0.0,0.0,0.0,0.0,0.0,5.8104,0.0,0.0,0.0,6.2538,6.2425,6.4092,6.4888,6.4888,6.4888,6.4888,6.4888,6.4888,6.432,6.3486,6.4471,6.4737,6.4509,6.4775,6.5305,6.595,6.6215,6.6329,6.667,0.0,0.0,0.0,0.0,0.0,0.0,0.0,6.2395,0.0,6.3425,6.5073,6.6262,6.6217,6.7419,6.8352,6.866,6.8334,6.8111,6.8007,6.8379,6.8219,6.7391,6.7725,0.0,6.6128,6.3713,6.063,5.6915,0.0,0.0,0.0,4.5244,4.4872,4.5499,4.9257,5.4354,0.0,0.0,0.0,6.9425,6.9883,7.0507,7.1119,7.1301,7.0981,7.0499,7.0871,7.071,7.0177,6.9397,6.832,6.7205,6.6834,6.6982,6.7243,6.6834,6.7577,6.8506,6.8468,6.8171,6.7874,6.7837,6.7874,6.7688,6.6871,6.6388,6.5868,6.4976,6.3572,6.1453,5.8103,5.4204,0.0,0.0,0.0,0.0,0.0,0.0,0.0,0.0,0.0,0.0,0.0,0.0,0.0,0.0,0.0,0.0,0.0,0.0,0.0,0.0,0.0,0.0,0.0,0.0,0.0,6.1743,6.3413,6.4209,6.4244,6.4626,6.4817,6.4817,6.4817,6.4289,6.3497,6.3949,6.4474,6.4888,6.4888,6.5154,6.5571,6.6442,6.6215,6.5798,0.0,4.7705,0.0,0.0,5.6246,0.0,0.0,6.5868,6.7625,6.5203,6.4874,6.483,6.4741,6.6582,6.7952,6.8468,6.8156,6.8081,6.8468,6.884,6.8951,6.8766,6.8951,6.8654,6.7837,6.6202,6.2933,0.0,0.0,0.0,0.0,0.0,0.0,0.0,0.0,0.0,0.0,0.0,6.7168,6.9186,7.0549,7.1132,7.1305,7.1889,7.1665,7.0971,7.092,7.04,6.9732,6.9732,6.832,6.6685,6.7168,6.7428,6.754,6.7354,6.7874,6.8357,6.7725,6.7428,6.7168,6.6537,6.6722,6.6871,6.6239,6.5979,6.5645,6.4939,6.4048,6.2153,5.8215,5.5317,0.0,0.0,0.0,0.0,0.0,0.0,0.0,0.0,0.0,0.0,0.0,0.0,0.0,0.0,0.0,0.0,0.0,0.0,0.0,0.0,0.0,5.7839,5.9355,0.0,6.1288,0.0,6.2889,6.3684,6.3603,6.4365,6.4593,6.4406,6.4442,6.4028,6.335,6.3497,6.406,6.4888,6.4888,6.4888,6.5078,6.6367,6.6025,6.5078,0.0,0.0,0.0,0.0,0.0,0.0,0.0,6.5868,6.8394,6.8097,6.806,6.806,6.806,6.8246,6.8431,6.8506,6.91,6.9211,6.8543,6.988,7.0363,6.962,7.0326,7.0326,6.9509,6.7911,6.4642,0.0,0.0,0.0,0.0,0.0,0.0,0.0,0.0,0.0,0.0,6.4679,6.7922,7.0895,7.1044,7.1566,7.2199,7.1491,7.1193,7.107,7.0971,7.045,6.9878,6.9732,6.91,6.8171,6.7503,6.78,6.8246,6.7503,6.7874,6.8506,6.8431,6.7874,6.728,6.7205,6.6722,6.6202,6.6128,6.5496,6.4902,6.4828,6.3602,6.1484,5.8141,5.9032,5.8809,0.0,0.0,0.0,0.0,0.0,0.0,0.0,0.0,0.0,0.0,0.0,0.0,0.0,0.0,0.0,0.0,0.0,0.0,5.2494,0.0,5.6739,5.7611,6.0719,6.1894,6.1136,6.3457,6.4215,6.3535,6.4329,6.4292,6.3502,6.3574,6.3572,6.3497,6.353,6.413,6.4888,6.4888,6.4888,6.4926,6.5078,6.504,6.4926,0.0,0.0,0.0,0.0,0.0,0.0,0.0,6.8171,6.9348,6.978,6.9051,6.8691,6.9174,6.9249,6.9434,6.9917,7.0252,7.0289,6.9992,7.0549,7.0772,7.0437,7.0735,7.0995,7.118,6.9583,6.6797,0.0,0.0,0.0,0.0,0.0,0.0,0.0,0.0,6.1076,6.4308,6.7094,6.9632,7.1802,7.2285,7.2694,7.2955,7.262,7.2211,7.1764,7.1714,7.1194,7.0413,6.988,6.9174,6.8468,6.8134,6.858,6.9063,6.8283,6.8617,6.9026,6.806,6.754,6.7205,6.6722,6.6722,6.6574,6.5571,6.5459,6.5311,6.4308,6.3565,6.2562,6.0778,6.0035,5.9367,0.0,0.0,0.0,0.0,0.0,0.0,0.0,0.0,0.0,0.0,0.0,0.0,0.0,0.0,0.0,0.0,0.0,0.0,5.0751,0.0,5.6853,5.818,6.0984,6.1936,6.1069,6.304,6.3535,6.2816,6.4102,6.4518,6.4179,6.418,6.4179,6.4215,6.4251,6.4476,6.4888,6.4888,6.4888,6.4964,6.5457,6.5305,6.4964,5.8076,0.0,5.9139,0.0,6.4372,6.5578,6.9026,6.9767,7.0027,7.0258,6.9568,6.9335,6.9892,7.0016,7.0239,7.0782,7.1042,7.1028,7.0768,7.1264,7.145,7.1139,7.1464,0.0,7.2466,7.1093,6.8902,6.5905,6.222,0.0,0.0,0.0,0.0,0.0,6.1478,6.4522,6.7317,6.9769,7.1478,7.2592,7.341,7.3595,7.3372,7.3372,7.3038,7.2518,7.2518,7.1998,7.1218,7.0623,6.9732,6.884,6.858,6.8914,6.9249,6.8691,6.8914,6.91,6.7986,6.7503,6.7168,6.6611,6.6722,6.6574,6.5125,6.5274,6.5311,6.3899,6.3602,6.3379,6.2562,6.115,6.0221,6.0444,0.0,0.0,0.0,0.0,0.0,0.0,0.0,4.5776,4.4025,0.0,0.0,0.0,0.0,0.0,0.0,0.0,0.0,0.0,0.0,0.0,0.0,6.0955,6.1754,6.0626,6.2253,6.2782,6.2253,6.3651,6.4256,6.433,6.4293,6.4293,6.4367,6.463,6.4779,6.4853,6.4888,6.4853,6.4929,6.5533,6.5381,6.5002,6.075,6.1666,6.2793,6.6058,6.8078,6.9252,6.9289,6.999,7.0212,6.9436,6.999,7.0523,7.068,7.0717,7.0717,7.0717,7.1299,7.1357,7.0544,7.222,7.2738,0.0,0.0,7.332,7.3199,7.231,7.0731,6.8468,0.0,0.0,5.9812,0.0,6.0485,6.2262,6.5568,6.7988,6.9843,7.2295,7.3372,7.3447,7.4264,7.4115,7.3372,7.3372,7.3372,7.3372,7.3372,7.2852,7.2146,7.2146,7.1069,6.9583,6.8766,6.8506,6.8506,6.8506,6.8506,6.8506,6.8506,6.7911,6.7317,6.7317,6.6722,6.5905,6.5013,6.4828,6.4605,6.3788,6.3602,6.3379,6.2562,6.3044,6.2487,5.9255,0.0,0.0,0.0,0.0,0.0,0.0,4.6158,4.2875,4.2104,0.0,0.0,0.0,0.0,0.0,0.0,0.0,0.0,5.2229,5.5586,0.0,5.7332,6.0516,6.1276,5.9653,6.1242,6.1996,6.2034,6.2824,6.3314,6.3426,6.3499,6.3497,6.3572,6.4512,6.4817,6.4743,6.4853,6.4817,6.4743,6.4853,6.4926,6.4888,6.4457,6.5037,6.5801,6.7973,6.8852,6.9695,7.0766,7.1172,7.1377,7.1563,7.1967,7.2206,7.206,7.1706,7.1754,0.0,7.259,7.2573,0.0,7.3258,7.3517,7.2613,7.3498,7.3942,7.385,7.3037,7.2018,7.065,0.0,0.0,0.0,6.3501,6.499,6.7272,6.8864,7.0842,7.3075,7.3855,7.4524,7.5044,7.5304,7.5267,7.5044,7.5044,7.4673,7.419,7.419,7.367,7.2815,7.1701,7.0958,7.0289,6.8951,6.8506,6.8617,6.9174,6.8951,6.8617,6.9174,6.8729,6.8134,6.8134,6.7948,6.7391,6.6017,6.4828,6.3936,6.3676,6.4048,6.4196,6.3379,6.3899,6.3713,6.1596,6.1224,0.0,0.0,0.0,0.0,0.0,0.0,4.526,0.0,4.3595,0.0,0.0,0.0,0.0,0.0,0.0,0.0,0.0,5.6252,0.0,5.8857,6.2144,6.2937,6.1242,6.2937,6.3804,6.3878,6.4104,6.4292,6.4403,6.4439,6.4474,6.4474,6.4704,6.4743,6.4707,6.4708,6.4708,6.4707,6.4743,6.4817,6.4888,6.6113,6.6786,6.7516,6.8787,6.9593,7.0421,7.1416,7.1821,7.2024,7.2132,7.2539,7.2669,7.2281,7.2226,0.0,7.3406,7.313,7.3038,7.3221,7.3499,7.3388,7.2816,7.3407,7.3702,7.3665,0.0,0.0,7.1689,7.0212,6.8794,6.7524,6.8336,6.9605,7.1226,7.2002,7.3461,7.5328,7.5382,7.5733,7.6216,7.627,7.6084,7.5787,7.5787,7.5304,7.4598,7.4598,7.3892,7.2778,7.1738,7.0995,7.0289,6.9286,6.8766,6.8617,6.91,6.8914,6.8617,6.9137,6.8877,6.8506,6.8506,6.8506,6.8097,6.6462,6.5051,6.3973,6.3676,6.401,6.4196,6.3713,6.401,6.4048,6.3007,6.167,6.0072,5.8215,0.0,0.0,0.0,0.0,0.0,0.0,4.6532,0.0,0.0,0.0,0.0,0.0,0.0,0.0,5.317,5.7925,0.0,6.0488,6.2824,6.3313,6.1958,6.3389,6.4106,6.4143,6.4519,6.4743,6.4817,6.4817,6.4817,6.4817,6.4707,6.4633,6.4596,6.4596,6.4558,6.4596,6.4633,6.4934,6.5309,6.6152,6.7029,0.0,0.0,7.022,0.0,7.1394,7.2018,7.2239,7.1505,7.2055,7.2259,7.1655,7.2244,7.2998,7.3901,0.0,0.0,0.0,7.3198,7.2831,7.2679,7.3037,7.3093,7.2851,7.2814,7.2521,7.182,7.1894,7.2245,7.2777,7.355,7.4012,7.4122,7.4859,7.5727,7.6675,7.6847,7.6866,7.6903,7.7107,7.6679,7.5973,7.5899,7.5378,7.4673,7.4561,7.3521,7.2146,7.2035,7.0995,6.9694,6.9657,6.91,6.8506,6.858,6.8543,6.8506,6.858,6.8543,6.8506,6.8506,6.8468,6.8023,6.6537,6.5496,6.4605,6.3862,6.3639,6.3602,6.3602,6.3602,6.3565,6.3453,6.1447,5.9589,5.8586,0.0,0.0,0.0,0.0,0.0,0.0,4.939,5.0541,0.0,0.0,0.0,0.0,0.0,5.2354,5.7129,6.0338,6.2034,6.2109,6.2784,6.2782,6.1956,6.2861,6.3276,6.3352,6.4256,6.4707,6.4707,6.4707,6.4707,6.4707,6.4634,6.452,6.4405,6.4558,6.452,6.4405,6.4558,6.5125,6.5917,0.0,0.0,6.8055,6.9559,7.0146,7.0807,7.2018,7.2386,7.2422,7.2239,7.2386,7.2422,7.2296,7.2443,7.3141,7.4537,7.397,7.3603,7.367,7.472,7.5051,7.4368,7.4978,7.5073,7.4427,7.439,7.3986,7.3235,7.386,7.3876,7.3471,7.4316,7.5073,7.5816,7.6,7.6633,7.7525,7.7661,7.7718,7.7718,7.7924,7.7868,7.7645,7.7013,7.6233,7.5341,7.4115,7.3038,7.1998,7.0735,7.0029,6.962,6.8989,6.8654,6.8617,6.9249,6.8989,6.8654,6.9249,6.8989,6.8506,6.8506,6.806,6.7503,6.7094,6.5868,6.4753,6.4568,6.4048,6.3602,6.3602,6.3602,6.3193,6.1967,6.0741,5.8958,5.6283,5.4537,0.0,0.0,5.1041,5.1332,5.0613,5.169,5.2132,0.0,0.0,0.0,0.0,5.5382,5.6922,5.8725,6.1394,6.2821,6.2859,6.3608,6.3949,6.3802,6.4029,6.4181,6.4331,6.4593,6.4707,6.4707,6.4707,6.467,6.4634,6.452,6.4405,6.4405,6.4403,6.4403,6.4405,6.4444,6.4671,6.4936,6.7137,6.7887,6.8767,6.9701,7.047,7.1238,7.2116,7.2263,7.2321,7.238,7.271,7.2878,7.2532,7.3156,7.3817,7.4331,7.4022,7.397,7.4221,7.5065,7.5212,7.4404,7.5139,7.5359,7.4918,7.4918,7.4882,7.4808,7.5249,7.5432,7.5359,7.5799,7.63,7.6801,7.6801,7.7082,7.7547,7.7725,7.7842,7.79,7.8071,7.8221,7.8239,7.7793,7.6865,7.5676,7.4784,7.3484,7.1998,7.0698,7.0252,7.014,6.9323,6.9323,6.9694,7.014,6.9434,6.8617,6.9063,6.884,6.8506,6.8506,6.8123,6.7666,6.7391,6.6611,6.5868,6.5496,6.4753,6.4159,6.4159,6.3862,6.3082,6.1484,6.0184,5.8475,5.5949,5.4574,0.0,5.2531,5.3237,5.3833,5.3832,5.4688,5.4757,5.3628,0.0,0.0,5.6099,5.884,6.0417,6.0454,6.2519,6.3646,6.3646,6.4099,6.4364,6.4364,6.4481,6.4521,6.4558,6.5011,6.5011,6.4671,6.5011,6.4936,6.452,6.4403,6.4326,6.4364,6.4324,6.4324,6.4326,6.4326,6.4668,6.5161,6.7019,6.8299,6.9435,6.9581,7.0821,7.1842,7.1988,7.1988,7.2048,7.2204,7.2825,7.3104,7.2636,7.3832,7.4492,7.4052,7.4015,7.4368,7.5065,7.5212,7.4955,7.4258,7.4918,7.5285,7.5285,7.5285,7.5542,7.6093,7.624,7.657,7.7157,7.7268,7.7304,7.7304,7.7304,7.7304,7.7304,7.7524,7.7643,7.782,7.7957,7.8071,7.8183,7.7961,7.6995,7.5696,7.5325,7.3877,7.2021,7.1278,7.093,7.0708,7.0151,7.0374,7.0819,7.0819,6.9855,6.8791,6.8729,6.8568,6.8457,6.8506,6.8408,6.8124,6.7603,6.7391,6.7131,6.6425,6.5608,6.4976,6.4828,6.4113,6.3,6.1298,5.9627,5.7877,5.6172,0.0,5.4203,5.476,5.5358,5.5992,5.6701,5.7565,5.7604,5.6518,5.8878,5.9966,0.0,6.1543,6.282,6.2181,6.3533,6.4359,6.4472,6.4665,6.4665,6.4512,6.467,6.4708,6.4631,6.5463,6.5463,6.4973,6.5461,6.5271,6.4554,6.4362,6.4284,6.4284,6.4284,6.4284,6.4284,6.4284,6.4815,6.561,6.6961,6.7746,6.8641,6.9471,7.0383,7.1222,7.1878,7.1988,7.1988,7.2048,7.2157,7.2449,7.3033,7.3289,7.4007,7.5409,7.558,7.5617,7.5909,7.657,7.69,7.6754,7.6864,7.6937,7.6937,7.6937,7.668,7.6093,7.679,7.6827,7.6313,7.7011,7.7304,7.7304,7.7304,7.7304,7.7304,7.7524,7.762,7.7643,7.79,7.7957,7.7731,7.6495,7.5773,7.518,7.3074,7.2076,7.1743,7.1632,7.1115,7.0671,7.1226,7.1004,7.056,7.056,7.0375,7.0095,6.9632,6.8927,6.8358,6.8457,6.8408,6.8272,6.8308,6.78,6.728,6.7168,6.6462,6.5682,6.4939,6.403,6.2687,6.0438,5.8651,5.6718,5.45,0.0,5.4611,5.4054,5.6432,5.8219,5.849,5.8681,5.9323,6.0561,5.9928,6.0342,6.2219,6.282,6.3345,6.3871,6.4134,6.4622,6.5298,6.6053,6.6131,6.5497,6.5497,6.5575,6.5576,6.5727,6.6065,6.6513,6.5948,6.557,6.5261,6.4585,6.4284,6.4284,6.4284,6.4284,6.4284,6.4284,6.4359,6.455,6.7484,6.8209,6.9007,6.989,7.069,7.1308,7.1671,7.1744,7.1744,7.1903,7.2267,7.2729,7.3155,7.3592,7.4201,7.503,7.5505,7.5724,7.5848,7.6741,7.7059,7.6594,7.6961,7.7217,7.7217,7.7243,7.7121,7.6754,7.7121,7.7121,7.6754,7.7157,7.7561,7.8002,7.7524,7.7561,7.7965,7.7586,7.7463,7.762,7.7762,7.782,7.7673,7.6548,7.5846,7.5198,7.361,7.276,7.2391,7.2391,7.2428,7.2502,7.2391,7.2428,7.2428,7.1985,7.0914,6.9769,6.9554,6.8837,6.8107,6.8259,6.8208,6.8107,6.8259,6.8012,6.7753,6.7753,6.7172,6.6357,6.5456,6.4271,6.2752,6.0707,5.8677,0.0,0.0,5.5977,5.6277,5.6351,5.8466,5.9993,6.0115,6.0203,6.0625,6.1453,6.09,6.1278,6.3008,6.312,6.3458,6.4247,6.4697,6.4923,6.4847,6.5755,6.5755,6.4966,6.4968,6.5007,6.5007,6.5419,6.5607,6.5492,6.5567,6.5301,6.481,6.4434,6.4284,6.4284,6.4284,6.4284,6.4284,6.4284,6.4284,6.4359,6.7836,6.8633,6.943,7.0227,7.1024,7.1494,7.1494,7.1494,7.1593,7.1718,7.2408,7.3052,7.3323,7.3905,7.4405,7.4624,7.5207,7.5534,7.5598,7.6617,7.6862,7.6152,7.67,7.7029,7.7029,7.7118,7.7181,7.7181,7.7243,7.7243,7.7243,7.7279,7.7671,7.8259,7.7598,7.7671,7.8259,7.7598,7.7402,7.7524,7.7584,7.7533,7.7334,7.6765,7.6027,7.5195,7.4568,7.3941,7.3462,7.3609,7.3978,7.4273,7.3609,7.372,7.3941,7.3093,7.1397,6.9737,6.9569,6.8889,6.8283,6.8587,6.8409,6.821,6.8365,6.8365,6.8328,6.8144,6.7691,6.7062,6.6162,6.4683,6.2993,6.1126,0.0,0.0,0.0,5.7371,5.7857,5.8671,6.027,6.1315,6.144,6.172,6.1922,6.2048,6.213,6.2626,6.3608,6.3496,6.3646,6.4284,6.5073,6.5373,6.5148,6.568,6.5567,6.4885,6.4928,6.4928,6.4885,6.5523,6.5561,6.5148,6.5411,6.5261,6.4847,6.4434,6.4397,6.4547,6.4359,6.4284,6.4284,6.4284,6.4284,6.4397,6.7836,6.8633,6.943,7.0227,7.1024,7.1494,7.1494,7.1494,7.1494,7.1494,7.2219,7.2979,7.374,7.3885,7.4276,7.5233,7.5378,7.5443,7.5598,7.6364,7.6801,7.6728,7.6765,7.6801,7.6801,7.6801,7.6801,7.6801,7.7029,7.7092,7.7092,7.7279,7.7341,7.7414,7.7341,7.7378,7.7414,7.7341,7.7341,7.7341,7.7524,7.7082,7.6263,7.6405,7.5794,7.4918,7.4845,7.4771,7.4845,7.5579,7.5395,7.4808,7.4735,7.4258,7.3582,7.281,7.1872,7.101,7.0511,6.9737,6.9188,7.0085,6.9663,6.9057,6.9163,6.9215,6.8993,6.8254,6.8033,6.7737,6.6962,6.5385,6.3505,6.1154,0.0,0.0,5.7168,5.7765,5.8541,5.9427,6.1032,6.2122,6.2122,6.3015,6.3637,6.3686,6.3813,6.4312,6.5298,6.4622,6.4247,6.4284,6.5073,6.6237,6.7701,6.7025,6.6691,6.6612,6.6654,6.6654,6.6612,6.665,6.7063,6.7626,6.6162,6.5899,6.65,6.4923,6.4735,6.5336,6.4585,6.4284,6.4284,6.4284,6.4284,6.4397,6.8331,6.9296,7.0154,7.0951,7.125,7.1404,7.1494,7.1467,7.1404,7.1494,7.2219,7.2834,7.3124,7.316,7.3486,7.4385,7.3986,7.3978,7.4514,7.5313,7.6032,7.6643,7.6643,7.6643,7.6643,7.6773,7.6801,7.6801,7.6866,7.6966,7.7092,7.7155,7.773,7.8809,7.7781,7.7892,7.8772,7.7745,7.7304,7.7341,7.7402,7.7218,7.679,7.6374,7.5969,7.5579,7.5102,7.4588,7.4368,7.5652,7.5579,7.4992,7.5506,7.5102,7.4184,7.2899,7.1945,7.1248,7.1029,7.0367,6.9595,6.8914,6.886,6.886,6.8436,6.8288,6.8215,6.7884,6.7952,6.7546,6.6154,6.5027,6.3812,6.2291,0.0,5.9173,5.9789,5.9799,6.0029,6.0877,6.2086,6.2845,6.2937,6.3371,6.3959,6.4532,6.4613,6.5073,6.6026,6.5764,6.5924,6.6575,6.6303,6.6266,6.6462,6.6162,6.5974,6.5974,6.5486,6.5486,6.5974,6.5974,6.6462,6.7213,6.6575,6.6462,6.6687,6.5523,6.5223,6.5411,6.4585,6.4284,6.4284,6.4284,6.4324,6.4477,6.8631,6.9488,7.0273,7.1286,7.134,7.1276,7.1404,7.134,7.1348,7.1729,7.2488,7.3002,7.3254,7.329,7.3507,7.4049,7.3645,7.3602,7.4181,7.4977,7.5798,7.6512,7.6548,7.6548,7.6548,7.6643,7.6607,7.6607,7.6708,7.6838,7.6966,7.7029,7.7741,7.8893,7.7756,7.7965,7.8919,7.7818,7.7304,7.7304,7.7304,7.7157,7.69,7.6607,7.6313,7.6056,7.5763,7.5322,7.4992,7.6093,7.613,7.5689,7.5726,7.4992,7.3927,7.2826,7.2129,7.1578,7.1064,7.0697,7.0146,6.8733,6.8623,6.8697,6.8147,6.822,6.8257,6.7797,6.7978,6.7684,6.5962,6.511,6.4191,6.2989,6.1275,6.0441,6.1447,6.1385,6.147,6.207,6.3246,6.3833,6.341,6.3734,6.4167,6.4599,6.4637,6.5016,6.597,6.6493,6.688,6.7128,6.6786,6.6223,6.5482,6.5786,6.6049,6.6274,6.5448,6.5486,6.6274,6.6011,6.6349,6.7138,6.6913,6.68,6.6725,6.5861,6.5523,6.5411,6.4585,6.4284,6.4284,6.4284,6.4324,6.4516,6.8569,6.8894,6.9435,7.0987,7.1146,7.1081,7.1276,7.1146,7.1369,7.2329,7.2988,7.3712,7.4503,7.4611,7.4611,7.4611,7.4713,7.4812,7.4812,7.5774,7.6275,7.6275,7.6275,7.6275,7.6275,7.6275,7.6275,7.6275,7.6512,7.6614,7.6614,7.6902,7.7092,7.7092,7.7279,7.7341,7.7341,7.7304,7.7304,7.7304,7.7304,7.6827,7.6203,7.7011,7.6827,7.6203,7.7011,7.7304,7.7304,7.7304,7.7304,7.7011,7.5432,7.3817,7.2532,7.2496,7.2496,7.2129,7.0513,7.066,7.1044,7.0124,6.9299,6.8714,6.8714,6.9299,6.9465,6.8017,6.8348,6.8421,6.6806,6.5852,6.4787,6.3099,6.2144,6.163,6.1594,6.2291,6.2805,6.2805,6.4525,6.5041,6.3379,6.4169,6.4539,6.3891,6.3817,6.4233,6.5185,6.6754,6.6904,6.526,6.6138,6.6218,6.5432,6.6345,6.7176,6.7964,6.7176,6.7213,6.7964,6.7176,6.7251,6.7964,6.7138,6.68,6.6725,6.5861,6.5523,6.5411,6.4585,6.4284,6.4284,6.4284,6.4284,6.4397,6.7698,6.8778,6.9741,7.0373,7.0656,7.0883,7.1081,7.0949,7.0991,7.1405,7.2562,7.3281,7.2957,7.3928,7.4611,7.4611,7.414,7.41,7.4776,7.52,7.5696,7.6275,7.6275,7.6275,7.6275,7.6275,7.6275,7.6275,7.6378,7.6445,7.6614,7.6745,7.7065,7.7668,7.7312,7.7448,7.7961,7.7499,7.7279,7.7155,7.7155,7.7009,7.6825,7.7045,7.7071,7.6974,7.7231,7.6607,7.5726,7.6276,7.5726,7.4808,7.4882,7.4588,7.3964,7.2826,7.2092,7.1321,6.9706,6.8954,6.855,6.8274,6.8457,6.8567,6.7982,6.8457,6.875,6.7744,6.8293,6.8367,6.6609,6.6239,6.5595,6.398,6.3503,6.3135,6.2548,6.3172,6.3503,6.2879,6.391,6.4279,6.3305,6.3558,6.4253,6.532,6.6472,6.7263,6.7626,6.8017,6.8101,6.78,6.7979,6.8024,6.7941,6.657,6.6011,6.6237,6.6612,6.6913,6.7176,6.7476,6.8077,6.8828,6.8002,6.7626,6.7513,6.6087,6.5523,6.5411,6.4585,6.4284,6.4284,6.4284,6.4324,6.4516,6.8183,6.9117,6.9872,7.0325,7.053,7.0718,7.0883,7.0785,7.0825,7.1278,7.2394,7.3111,7.2968,7.4079,7.4868,7.4868,7.4508,7.447,7.5145,7.5386,7.567,7.614,7.6275,7.6275,7.6275,7.6275,7.6275,7.6275,7.6275,7.6378,7.6445,7.6548,7.6898,7.7466,7.7121,7.7222,7.766,7.7275,7.7056,7.6966,7.6966,7.7029,7.7092,7.7029,7.7118,7.7304,7.7279,7.6436,7.5469,7.5946,7.5028,7.378,7.4258,7.4221,7.378,7.2789,7.2165,7.1431,6.976,6.8879,6.8274,6.7505,6.7668,6.7923,6.7412,6.7923,6.8288,6.7505,6.8403,6.8788,6.703,6.6846,6.6549,6.5264,6.453,6.4016,6.3833,6.398,6.3906,6.3392,6.4462,6.4722,6.3342,6.3965,6.4772,6.5534,6.6834,6.7736,6.8118,6.8071,6.8071,6.8297,6.8213,6.8073,6.792,6.6893,6.6608,6.6988,6.7176,6.7438,6.7739,6.7926,6.8264,6.8715,6.8227,6.7626,6.695,6.5936,6.5298,6.4998,6.4472,6.4284,6.4284,6.4284,6.4324,6.4439,6.9353,6.9567,6.9854,7.057,7.0615,7.0582,7.0754,7.065,7.0832,7.1756,7.2368,7.3119,7.394,7.4725,7.5225,7.5225,7.5334,7.5585,7.5727,7.5901,7.6003,7.6003,7.6212,7.6384,7.6275,7.6348,7.6384,7.6384,7.6456,7.6456,7.6384,7.6554,7.6687,7.6614,7.6708,7.6801,7.6801,7.6801,7.6801,7.6801,7.6801,7.6902,7.7029,7.6866,7.6993,7.7243,7.7045,7.6569,7.6093,7.5946,7.4845,7.3538,7.367,7.3193,7.2606,7.2475,7.2438,7.2071,7.0271,6.9775,6.9295,6.744,6.7019,6.7019,6.7019,6.76,6.8022,6.73,6.8637,6.9409,6.7872,6.7762,6.7614,6.6733,6.5375,6.4604,6.5228,6.4714,6.4273,6.42,6.5741,6.5854,6.3527,6.5022,6.5794,6.4976,6.5794,6.6648,6.7391,6.7428,6.7428,6.7428,6.7449,6.717,6.6425,6.7397,6.8285,6.8935,6.8377,6.8452,6.9091,6.8415,6.8114,6.8114,6.8039,6.71,6.5598,6.5523,6.5035,6.4284,6.4284,6.4284,6.4284,6.4284,6.4284,6.4284,6.8571,6.9041,6.9439,6.9788,7.0221,7.0514,7.0582,7.0514,7.08,7.1654,7.2334,7.3119,7.394,7.4725,7.5225,7.5225,7.5334,7.5478,7.5585,7.5727,7.5901,7.6003,7.6686,7.6791,7.6311,7.6927,7.7217,7.7217,7.7869,7.7869,7.7217,7.7321,7.6958,7.6378,7.6578,7.6643,7.6643,7.6773,7.6773,7.6643,7.6643,7.668,7.6745,7.668,7.6838,7.7082,7.6235,7.5969,7.5764,7.4519,7.3324,7.2509,7.3287,7.342,7.3104,7.2327,7.2204,7.1787,6.9404,6.8648,6.8313,6.7237,6.6903,6.6845,6.6961,6.76,6.7964,6.7222,6.858,6.9535,6.8262,6.882,6.8953,6.7433,6.6884,6.6353,6.5396,6.5705,6.5742,6.5118,6.5492,6.5385,6.4266,6.5356,6.6017,6.5831,6.7168,6.806,6.8246,6.8246,6.8246,6.8246,6.8246,6.823,6.8176,6.8409,6.8062,6.7198,6.8372,6.8715,6.8264,6.8753,6.894,6.8903,6.8264,6.7438,6.6462,6.5786,6.5035,6.4284,6.4284,6.4284,6.4284,6.4284,6.4284,6.4284,6.9399,6.9689,6.9872,7.0043,7.0297,7.0514,7.0514,7.0514,7.08,7.1585,7.2334,7.3119,7.394,7.4725,7.5225,7.5225,7.5297,7.5334,7.5334,7.5585,7.5727,7.5762,7.6228,7.6584,7.6718,7.7514,7.78,7.7507,7.7905,7.8122,7.805,7.7688,7.7289,7.6855,7.656,7.6445,7.6445,7.6541,7.6512,7.6445,7.6445,7.6512,7.6614,7.6512,7.6389,7.6308,7.5717,7.5124,7.4409,7.3203,7.2413,7.2061,7.2619,7.2765,7.2692,7.2157,7.2048,7.1706,6.9486,6.9113,6.8982,6.7302,6.7135,6.7257,6.7012,6.723,6.7411,6.6976,6.808,6.8924,6.835,6.8778,6.8893,6.8016,6.7305,6.6701,6.6406,6.6093,6.5925,6.5888,6.5956,6.5962,6.5632,6.6149,6.6457,6.6457,6.7654,6.8408,6.8408,6.8457,6.8506,6.8506,6.8506,6.8506,6.8602,6.865,6.8334,6.7614,6.8615,6.8891,6.8478,6.8972,6.9015,6.8602,6.8189,6.7551,6.6725,6.5861,6.5261,6.481,6.4434,6.4284,6.4284,6.4284,6.4284,6.4359,7.0445,7.0445,7.0445,7.0445,7.0445,7.0481,7.0693,7.0728,7.1049,7.1977,7.262,7.3298,7.4118,7.4796,7.5225,7.5225,7.5225,7.5225,7.5225,7.537,7.555,7.5693,7.598,7.6409,7.7124,7.8133,7.8275,7.7724,7.7977,7.8303,7.8702,7.8159,7.776,7.747,7.6782,7.642,7.6275,7.6275,7.6275,7.6275,7.6275,7.6378,7.6548,7.6378,7.5967,7.5534,7.5233,7.4206,7.2838,7.2328,7.2036,7.1927,7.1927,7.1927,7.1927,7.1927,7.1927,7.1599,6.9818,6.983,6.9794,6.7425,6.7293,6.7619,6.6967,6.6786,6.6786,6.6786,6.752,6.8182,6.8182,6.8408,6.856,6.8414,6.7339,6.6756,6.7396,6.6443,6.5962,6.6623,6.6691,6.6662,6.6703,6.6814,6.6814,6.6703,6.7654,6.8222,6.8124,6.8334,6.8457,6.8506,6.8506,6.8506,6.8506,6.8602,6.865,6.865,6.8846,6.8983,6.9027,6.9116,6.8784,6.8227,6.8227,6.7739,6.6913,6.6087,6.5636,6.5411,6.4585,6.4284,6.4284,6.4284,6.4284,6.4397,7.0272,7.0202,7.0202,7.0202,7.0202,7.0521,7.1406,7.1549,7.2049,7.3512,7.3797,7.4154,7.4975,7.5153,7.5225,7.5225,7.5225,7.5225,7.5225,7.5225,7.5656,7.6481,7.7126,7.7343,7.6948,7.8603,7.9142,7.8557,7.9933,7.9969,7.8702,7.9318,7.8847,7.7507,7.7398,7.6927,7.6275,7.6275,7.6275,7.6275,7.6275,7.6311,7.6378,7.6275,7.5937,7.5305,7.4385,7.3116,7.1811,7.2616,7.2299,7.1557,7.178,7.1816,7.178,7.162,7.1718,7.1453,6.9733,6.931,6.8984,6.7221,6.6895,6.6931,6.6822,6.6786,6.6786,6.6786,6.752,6.8182,6.8041,6.8704,6.9077,6.8327,6.8174,6.796,6.7579,6.745,6.7393,6.7504,6.7022,6.6441,6.5854,6.6445,6.6592,6.5891,6.7308,6.7875,6.7272,6.7938,6.8358,6.8506,6.8506,6.8506,6.8506,6.8506,6.8506,6.8506,6.865,6.8838,6.9027,6.9027,6.8997,6.9053,6.9053,6.8602,6.7776,6.695,6.6162,6.5411,6.4585,6.4284,6.4284,6.4284,6.4284,6.4322,7.0202,7.0132,7.0062,7.0062,7.0416,7.0842,7.1268,7.1837,7.2585,7.3724,7.3939,7.4332,7.5118,7.5225,7.5225,7.5225,7.5225,7.5403,7.5831,7.5439,7.5833,7.7122,7.705,7.7339,7.8097,7.8853,7.9215,7.8999,7.9865,8.0153,8.0042,7.9792,7.9141,7.8159,7.7688,7.7036,7.6275,7.6275,7.6275,7.6275,7.6275,7.6275,7.6275,7.614,7.567,7.4869,7.3573,7.2444,7.1567,7.1992,7.182,7.1404,7.1593,7.1593,7.1531,7.1494,7.1557,7.134,7.0216,6.9865,6.9466,6.7873,6.7474,6.7366,6.6895,6.6786,6.6786,6.6786,6.7135,6.7389,6.7329,6.7679,6.7846,6.7484,6.7586,6.7611,6.7395,6.7579,6.7687,6.7687,6.741,6.7095,6.678,6.7126,6.72,6.6868,6.7546,6.7871,6.759,6.7936,6.8259,6.8358,6.8358,6.8408,6.8506,6.8506,6.8506,6.8506,6.8554,6.8697,6.8838,6.8937,6.9027,6.9078,6.8672,6.834,6.7889,6.6612,6.5861,6.5411,6.4585,6.4284,6.4284,6.4284,6.4284,6.4284]},{"header":{"parameterUnit":"m.s-1","parameterCategory":1,"la1":30.6,"la2":28.766,"lo1":-90.7593,"lo2":-88.6598,"dy":0.0162,"dx":0.0183,"nx":116,"ny":114,"refTime":"2024-03-15T12:00:00:Z","depth":0,"parameterNumber":3,"parameterNumberName":"V-component_of_WINDS"},"data":[0.0,0.0,0.0,0.0,0.0,0.0,0.0,0.0,0.0,0.0,0.0,0.0,0.0,0.0,0.0,0.0,0.0,0.0,0.0,0.0,0.0,0.0,0.0,0.0,0.0,0.0,0.0,0.0,0.0,0.0,0.0,0.0,0.0,0.0,0.0,0.0,0.0,0.0,0.0,0.0,0.0,0.0,0.0,0.0,0.0,0.0,0.0,0.0,0.0,0.0,0.0,0.0,0.0,0.0,0.0,0.0,0.0,0.0,0.0,0.0,0.0,0.0,0.0,0.0,0.0,0.0,0.0,0.0,0.0,0.0,0.0,0.0,0.0,0.0,0.0,0.0,0.0,0.0,0.0,0.0,0.0,0.0,0.0,0.0,0.0,0.0,0.0,0.0,0.0,0.0,0.0,0.0,0.0,0.0,0.0,0.0,0.0,0.0,0.0,0.0,0.0,0.0,0.0,0.0,0.0,0.0,0.0,0.0,0.0,0.0,0.0,0.0,0.0,0.0,0.0,0.0,0.0,0.0,0.0,0.0,0.0,0.0,0.0,0.0,0.0,0.0,0.0,0.0,0.0,0.0,0.0,0.0,0.0,0.0,0.0,0.0,0.0,0.0,0.0,0.0,0.0,0.0,0.0,0.0,0.0,0.0,0.0,0.0,0.0,0.0,0.0,0.0,0.0,0.0,0.0,0.0,0.0,0.0,0.0,0.0,0.0,0.0,0.0,0.0,0.0,0.0,0.0,0.0,0.0,0.0,0.0,0.0,0.0,0.0,0.0,0.0,0.0,0.0,0.0,0.0,0.0,0.0,0.0,0.0,0.0,0.0,0.0,0.0,0.0,0.0,0.0,0.0,0.0,0.0,0.0,0.0,0.0,0.0,0.0,0.0,0.0,0.0,0.0,0.0,0.0,0.0,0.0,0.0,0.0,0.0,0.0,0.0,0.0,0.0,0.0,0.0,0.0,0.0,0.0,0.0,0.0,0.0,0.0,0.0,0.0,0.0,0.0,0.0,0.0,0.0,0.0,0.0,0.0,0.0,0.0,0.0,0.0,0.0,0.0,0.0,0.0,0.0,0.0,0.0,0.0,0.0,0.0,0.0,0.0,0.0,0.0,0.0,0.0,0.0,0.0,0.0,0.0,0.0,0.0,0.0,0.0,0.0,0.0,0.0,0.0,0.0,0.0,0.0,0.0,0.0,0.0,0.0,0.0,0.0,0.0,0.0,0.0,0.0,0.0,0.0,0.0,0.0,0.0,0.0,0.0,0.0,0.0,0.0,0.0,0.0,0.0,0.0,0.0,0.0,0.0,0.0,0.0,0.0,0.0,0.0,0.0,0.0,0.0,0.0,0.0,0.0,0.0,0.0,0.0,0.0,0.0,0.0,0.0,0.0,0.0,0.0,0.0,0.0,0.0,0.0,0.0,0.0,0.0,0.0,0.0,0.0,0.0,0.0,0.0,0.0,0.0,0.0,0.0,0.0,0.0,0.0,0.0,0.0,0.0,0.0,0.0,0.0,0.0,0.0,0.0,0.0,0.0,0.0,0.0,0.0,0.0,0.0,0.0,0.0,0.0,0.0,0.0,0.0,0.0,0.0,0.0,0.0,0.0,0.0,0.0,0.0,0.0,0.0,0.0,0.0,0.0,0.0,0.0,0.0,0.0,0.0,0.0,0.0,0.0,0.0,0.0,0.0,0.0,0.0,0.0,0.0,0.0,0.0,0.0,0.0,0.0,0.0,0.0,0.0,0.0,0.0,0.0,0.0,0.0,0.0,0.0,0.0,0.0,0.0,0.0,0.0,0.0,0.0,0.0,0.0,0.0,0.0,0.0,0.0,0.0,0.0,0.0,0.0,0.0,0.0,0.0,0.0,0.0,0.0,0.0,0.0,0.0,0.0,0.0,0.0,0.0,0.0,0.0,0.0,0.0,0.0,0.0,0.0,0.0,0.0,0.0,0.0,0.0,0.0,0.0,0.0,0.0,0.0,0.0,0.0,0.0,0.0,0.0,0.0,0.0,0.0,0.0,0.0,0.0,0.0,0.0,0.0,0.0,0.0,0.0,0.0,0.0,0.0,0.0,0.0,0.0,0.0,0.0,0.0,0.0,0.0,0.0,0.0,0.0,0.0,0.0,0.0,0.0,0.0,0.0,0.0,0.0,0.0,0.0,0.0,0.0,0.0,0.0,0.0,0.0,0.0,0.0,0.0,0.0,0.0,0.0,0.0,0.0,0.0,0.0,0.0,0.0,0.0,0.0,0.0,0.0,0.0,0.0,0.0,0.0,0.0,0.0,0.0,0.0,0.0,0.0,0.0,0.0,0.0,0.0,0.0,0.0,0.0,0.0,0.0,0.0,0.0,0.0,0.0,0.0,0.0,0.0,0.0,0.0,0.0,0.0,0.0,0.0,0.0,0.0,0.0,0.0,0.0,0.0,0.0,0.0,0.0,0.0,0.0,0.0,0.0,0.0,0.0,0.0,0.0,0.0,0.0,0.0,0.0,0.0,0.0,0.0,0.0,0.0,0.0,0.0,0.0,0.0,0.0,0.0,0.0,0.0,0.0,0.0,0.0,0.0,0.0,0.0,0.0,0.0,0.0,0.0,0.0,0.0,0.0,0.0,0.0,0.0,0.0,0.0,0.0,0.0,0.0,0.0,0.0,0.0,0.0,0.0,0.0,0.0,0.0,0.0,0.0,0.0,0.0,0.0,0.0,0.0,0.0,0.0,0.0,0.0,0.0,0.0,0.0,0.0,0.0,0.0,0.0,0.0,0.0,0.0,0.0,0.0,0.0,0.0,0.0,0.0,0.0,0.0,0.0,0.0,0.0,0.0,0.0,0.0,0.0,0.0,0.0,0.0,0.0,0.0,0.0,0.0,0.0,0.0,0.0,0.0,0.0,0.0,0.0,0.0,0.0,0.0,0.0,0.0,0.0,0.0,0.0,0.0,0.0,0.0,0.0,0.0,0.0,0.0,0.0,0.0,0.0,0.0,0.0,0.0,0.0,0.0,0.0,0.0,0.0,0.0,0.0,0.0,0.0,0.0,0.0,0.0,0.0,0.0,0.0,0.0,0.0,0.0,0.0,0.0,0.0,0.0,0.0,0.0,0.0,0.0,0.0,0.0,0.0,0.0,0.0,0.0,0.0,0.0,0.0,0.0,0.0,0.0,0.0,0.0,0.0,0.0,0.0,0.0,0.0,0.0,0.0,0.0,0.0,0.0,0.0,0.0,0.0,0.0,0.0,0.0,0.0,0.0,0.0,0.0,0.0,0.0,0.0,0.0,0.0,0.0,0.0,0.0,0.0,0.0,0.0,0.0,0.0,0.0,0.0,0.0,0.0,0.0,0.0,0.0,0.0,0.0,0.0,0.0,0.0,0.0,0.0,0.0,0.0,0.0,0.0,0.0,0.0,0.0,0.0,0.0,0.0,0.0,0.0,0.0,0.0,0.0,0.0,0.0,0.0,0.0,0.0,0.0,0.0,0.0,0.0,0.0,0.0,0.0,0.0,0.0,0.0,0.0,0.0,0.0,0.0,0.0,0.0,0.0,0.0,0.0,0.0,0.0,0.0,0.0,0.0,0.0,0.0,0.0,0.0,0.0,0.0,0.0,0.0,0.0,0.0,0.0,0.0,0.0,0.0,0.0,0.0,0.0,0.0,0.0,0.0,0.0,0.0,0.0,0.0,0.0,0.0,0.0,0.0,0.0,0.0,0.0,0.0,0.0,0.0,0.0,0.0,0.0,0.0,0.0,0.0,0.0,0.0,0.0,0.0,0.0,0.0,0.0,0.0,0.0,0.0,0.0,0.0,0.0,0.0,0.0,0.0,0.0,0.0,0.0,0.0,0.0,0.0,0.0,0.0,0.0,0.0,0.0,0.0,0.0,0.0,0.0,0.0,0.0,0.0,0.0,0.0,0.0,0.0,0.0,0.0,0.0,0.0,0.0,0.0,0.0,0.0,0.0,0.0,0.0,0.0,0.0,0.0,0.0,0.0,0.0,0.0,0.0,0.0,0.0,0.0,0.0,0.0,0.0,0.0,0.0,0.0,0.0,0.0,0.0,0.0,0.0,0.0,0.0,0.0,0.0,0.0,0.0,0.0,0.0,0.0,0.0,0.0,0.0,0.0,0.0,0.0,0.0,0.0,0.0,0.0,0.0,0.0,0.0,0.0,0.0,0.0,0.0,0.0,0.0,0.0,0.0,0.0,0.0,0.0,0.0,0.0,0.0,0.0,0.0,0.0,0.0,0.0,0.0,0.0,0.0,0.0,0.0,0.0,0.0,0.0,0.0,0.0,0.0,0.0,0.0,0.0,0.0,0.0,0.0,0.0,0.0,0.0,0.0,0.0,0.0,0.0,0.0,0.0,0.0,0.0,0.0,0.0,0.0,0.0,0.0,0.0,0.0,0.0,0.0,0.0,0.0,0.0,0.0,0.0,0.0,0.0,0.0,0.0,0.0,0.0,0.0,0.0,0.0,0.0,0.0,0.0,0.0,0.0,0.0,0.0,0.0,0.0,0.0,0.0,0.0,0.0,0.0,0.0,0.0,0.0,0.0,0.0,0.0,0.0,0.0,0.0,0.0,0.0,0.0,0.0,0.0,0.0,0.0,0.0,0.0,0.0,0.0,0.0,0.0,0.0,0.0,0.0,0.0,0.0,0.0,0.0,0.0,0.0,0.0,0.0,0.0,0.0,0.0,0.0,0.0,0.0,0.0,0.0,0.0,0.0,0.0,0.0,0.0,0.0,0.0,0.0,0.0,0.0,0.0,0.0,0.0,0.0,0.0,0.0,0.0,0.0,0.0,0.0,0.0,0.0,0.0,0.0,0.0,0.0,0.0,0.0,0.0,0.0,0.0,0.0,0.0,0.0,0.0,0.0,0.0,0.0,0.0,0.0,0.0,0.0,0.0,0.0,0.0,0.0,0.0,0.0,0.0,0.0,0.0,0.0,0.0,0.0,0.0,0.0,0.0,0.0,0.0,0.0,0.0,0.0,0.0,0.0,0.0,0.0,0.0,0.0,0.0,0.0,0.0,0.0,0.0,0.0,0.0,0.0,0.0,0.0,0.0,0.0,0.0,0.0,0.0,0.0,0.0,0.0,0.0,0.0,0.0,0.0,0.0,0.0,0.0,0.0,0.0,0.0,0.0,0.0,0.0,0.0,0.0,0.0,0.0,0.0,0.0,0.0,0.0,0.0,0.0,0.0,0.0,0.0,0.0,0.0,0.0,0.0,0.0,0.0,0.0,0.0,0.0,0.0,0.0,0.0,0.0,0.0,0.0,0.0,0.0,0.0,0.0,0.0,0.0,0.0,0.0,0.0,0.0,0.0,0.0,0.0,0.0,0.0,0.0,0.0,0.0,0.0,0.0,0.0,0.0,0.0,0.0,0.0,0.0,0.0,0.0,0.0,0.0,0.0,0.0,0.0,0.0,0.0,0.0,0.0,0.0,0.0,0.0,0.0,0.0,0.0,0.0,0.0,0.0,0.0,0.0,0.0,0.0,0.0,0.0,0.0,0.0,0.0,0.0,0.0,0.0,0.0,0.0,0.0,0.0,0.0,0.0,0.0,0.0,0.0,0.0,0.0,0.0,0.0,0.0,0.0,0.0,0.0,0.0,0.0,0.0,0.0,0.0,0.0,0.0,0.0,0.0,0.0,0.0,0.0,0.0,0.0,0.0,0.0,0.0,0.0,0.0,0.0,0.0,0.0,0.0,0.0,0.0,0.0,0.0,0.0,0.0,0.0,0.0,0.0,0.0,0.0,0.0,0.0,0.0,0.0,0.0,0.0,0.0,0.0,0.0,0.0,0.0,0.0,0.0,0.0,0.0,0.0,0.0,0.0,0.0,0.0,0.0,0.0,0.0,0.0,0.0,0.0,0.0,0.0,0.0,0.0,0.0,0.0,0.0,0.0,0.0,0.0,0.0,0.0,0.0,0.0,0.0,0.0,0.0,0.0,0.0,0.0,0.0,0.0,0.0,0.0,0.0,0.0,0.0,0.0,0.0,0.0,0.0,0.0,0.0,0.0,0.0,0.0,0.0,0.0,0.0,0.0,0.0,0.0,0.0,0.0,0.0,0.0,0.0,0.0,0.0,0.0,0.0,0.0,0.2894,0.0,0.0,0.0,0.0,0.0,0.0,0.0,0.0,0.0,0.0,0.0,0.0,0.0,0.0,0.0,0.0,0.0,0.0,0.0,0.0,0.0,0.0,0.0,0.0,0.0,0.0,0.0,0.4539,0.4516,0.4523,0.4462,0.4532,0.4605,0.4469,0.4399,0.4326,0.4188,0.4277,0.4527,0.4804,0.5151,0.5636,0.5623,0.5459,0.5248,0.0,0.0,0.0,0.0,0.0,0.0,0.0,0.0,0.0,0.0,0.0,0.0,0.0,0.0,0.0,0.0,0.0,0.0,0.0,0.0,0.0,0.0,0.0,0.0,0.0,0.0,0.0,0.0,0.0,0.0,0.0,0.0,0.0,0.0,0.0,0.0,0.0,0.0,0.0,0.0,0.0,0.0,0.0,0.0,0.0,0.0,0.0,0.0,0.0,0.0,0.0,0.0,0.0,0.0,0.0,0.0,0.0,0.0,0.0,0.0,0.0,0.0,0.0,0.0,0.0,0.0,0.0,0.0,0.0,0.0,0.0,0.3242,0.0,0.0,0.0,0.0,0.0,0.0,0.0,0.0,0.0,0.0,0.0,0.0,0.0,0.0,0.0,0.0,0.0,0.0,0.0,0.0,0.0,0.0,0.0,0.4665,0.4753,0.4814,0.4854,0.4859,0.4827,0.4768,0.4809,0.49,0.4764,0.4634,0.4584,0.4603,0.4804,0.5259,0.5661,0.6276,0.6867,0.6894,0.664,0.616,0.5964,0.0,0.0,0.0,0.0,0.0,0.0,0.0,0.0,0.0,0.0,0.0,0.0,0.0,0.0,0.0,0.0,0.0,0.0,0.0,0.0,0.0,0.0,0.0,0.0,0.0,0.0,0.0,0.0,0.0,0.0,0.0,0.0,0.0,0.0,0.0,0.0,0.0,0.0,0.0,0.0,0.0,0.0,0.0,0.0,0.0,0.0,0.0,0.0,0.0,0.0,0.0,0.0,0.0,0.0,0.0,0.0,0.0,0.0,0.0,0.0,0.0,0.0,0.0,0.0,0.0,0.5773,0.5586,0.5272,0.4923,0.4829,0.4351,0.3685,0.0,0.0,0.0,0.0,0.0,0.0,0.0,0.0,0.0,0.0,0.0,0.0,0.0,0.0,0.0,0.0,0.0,0.0,0.0,0.0,0.0,0.0,0.4865,0.5081,0.541,0.539,0.5402,0.5384,0.5249,0.5142,0.51,0.4958,0.4938,0.5038,0.5036,0.5312,0.5899,0.7267,0.8085,0.8428,0.8557,0.8679,0.8542,0.7235,0.6812,0.6919,0.0,0.0,0.0,0.0,0.0,0.0,0.0,0.0,0.0,0.0,0.0,0.0,0.0,0.0,0.0,0.0,0.0,0.0,0.0,0.0,0.0,0.0,0.0,0.0,0.0,0.0,0.0,0.0,0.0,0.0,0.0,0.0,0.0,0.0,0.0,0.0,0.0,0.0,0.0,0.0,0.0,0.3999,0.4135,0.0,0.0,0.0,0.0,0.0,0.0,0.0,0.0,0.0,0.0,0.0,0.0,0.0,0.0,0.6035,0.5984,0.6187,0.6689,0.6888,0.6869,0.6513,0.6669,0.6724,0.6643,0.6536,0.0,0.4611,0.3916,0.0,0.0,0.0,0.0,0.0,0.0,0.0,0.0,0.0,0.0,0.0,0.0,0.0,0.0,0.0,0.0,0.0,0.0,0.0,0.0,0.0,0.5306,0.5734,0.6153,0.6356,0.6342,0.6032,0.5879,0.5712,0.5484,0.5319,0.5239,0.5386,0.5679,0.6435,0.7655,0.8788,0.9497,0.9662,0.9728,0.9765,0.9728,0.9229,0.8683,0.8255,0.7572,0.0,0.0,0.0,0.0,0.0,0.0,0.0,0.0,0.0,0.0,0.0,0.0,0.0,0.0,0.0,0.0,0.0,0.0,0.0,0.0,0.0,0.0,0.0,0.0,0.0,0.0,0.0,0.0,0.0,0.0,0.0,0.0,0.0,0.0,0.0,0.0,0.0,0.0,0.0,0.4129,0.4482,0.4499,0.4422,0.4242,0.0,0.0,0.0,0.0,0.0,0.0,0.0,0.0,0.0,0.5761,0.6298,0.674,0.7074,0.7255,0.7463,0.7561,0.7673,0.7619,0.7425,0.7469,0.7326,0.7314,0.7185,0.6857,0.6229,0.5481,0.4644,0.3715,0.0,0.0,0.0,0.0,0.0,0.3491,0.0,0.0,0.0,0.0,0.0,0.0,0.0,0.0,0.0,0.0,0.0,0.0,0.5396,0.5948,0.6435,0.6948,0.7222,0.7272,0.6953,0.6492,0.6212,0.5989,0.5616,0.5576,0.5768,0.6754,0.8019,0.9646,1.037,1.0832,1.092,1.092,1.0943,1.0981,1.1051,1.054,0.9548,0.8674,0.8127,0.7553,0.0,0.0,0.0,0.0,0.0,0.0,0.0,0.0,0.0,0.0,0.0,0.0,0.0,0.0,0.0,0.0,0.0,0.0,0.0,0.0,0.0,0.0,0.0,0.0,0.0,0.0,0.0,0.0,0.0,0.0,0.0,0.0,0.0,0.0,0.0,0.0,0.0,0.4538,0.4843,0.4845,0.4895,0.476,0.0,0.0,0.0,0.0,0.0,0.0,0.6471,0.6285,0.6319,0.6753,0.694,0.724,0.7672,0.8063,0.8228,0.8165,0.8165,0.824,0.8244,0.8138,0.7961,0.7729,0.762,0.7597,0.7631,0.6919,0.6043,0.5129,0.437,0.3725,0.0,0.2857,0.3387,0.4173,0.0,0.0,0.0,0.0,0.0,0.0,0.0,0.0,0.0,0.0,0.0,0.5644,0.6046,0.663,0.7289,0.785,0.7999,0.8072,0.818,0.7251,0.6614,0.6444,0.5888,0.5853,0.6367,0.8421,1.0059,1.1295,1.1921,1.229,1.2366,1.2366,1.232,1.246,1.2297,1.187,1.0957,0.9799,0.9372,0.9356,0.7789,0.0,0.0,0.0,0.0,0.0,0.0,0.0,0.0,0.0,0.0,0.0,0.0,0.0,0.0,0.0,0.0,0.0,0.0,0.0,0.0,0.0,0.0,0.0,0.0,0.0,0.0,0.0,0.0,0.0,0.0,0.0,0.0,0.0,0.0,0.0,0.0,0.0,0.0,0.5244,0.5634,0.0,0.0,0.0,0.0,0.5547,0.6432,0.7041,0.7455,0.7074,0.7106,0.7469,0.7501,0.7729,0.8011,0.8446,0.8548,0.865,0.8573,0.8619,0.8619,0.8628,0.8623,0.8611,0.8256,0.8076,0.8023,0.7219,0.699,0.6802,0.6888,0.5923,0.4499,0.3868,0.4028,0.4739,0.0,0.0,0.0,0.0,0.0,0.0,0.0,0.0,0.4919,0.5011,0.5567,0.6241,0.6649,0.7563,0.8428,0.8843,0.9084,0.915,0.873,0.7807,0.7292,0.7333,0.6824,0.7186,0.8621,0.9774,1.097,1.1985,1.258,1.2938,1.3046,1.3046,1.3078,1.3126,1.2949,1.2636,1.2162,1.12,1.0436,0.9868,0.8714,0.7862,0.0,0.0,0.0,0.0,0.0,0.0,0.0,0.0,0.0,0.0,0.0,0.0,0.0,0.0,0.0,0.0,0.0,0.0,0.0,0.0,0.0,0.0,0.0,0.0,0.0,0.0,0.0,0.0,0.0,0.0,0.0,0.0,0.0,0.0,0.0,0.0,0.0,0.5647,0.5948,0.0,0.0,0.5692,0.5908,0.6182,0.6723,0.7305,0.7925,0.8076,0.8489,0.9021,0.9793,1.0073,1.0339,0.9202,0.8579,0.8673,0.8529,0.873,0.8911,0.8907,0.8844,0.8554,0.8485,0.8461,0.8335,0.7936,0.7509,0.7385,0.7323,0.7021,0.6451,0.6477,0.6675,0.6713,0.0,0.0,0.0,0.0,0.0,0.0,0.0,0.0,0.5174,0.5412,0.6172,0.6905,0.7568,0.8494,0.9272,0.971,0.9829,0.9788,0.9456,0.8481,0.7966,0.8062,0.7942,0.8675,1.0264,1.12,1.2057,1.2848,1.3311,1.3612,1.3734,1.3734,1.3833,1.3768,1.3645,1.3634,1.3545,1.275,1.1879,1.0841,0.9921,0.9326,0.881,0.0,0.0,0.0,0.0,0.0,0.0,0.0,0.0,0.0,0.0,0.0,0.0,0.0,0.0,0.0,0.0,0.0,0.0,0.0,0.0,0.0,0.0,0.0,0.0,0.0,0.0,0.0,0.0,0.0,0.0,0.0,0.0,0.0,0.0,0.0,0.6518,0.6674,0.6898,0.7035,0.6649,0.6956,0.7208,0.7217,0.7472,0.7706,0.8243,0.8824,0.9521,1.0131,1.109,1.1692,1.1721,1.0368,0.9716,0.9228,0.8893,0.8909,0.9098,0.9094,0.9403,0.9844,0.889,0.8522,0.859,0.8419,0.8068,0.7787,0.7672,0.766,0.7705,0.7806,0.8025,0.794,0.0,0.0,0.0,0.0,0.0,0.0,0.0,0.4967,0.5358,0.6146,0.6927,0.774,0.8621,0.9266,0.9875,1.0535,1.0169,1.0019,1.0535,0.9375,0.8678,0.8794,0.9335,1.0146,1.1304,1.2451,1.3376,1.3912,1.4261,1.4432,1.4432,1.4424,1.4482,1.4753,1.4745,1.4779,1.5,1.4437,1.3517,1.2329,1.1389,1.1098,1.1075,0.0,0.0,0.0,0.0,0.0,0.0,0.0,0.0,0.0,0.0,0.0,0.0,0.0,0.0,0.0,0.0,0.0,0.0,0.0,0.0,0.0,0.0,0.0,0.0,0.0,0.0,0.0,0.0,0.0,0.0,0.0,0.0,0.0,0.7198,0.7515,0.7774,0.8086,0.8525,0.8695,0.8346,0.876,0.8928,0.8454,0.8495,0.8649,0.8919,0.9616,1.0121,1.0404,1.1594,1.2264,1.2227,1.2152,1.1651,1.0727,0.9706,0.9186,0.9194,0.9194,1.0147,1.2042,0.9666,0.8592,0.8607,0.8607,0.8678,0.865,0.8284,0.8086,0.8048,0.7713,0.7761,0.804,0.0,0.0,0.0,0.0,0.0,0.0,0.0,0.5329,0.5867,0.6641,0.7738,0.8751,0.9465,1.0172,1.0665,1.0877,1.0615,1.0496,1.055,0.9588,0.9183,0.9746,1.07,1.1657,1.2708,1.3271,1.3693,1.4099,1.4326,1.4432,1.4432,1.4302,1.4587,1.4948,1.4804,1.4932,1.5026,1.4868,1.4618,1.4137,1.2627,1.1845,1.1416,0.0,0.0,0.0,0.0,0.0,0.0,0.0,0.0,0.0,0.0,0.0,0.0,0.0,0.0,0.0,0.0,0.0,0.0,0.0,0.0,0.0,0.0,0.0,0.0,0.0,0.0,0.0,0.0,0.0,0.0,0.0,0.0,0.8167,0.7827,0.8048,0.8251,0.876,0.9031,0.907,0.9172,0.9322,0.9487,0.9488,0.9385,0.9664,1.0199,1.0439,1.0738,1.1299,1.1598,1.1944,1.235,1.23,1.2129,1.1836,1.1678,1.1312,1.0735,1.0605,1.0363,0.9852,0.9249,0.8877,0.8956,0.8778,0.9383,1.0584,0.874,0.8041,0.8073,0.8203,0.8179,0.7973,0.0,0.0,0.0,0.0,0.0,0.0,0.0,0.554,0.6105,0.708,0.8065,0.9026,0.9924,1.0571,1.0953,1.1142,1.0998,1.0789,1.0738,1.0168,1.0162,1.1181,1.1916,1.2805,1.3579,1.3993,1.4449,1.4811,1.4985,1.5076,1.5219,1.5043,1.5231,1.5624,1.5588,1.5611,1.5849,1.5675,1.5575,1.5682,1.4162,1.3328,1.2794,1.1864,1.1212,1.0655,1.0032,0.9473,0.9005,0.8782,0.0,0.0,0.0,0.0,0.0,0.0,0.0,0.0,0.0,0.0,0.0,0.0,0.0,0.0,0.0,0.0,0.0,0.0,0.0,0.0,0.0,0.0,0.0,0.0,0.8573,0.9209,0.9097,0.9169,0.9325,0.9789,0.9907,1.0055,1.033,1.0366,1.0269,1.0254,1.0308,1.055,1.0809,1.0901,1.1175,1.1813,1.1742,1.1865,1.2199,1.2188,1.2216,1.2286,1.2341,1.2149,1.1332,1.124,1.0806,0.0,1.0077,1.011,1.0412,0.9862,1.013,0.0,0.0,0.0,0.0,0.0,0.8285,0.78,0.0,0.0,0.0,0.0,0.0,0.0,0.0,0.5706,0.6304,0.7505,0.8252,0.9057,1.0321,1.06,1.103,1.1538,1.114,1.1003,1.1144,1.0965,1.1366,1.2588,1.3003,1.3465,1.401,1.481,1.5317,1.5804,1.5957,1.619,1.6511,1.6283,1.6161,1.6314,1.6451,1.6563,1.6812,1.6443,1.649,1.6717,1.5763,1.5069,1.4609,1.3425,1.2776,1.2346,1.1595,1.0858,1.0322,0.9609,0.0,0.0,0.0,0.0,0.0,0.0,0.0,0.0,0.0,0.0,0.0,0.0,0.0,0.0,0.0,0.0,0.0,0.0,0.0,0.0,0.0,0.0,0.0,0.0,0.9545,1.0164,1.0579,1.0579,1.0639,1.0944,1.0982,1.1118,1.146,1.1411,1.1266,1.1118,1.1232,1.1247,1.1159,0.0,0.0,0.0,0.0,1.2015,1.2031,1.2123,1.2178,1.2194,1.2314,1.2117,1.1436,1.1564,1.1564,1.1462,1.1447,1.1763,1.2223,1.145,1.0811,1.0302,0.9926,0.9467,0.9,0.9004,0.8326,0.0,0.0,0.0,0.0,0.0,0.0,0.0,0.0,0.6151,0.682,0.8004,0.8888,0.9839,1.0936,1.1255,1.156,1.1918,1.1759,1.19,1.2041,1.1993,1.2234,1.2962,1.362,1.4367,1.5211,1.5512,1.6043,1.6512,1.639,1.6573,1.6713,1.6203,1.6241,1.6925,1.6642,1.6637,1.7038,1.6963,1.6878,1.6774,1.6396,1.5942,1.5297,1.4679,1.4007,1.3256,1.3031,1.2525,1.1833,1.1443,1.065,0.9761,0.9369,0.8261,0.0,0.0,0.0,0.0,0.0,0.0,0.0,0.0,0.0,0.0,0.0,0.0,0.0,0.0,0.0,0.0,0.0,0.0,0.0,0.9983,1.0634,1.1322,1.14,1.1346,1.1384,1.1357,1.1351,1.1455,1.1721,1.1808,1.1868,1.1732,1.1758,1.1801,1.1876,1.1833,0.0,1.2102,1.2123,1.2183,1.2281,1.221,1.2221,1.2319,0.0,0.0,1.2133,1.2342,1.2379,1.2267,1.2171,1.2254,1.2134,1.2042,1.1367,1.0499,0.9419,0.9692,1.0905,1.09,0.9782,0.8477,0.0,0.0,0.0,0.0,0.0,0.0,0.0,0.6273,0.6976,0.8147,0.8909,0.9678,1.0685,1.0786,1.0882,1.1163,1.1476,1.1765,1.2288,1.2556,1.3059,1.3863,1.4391,1.5144,1.5852,1.6276,1.6581,1.7244,1.7047,1.715,1.7408,1.6998,1.6959,1.7111,1.7111,1.7152,1.7105,1.7105,1.7105,1.7086,1.6774,1.6462,1.6122,1.5602,1.4736,1.3759,1.3919,1.337,1.2532,1.2264,1.1508,1.0582,1.0077,0.9046,0.7896,0.0,0.0,0.0,0.0,0.0,0.0,0.0,0.0,0.0,0.0,0.0,0.0,0.0,0.0,0.8419,0.9393,0.0,1.0542,1.1071,1.176,1.2318,1.2223,1.2187,1.2062,1.1645,1.1639,1.1705,1.1889,1.1955,1.2042,1.2161,1.2172,1.2227,1.2346,1.2297,1.2292,1.2352,1.2352,1.2543,1.2741,1.2543,1.2543,1.2741,1.2792,1.2645,1.2536,1.2716,1.2732,1.2613,1.2493,1.2373,1.2254,1.214,1.1828,1.1336,1.0717,1.0826,1.1645,1.158,1.083,1.0083,0.0,0.0,0.0,0.0,0.0,0.0,0.0,0.6432,0.7087,0.8138,0.8726,0.9271,0.9985,1.0062,1.0213,1.0514,1.0962,1.1679,1.2636,1.3128,1.3858,1.5068,1.5447,1.5846,1.6509,1.6871,1.7288,1.7934,1.7723,1.7808,1.8163,1.7861,1.7587,1.736,1.7568,1.7501,1.7227,1.718,1.7265,1.7398,1.7057,1.6897,1.6802,1.6254,1.5311,1.4242,1.4472,1.378,1.289,1.2572,1.1917,1.0942,1.0375,0.9658,0.8696,0.7726,0.7455,0.0,0.0,0.0,0.0,0.0,0.0,0.0,0.0,0.0,0.8508,0.9043,0.9341,0.9763,1.0934,1.12,1.1499,1.2315,1.2836,1.3214,1.3132,1.2919,1.2645,1.2259,1.2052,1.1895,1.2015,1.2025,1.2118,1.2335,1.2357,1.2417,1.2759,1.2742,1.2737,1.2764,1.272,1.2847,1.3351,1.3063,1.2886,1.3199,1.3133,1.3024,1.271,1.3007,1.2797,1.27,1.2607,1.2498,1.2187,1.2254,1.2134,1.2212,1.2212,1.2157,1.1868,1.1705,1.1645,1.1432,0.0,0.0,0.0,0.0,0.0,0.0,0.0,0.0,0.7446,0.8205,0.8589,0.9023,0.9638,0.9723,1.0031,1.0819,1.1427,1.2348,1.3959,1.4255,1.495,1.6379,1.659,1.696,1.7521,1.7693,1.8118,1.8645,1.8428,1.8418,1.8598,1.8002,1.7898,1.8191,1.7681,1.753,1.7643,1.7464,1.7407,1.7426,1.7379,1.7246,1.7048,1.6793,1.6053,1.5117,1.4653,1.3837,1.2959,1.2521,1.1697,1.1001,1.0778,1.0108,0.9381,0.8723,0.0,0.7685,0.7339,0.7285,0.0,0.7794,0.8031,0.8513,0.0,0.0,1.0073,1.0934,1.1213,1.1541,1.2333,1.2697,1.312,1.3442,1.3861,1.3973,1.3431,1.3651,1.3767,1.3463,1.2597,1.202,1.214,1.215,1.221,1.2346,1.2357,1.2648,1.3464,1.3366,1.355,1.4066,1.3837,1.3759,1.4061,1.3879,1.3745,1.3453,1.4006,1.3813,1.2705,1.3116,1.3116,1.27,1.2694,1.2819,1.2509,1.2379,1.2259,1.215,1.215,1.2145,1.2091,1.2135,1.1826,1.1437,0.0,0.0,0.0,0.0,0.0,0.0,0.0,0.0,0.0,0.809,0.8488,0.8798,0.9021,0.9132,0.9323,0.9851,1.1172,1.2513,1.3618,1.4716,1.5676,1.6458,1.6984,1.7349,1.7709,1.7842,1.8266,1.8673,1.8343,1.8286,1.8484,1.821,1.8125,1.8172,1.8031,1.7946,1.7898,1.769,1.7596,1.7587,1.7473,1.7152,1.6777,1.6599,1.6025,1.5283,1.4662,1.3953,0.0,1.2611,1.1823,1.1149,1.1049,1.0456,0.9627,0.8967,0.8601,0.0,0.818,0.0,0.0,0.0,0.913,0.9727,1.0351,1.0738,1.1145,1.1782,1.2033,1.2396,1.341,1.3561,1.3768,0.0,1.4487,1.4745,1.4643,1.4304,1.4147,1.4361,1.3493,1.3087,1.321,1.3222,1.3339,1.362,1.3643,1.372,1.4307,1.4059,1.4223,1.4397,1.4287,1.4415,1.4592,1.4471,1.4305,1.449,1.458,1.4279,1.3424,1.3903,1.3452,1.2706,1.3172,1.3082,1.2825,1.2509,1.2235,1.2181,1.2303,1.2275,1.2243,1.214,1.203,1.1824,0.0,0.0,0.0,0.0,0.0,0.0,0.0,0.0,0.0,0.0,0.8178,0.8365,0.8406,0.8617,0.8861,0.9239,1.089,1.2388,1.3483,1.4929,1.609,1.685,1.728,1.7631,1.7953,1.8079,1.8314,1.8673,1.8371,1.8324,1.8522,1.8465,1.839,1.8305,1.8343,1.8239,1.8031,1.7813,1.7728,1.7709,1.7501,1.718,1.6692,1.6458,1.5962,1.5101,1.4325,1.3561,1.279,1.2094,1.1471,1.0894,1.0852,1.0332,0.9738,0.9335,0.8927,0.8757,0.8669,0.0,0.0,0.9367,1.0012,1.067,1.088,1.1382,1.1952,1.2488,1.2648,1.3138,1.4027,1.4196,1.4262,1.478,1.5052,1.5269,1.5337,1.4944,1.4728,1.4721,1.4474,1.4109,1.4247,1.4069,1.4024,1.4397,1.4427,1.4501,1.488,1.4849,1.5001,1.4938,1.4862,1.5011,1.5394,1.5087,1.5125,1.5312,1.5418,1.4922,1.427,1.4294,1.4019,1.3458,1.3649,1.3557,1.315,1.3026,1.2564,1.2331,1.2439,1.2593,1.2565,1.2356,1.2234,1.2162,0.0,0.0,0.0,0.0,0.0,0.0,0.0,0.0,0.0,0.0,0.0,0.0,0.0,0.8357,0.896,0.9681,1.0706,1.2125,1.4298,1.5174,1.6315,1.7826,1.7842,1.8031,1.8654,1.8456,1.8456,1.8673,1.8664,1.8758,1.8957,1.8758,1.8768,1.8928,1.8532,1.8239,1.8031,1.7813,1.7728,1.7709,1.7501,1.7426,1.7331,1.65,1.5662,1.475,1.3591,1.2808,1.2082,1.0791,1.0238,1.0147,0.9992,0.9824,0.9639,0.9781,0.9384,0.8866,0.8567,0.0,0.9476,0.9917,1.048,1.1124,1.185,1.2149,1.2481,1.3214,1.3498,1.3756,1.4211,1.4536,1.478,1.4936,1.5215,1.535,1.5208,1.5438,1.5466,1.5038,1.5099,1.5242,0.0,1.4451,1.3994,1.4269,1.4293,1.4607,1.548,1.5364,1.5551,1.63,1.6015,1.6001,1.6293,1.63,1.6035,1.5886,1.632,1.6047,1.488,1.4617,1.4562,1.4672,1.4125,1.4071,1.3878,1.3749,1.3228,1.2536,1.2531,1.2914,1.3285,1.2576,1.2194,1.2162,0.0,0.0,0.0,0.0,0.0,0.0,0.0,0.0,0.0,0.0,0.0,0.0,0.0,0.0,0.0,0.0,1.0817,1.2149,1.359,1.5073,1.628,1.6982,1.7738,1.805,1.7851,1.805,1.8191,1.8258,1.8116,1.822,1.856,1.8645,1.8711,1.8777,1.8768,1.8569,1.8248,1.8172,1.7983,1.7709,1.7501,1.7189,1.6692,1.6299,1.518,1.377,0.0,1.1661,1.1112,1.031,0.9726,0.949,0.9571,0.9373,0.913,0.9089,0.918,0.9356,0.932,0.0,1.0911,1.1375,1.2251,1.282,1.2888,1.3169,1.3297,1.3329,1.3519,1.3736,1.4082,1.4312,1.4529,1.478,1.4991,1.5167,1.5316,1.5425,1.5357,1.5011,1.5187,0.0,0.0,0.0,0.0,1.5518,1.5557,1.5843,1.6232,1.6199,1.6192,1.6449,1.6354,1.6347,1.6449,1.6449,1.6292,1.6393,1.6287,1.5892,1.5634,1.5035,1.4727,1.4678,1.4738,1.4482,1.4277,1.4235,1.3586,1.2738,1.2858,1.283,1.2998,1.2411,1.2673,1.3151,0.0,0.0,0.0,0.0,0.0,0.0,0.0,0.0,0.0,0.0,0.0,0.0,0.0,0.0,0.0,0.0,0.0,1.1999,1.3104,1.4557,1.5545,1.6131,1.6783,1.7086,1.6982,1.702,1.719,1.7492,1.735,1.7615,1.8248,1.839,1.8494,1.8569,1.8692,1.8522,1.8125,1.805,1.787,1.7577,1.7067,1.6599,1.6174,1.54,1.4113,0.0,1.1263,1.0448,0.9748,0.9206,0.8934,0.8877,0.9092,0.9174,0.9284,0.888,0.9435,1.0105,1.0315,1.1176,1.2058,1.2663,1.3369,1.3975,1.3728,1.3767,1.3781,1.3714,1.3562,1.3451,1.381,1.3926,1.4139,1.4428,1.4901,1.5197,1.5364,1.5459,1.5404,1.516,1.5248,1.5276,0.0,0.0,0.0,1.611,1.6246,1.6347,1.6442,1.649,1.6524,1.6524,1.6524,1.6544,1.6605,1.6605,1.6632,1.6686,1.6313,1.6126,1.6119,1.577,1.5424,1.5291,1.5402,1.5331,1.5087,1.5138,1.4719,1.4065,1.3825,1.3586,1.3511,1.3268,1.356,1.3728,0.0,0.0,0.0,0.0,0.0,0.0,0.0,0.0,0.0,0.0,0.0,0.0,0.0,0.0,0.0,0.0,0.0,0.0,1.2937,1.3419,1.4194,1.5413,1.512,1.5309,1.6103,1.5536,1.5621,1.6415,1.6415,1.6934,1.7917,1.7946,1.8059,1.8248,1.8258,1.8021,1.7615,1.7426,1.7322,1.7209,1.6188,1.5649,1.5309,1.3892,1.258,1.1235,1.0072,0.907,0.8196,0.7721,0.7902,0.839,0.8568,0.9259,0.98,0.9399,1.0089,1.1024,1.1578,1.2182,1.2919,1.374,1.4192,1.4355,1.4174,1.4066,1.4052,1.4024,1.3443,1.3068,0.0,0.0,1.3683,1.4084,1.4785,1.5264,1.535,1.554,1.5581,0.0,0.0,0.0,0.0,0.0,0.0,1.5866,0.0,1.632,1.6334,1.6469,1.6551,1.6558,1.6564,1.6639,1.6781,1.6775,1.6842,1.6992,1.6836,1.6754,1.6748,1.6598,1.6456,1.632,1.632,1.6239,1.6123,1.6058,1.6038,1.6123,1.524,1.5001,1.5042,1.4775,1.4667,1.4423,0.0,0.0,0.0,0.0,0.0,0.0,0.0,0.0,0.0,0.0,0.0,0.0,0.0,0.0,0.0,0.0,0.0,0.0,1.1999,1.2796,1.3504,1.4137,1.4657,1.5035,1.5252,1.5243,1.5337,1.5545,1.5545,1.5772,1.6207,1.6509,1.6689,1.6745,1.6887,1.6727,1.633,1.6282,1.5989,1.5517,1.4941,1.4487,1.4071,1.324,1.2181,1.096,1.0012,0.9074,0.8164,0.8305,0.8731,0.9291,0.934,0.975,1.0349,1.0647,1.1348,1.2103,1.2529,1.3466,1.4361,1.4808,1.5123,1.5135,1.4885,1.439,1.3626,1.2958,1.2804,1.2484,0.0,0.0,0.0,1.3679,1.4331,0.0,1.535,1.554,0.0,0.0,0.0,1.5655,1.5588,1.5818,0.0,0.0,1.6266,1.6408,1.6625,1.6781,1.691,1.7019,1.7134,1.7209,1.7249,1.7134,1.71,1.7134,1.6992,1.6863,1.6748,1.6707,1.6612,1.6469,1.6463,1.6388,1.6051,1.6091,1.6018,1.609,1.5924,1.5917,1.5645,1.4769,1.4854,1.4996,0.0,0.0,0.0,0.0,0.0,0.0,0.0,0.0,0.0,0.0,0.0,0.0,0.0,0.0,0.0,0.0,0.0,0.0,0.0,1.2084,1.2616,1.3117,1.341,1.3655,1.3835,1.3684,1.3778,1.4156,1.4052,1.4307,1.4884,1.512,1.5281,1.5366,1.5479,1.5404,1.5167,1.4988,1.4704,0.0,0.0,1.3107,1.2663,1.1945,1.1123,1.0129,0.9454,0.9061,0.8773,0.0,0.0,1.0022,1.0257,1.0753,1.1318,1.1941,0.0,1.3216,1.386,1.4438,1.5054,1.5498,1.5516,1.5172,1.4541,1.3958,1.3411,1.2508,1.2107,0.0,1.1646,0.0,0.0,0.0,0.0,0.0,1.5432,1.5642,1.573,0.0,1.5791,0.0,1.5832,1.6042,1.6246,0.0,1.6463,1.6605,1.6836,1.6992,1.7141,1.729,1.7372,1.7419,1.7419,1.727,1.7195,1.7188,1.7046,1.6937,1.6849,1.6849,1.6768,1.6619,0.0,1.6503,1.6313,1.6165,1.6071,1.609,1.6151,1.6137,1.6042,1.5354,1.5248,1.5368,0.0,0.0,0.0,0.0,0.0,0.0,0.0,0.0,0.0,0.0,0.0,0.0,0.0,0.0,0.0,0.0,0.0,0.0,0.0,0.0,1.1728,1.2295,1.1945,1.1926,1.2351,1.1775,1.186,1.2644,1.2446,1.2843,1.3769,1.3788,1.3882,1.4024,1.4024,1.4024,1.3996,1.358,1.34,1.3315,1.2332,1.1699,1.1264,0.0,0.9795,0.9208,0.8897,0.908,0.9632,1.0136,1.0469,1.0769,1.1281,1.1939,1.2556,1.3114,1.3602,1.4239,1.4898,1.5116,1.5331,1.567,1.5383,1.485,1.3886,1.339,1.2899,1.2088,0.0,1.1135,1.1092,1.1755,1.2366,1.2683,0.0,1.509,1.5499,1.5737,1.59,1.609,1.5995,1.5981,1.6151,1.6293,1.6429,1.6571,1.6707,1.6849,1.6998,1.7148,1.7304,1.7473,1.748,1.7467,1.7453,1.7297,1.7216,1.7188,1.7046,1.6978,1.6978,1.6978,1.691,1.6781,0.0,0.0,1.6347,1.6259,1.6138,1.6096,1.6045,1.6205,1.6015,1.5744,1.5615,1.5499,0.0,0.0,0.0,0.0,0.0,0.0,0.0,0.0,0.0,0.0,0.9949,1.0104,0.0,0.0,0.0,0.0,0.0,0.0,0.0,0.0,0.0,1.1661,1.1435,1.1501,1.1917,1.1482,1.1491,1.1983,1.1945,1.2115,1.2465,1.2635,1.2644,1.2512,1.2512,1.2512,1.2493,1.2068,1.1898,1.1831,1.1132,1.0707,1.0433,0.9941,0.0,0.0,0.894,0.905,0.938,1.0296,1.1224,1.2052,1.2434,1.2775,1.3169,1.3753,1.3862,1.4102,1.4682,1.4961,1.5004,1.5324,1.5034,1.4369,1.3864,1.2817,0.0,0.0,1.0592,1.035,1.0391,1.1221,1.2023,1.2539,0.0,0.0,0.0,0.0,1.5825,0.0,0.0,0.0,0.0,0.0,0.0,0.0,0.0,0.0,1.7148,1.7297,1.7507,1.7772,1.7792,1.7724,1.7609,1.7885,1.7739,1.7188,1.7468,1.7398,1.6978,1.6978,1.6965,1.6931,0.0,0.0,1.6694,1.651,1.6347,1.6096,1.6252,1.6137,1.5872,1.5703,1.5479,1.5228,0.0,0.0,0.0,0.0,0.0,0.0,0.0,0.8984,0.9708,1.0773,1.0712,1.0653,1.1138,1.0932,1.0789,0.0,0.0,0.0,0.0,0.0,0.0,0.0,1.1246,1.1236,1.134,1.1028,0.0,0.0,0.0,1.1331,1.1652,0.0,0.0,1.1491,1.1378,1.1387,1.1463,1.1047,1.0934,1.0981,1.0461,1.013,0.9941,0.0,0.0,0.0,0.0,0.928,0.9786,1.0327,1.1374,1.2421,1.2811,1.3174,1.3378,1.4037,1.4207,1.4355,1.4847,1.4931,1.4922,1.5075,1.4401,1.3492,1.2934,0.0,0.0,0.0,0.9795,0.9468,0.9698,1.0559,0.0,1.1879,1.2869,1.3831,1.4808,0.0,0.0,0.0,0.0,0.0,0.0,0.0,0.0,0.0,0.0,0.0,1.7297,1.7528,1.7724,1.786,1.8095,1.8225,1.8079,1.8143,1.7981,1.7621,1.7468,1.7188,1.6978,1.6978,1.6978,1.6971,1.6815,0.0,1.6517,1.6442,1.6279,1.6083,1.6076,1.5981,1.5818,1.5513,1.5309,1.5153,0.0,0.0,0.0,0.0,0.0,0.0,0.0,0.9473,1.028,1.1402,1.1483,1.142,1.1475,1.1088,1.0877,0.0,0.0,0.0,0.0,0.0,0.0,0.0,0.0,0.0,0.0,0.0,0.0,0.0,0.0,0.0,0.0,0.0,0.0,0.0,0.0,0.0,1.0801,1.0433,1.0367,0.0,0.0,0.0,0.0,0.0,0.0,0.0,0.0,0.951,0.9967,1.0186,1.1056,1.2048,1.2374,1.2963,1.3465,1.3855,1.4179,1.4346,1.4762,1.4822,1.459,1.4555,1.3881,1.2773,1.1893,1.0871,0.0,0.9523,0.9068,0.8815,0.9147,0.0,1.0551,0.0,1.2088,1.3166,1.4306,1.478,1.5465,0.0,0.0,0.0,0.0,0.0,0.0,0.0,0.0,0.0,1.7351,1.7841,1.7998,1.8033,1.8459,1.8813,1.8683,1.8524,1.838,1.8046,1.7468,1.7202,1.7026,1.6992,1.6965,1.6924,1.6768,0.0,0.0,1.6556,1.6398,1.622,1.5934,1.5845,1.571,1.5323,1.514,1.5052,0.0,0.0,0.0,0.0,0.0,0.0,0.0,0.9614,1.0526,1.1287,1.1914,1.202,1.1664,1.1514,1.138,0.0,0.0,0.0,0.0,0.0,0.0,0.0,0.0,0.0,0.0,0.0,0.0,0.0,0.0,0.0,0.0,0.0,0.0,0.0,0.0,0.0,0.0,1.0367,0.0,0.0,0.0,0.0,0.0,0.0,0.0,0.0,0.0,0.0,0.9213,1.0002,0.0,1.0151,1.0678,1.1872,1.3105,1.3148,0.0,0.0,1.3797,1.4125,1.4041,1.3899,1.3308,1.2494,1.1423,0.0,0.9724,0.9133,0.8598,0.8522,0.9166,0.9328,0.0,0.0,0.0,1.2657,1.4116,1.4808,1.5581,1.6793,0.0,0.0,0.0,0.0,0.0,0.0,0.0,0.0,0.0,1.7794,1.8387,1.853,1.8835,1.897,1.8955,1.8999,1.8485,1.8046,1.7889,1.7461,1.7168,1.7039,1.6904,1.6761,0.0,0.0,0.0,1.7113,1.6928,1.6482,1.6213,1.5811,1.5432,1.5248,1.5011,1.4774,0.0,0.0,0.0,0.0,0.0,0.0,0.9324,0.9813,1.056,1.1752,1.1929,1.2014,1.2135,1.1924,1.1648,1.0987,0.0,0.0,0.0,0.0,0.0,0.0,0.0,0.0,0.0,0.0,0.0,0.0,0.0,0.0,0.0,0.0,0.0,0.0,0.0,0.0,0.0,0.0,0.0,0.0,0.0,0.0,0.0,0.0,0.0,0.0,0.0,0.0,0.0,0.0,0.0,0.0,0.96,1.0397,0.0,0.0,1.2793,1.3275,1.3512,1.3817,1.3994,1.3661,1.2949,1.2054,1.1274,0.0,0.9064,0.854,0.8167,0.7977,0.8433,0.8769,0.0,1.0276,0.0,0.0,1.3082,1.3798,1.4892,1.6651,0.0,0.0,0.0,0.0,0.0,0.0,0.0,0.0,0.0,1.866,1.8835,1.8805,1.9491,1.9623,1.9418,1.9137,1.8587,1.8186,1.7495,1.7078,1.6924,1.6775,1.6927,1.7141,0.0,0.0,0.0,1.7406,1.7232,1.7028,1.6405,1.5973,1.5626,1.519,1.478,1.4604,0.0,0.0,0.0,0.0,0.0,0.8562,0.9486,0.9929,1.0531,1.1787,1.1823,1.1943,1.2107,1.194,1.1515,1.095,1.0708,0.0,0.0,0.0,0.0,0.0,0.0,0.0,0.0,0.0,0.0,0.0,0.0,0.0,0.0,0.0,0.0,0.0,0.0,0.0,0.0,0.0,0.0,0.0,0.0,0.0,0.0,0.0,0.0,0.0,0.0,0.0,0.0,0.0,0.0,0.9272,0.8824,0.9184,1.0046,1.1226,1.2108,1.2786,1.322,1.36,1.3777,1.337,1.263,1.1708,0.0,0.0,0.8714,0.8209,0.7959,0.7849,0.8052,0.8404,0.8886,0.9639,1.0211,1.1038,1.2614,1.3447,1.4585,0.0,0.0,0.0,0.0,0.0,0.0,0.0,0.0,0.0,0.0,1.9425,1.9616,1.9287,1.9991,2.015,1.9954,1.9265,1.8731,1.8552,1.7203,1.6775,1.7016,1.6817,1.6967,1.7624,0.0,0.0,0.0,1.7863,1.7697,1.7524,1.678,1.6335,1.5832,1.5195,1.4819,1.4682,0.0,0.0,0.0,0.0,0.0,0.0,0.8991,0.9705,1.0412,1.1135,1.1549,1.1703,1.1516,1.1247,1.1167,1.1185,1.1152,0.0,0.0,0.0,0.0,0.0,0.0,0.0,0.0,0.0,1.1189,1.1189,1.1406,0.0,0.0,0.0,0.0,0.0,0.0,0.0,0.0,0.0,0.0,0.0,0.0,0.0,0.0,0.0,0.0,0.0,0.0,0.0,0.0,0.0,0.0,0.0,0.0,0.8594,0.9022,1.0521,1.1484,1.223,1.2976,1.3288,1.3336,1.3037,1.2393,1.1518,0.0,0.9586,0.9089,0.816,0.8119,0.821,0.8316,0.8384,0.873,0.949,1.0357,1.1504,1.292,1.3844,1.484,0.0,0.0,0.0,0.0,0.0,0.0,0.0,0.0,0.0,0.0,2.0409,2.0385,1.9742,2.0208,2.0418,2.0596,1.9361,1.8723,1.8887,1.7308,1.7037,1.7796,1.749,1.7466,0.0,0.0,0.0,0.0,1.8278,1.8107,1.7935,1.7185,1.6357,1.5682,1.5518,1.5362,1.5212,0.0,0.0,0.0,0.0,0.0,0.0,0.0,0.9482,0.9987,1.0724,1.0924,1.1156,1.146,1.1092,1.0974,1.1142,1.103,0.0,0.0,0.0,0.0,0.0,0.0,0.0,0.0,0.0,1.1482,1.1624,1.1841,1.2011,1.2143,1.186,0.0,0.0,0.0,0.0,0.0,0.0,0.0,0.0,0.0,0.0,0.0,0.0,0.0,0.0,0.0,0.0,0.0,0.0,0.0,0.0,0.0,0.0,0.0,0.9191,1.031,1.1375,1.1708,1.2135,1.2366,1.1857,1.1321,1.0683,0.9795,0.9126,0.8446,0.7841,0.7794,0.7828,0.7923,0.8241,0.8907,1.0116,1.0749,1.1665,0.0,0.0,0.0,0.0,0.0,0.0,0.0,0.0,0.0,0.0,0.0,0.0,0.0,2.0279,2.0409,2.0192,2.0474,2.0474,2.0409,1.9516,1.9184,1.9006,1.8196,1.7902,1.7945,1.7835,0.0,0.0,0.0,0.0,0.0,1.8866,1.8689,1.832,1.7756,1.7032,1.6453,1.6029,1.5838,1.5594,0.0,0.0,0.0,0.0,0.0,0.0,0.0,0.9192,0.961,1.028,1.0406,1.0763,1.1355,1.0997,1.088,1.1108,1.0919,0.0,0.0,0.0,0.0,0.0,0.0,0.0,0.0,1.1331,1.1614,1.2049,1.2191,1.229,1.2451,1.2299,1.1906,1.1299,0.0,0.0,0.0,0.0,0.0,0.0,0.0,0.0,0.9616,0.0,0.0,0.0,0.0,0.0,0.0,0.0,0.0,0.0,0.0,0.0,0.0,0.0,0.9286,1.0148,1.0744,1.1267,1.1538,1.1104,1.0836,1.0342,0.9586,0.9089,0.8557,0.8048,0.8008,0.8015,0.798,0.8383,0.0,0.0,0.0,0.0,0.0,0.0,0.0,0.0,0.0,0.0,0.0,0.0,0.0,0.0,0.0,0.0,0.0,0.0,2.0117,2.0117,2.0361,2.0434,2.032,1.9694,1.9384,1.9158,1.8526,1.8413,1.821,1.8274,0.0,0.0,0.0,0.0,0.0,1.8964,1.8736,1.8501,1.7938,1.7403,1.6829,1.6461,1.6285,1.5873,0.0,0.0,0.0,0.0,0.0,0.0,0.0,0.8861,0.925,0.9746,0.9888,1.0332,1.1202,1.0949,1.0833,1.1072,0.0,0.0,0.0,0.0,0.0,0.0,0.0,0.0,0.0,1.1227,1.1633,1.2436,1.2374,1.2488,1.2648,1.2983,1.2321,1.106,1.1008,0.0,0.0,0.0,0.0,0.0,0.0,0.9608,0.0,0.0,0.0,0.0,0.0,0.0,0.0,0.0,0.0,0.0,0.0,0.0,0.0,0.0,0.0,0.0,0.0,1.0548,1.0772,1.0616,1.0628,1.0348,0.9724,0.9396,0.0,0.8639,0.8627,0.8573,0.8319,0.0,0.0,0.0,0.0,0.0,0.0,0.0,0.0,0.0,0.0,0.0,0.0,0.0,0.0,0.0,0.0,0.0,0.0,0.0,1.9792,1.9792,2.0125,2.0304,2.0304,1.9887,1.9469,1.9454,1.8732,1.8564,1.8932,1.8621,0.0,0.0,0.0,0.0,0.0,1.8793,1.8509,1.816,1.7981,1.7333,1.6666,1.6666,1.6549,1.6401,0.0,0.0,0.0,0.0,0.0,0.0,0.0,0.0,0.0,0.0,0.9655,0.9981,1.0401,1.0259,1.0268,0.0,0.0,0.0,0.0,0.0,0.0,0.0,0.0,0.0,1.0904,1.1409,1.1926,1.2436,1.2701,1.2821,1.3058,1.303,1.2393,1.1563,1.1307,1.0635,0.0,0.0,0.0,0.0,0.9478,0.9421,0.0,0.0,0.0,0.0,0.8557,0.8319,0.0,0.0,0.0,0.0,0.0,0.0,0.0,0.0,0.7882,0.8038,0.8357,0.0,0.9374,0.9218,0.9356,0.9411,0.0,0.8895,0.0,0.0,0.0,0.0,0.0,0.0,0.0,0.0,0.0,0.0,0.0,0.0,0.0,0.0,0.0,0.0,0.0,0.0,0.0,0.0,0.0,0.0,0.0,0.0,1.9792,1.9792,2.0011,2.0125,2.0125,1.9919,1.9846,1.971,1.9766,1.9581,1.9187,1.9227,0.0,0.0,0.0,0.0,1.8972,1.8407,1.8121,1.816,1.7612,1.7333,1.721,1.721,1.7089,1.6928,0.0,0.0,0.0,0.0,0.0,0.0,0.0,0.0,0.0,0.0,0.0,0.9742,0.9914,1.0095,0.0,0.0,0.0,0.0,0.0,0.0,0.0,0.0,0.0,1.0863,1.0863,1.1363,1.1822,1.2219,1.2634,1.2849,1.3098,1.312,1.2666,1.169,1.1006,1.0378,0.9875,0.9682,0.9624,0.9616,0.9518,0.0,0.0,0.0,0.0,0.0,0.8627,0.8424,0.0,0.8449,0.8449,0.8216,0.0,0.0,0.0,0.0,0.7604,0.7624,0.7787,0.8466,0.9029,0.8946,0.9241,0.9496,0.925,0.9023,0.0,0.0,0.0,0.0,0.0,0.0,0.0,0.0,0.0,0.0,0.0,0.0,0.0,0.0,0.0,0.0,0.0,0.0,0.0,0.0,0.0,0.0,0.0,0.0,1.9662,1.9662,1.976,1.9857,1.9938,2.0028,1.9971,1.9792,1.9808,1.9654,1.9378,1.9386,0.0,0.0,0.0,0.0,1.8842,1.8383,1.807,1.7916,1.7373,1.7322,1.7266,1.7356,1.7323,1.7242,0.0,0.0,0.0,0.0,0.0,0.0,0.0,0.0,0.0,0.0,0.0,0.0,0.0,0.0,0.0,0.0,0.0,0.0,0.0,0.0,0.0,0.0,0.0,1.0857,1.0894,1.1269,1.1661,1.2055,1.2511,1.2758,1.2979,1.3473,1.2976,1.1727,1.0618,1.0035,0.9934,0.9674,0.9583,0.9583,0.9559,0.0,0.0,0.0,0.0,0.0,0.0,0.0,0.0,0.9056,0.8918,0.87,0.87,0.0,0.0,0.0,0.0,0.0,0.7792,0.8578,0.9226,0.9125,0.958,0.9906,0.9711,0.9395,0.0,0.0,0.0,0.0,0.0,0.0,0.0,0.0,0.0,0.0,0.0,0.0,0.0,0.0,0.0,0.0,0.0,0.0,0.0,0.0,0.0,0.0,0.0,0.0,0.0,1.9516,1.9516,1.9589,1.9743,1.9906,1.9906,1.9743,1.9589,1.95,1.9467,1.9321,1.9248,0.0,0.0,0.0,1.8663,1.8347,1.7989,1.7624,1.7486,1.7299,1.7128,1.7291,1.7348,1.7348,0.0,0.0,0.0,0.0,0.0,0.0,0.0,0.0,0.0,0.0,0.0,0.0,0.0,0.0,0.0,0.0,0.0,0.0,0.0,0.0,0.0,1.0665,1.0784,1.0941,1.1116,1.1346,1.1654,1.2265,1.2658,1.2847,1.2906,1.3825,1.3441,1.1928,1.0619,0.9824,0.9562,0.9427,0.9397,0.938,0.9234,0.0,0.0,0.0,0.0,0.0,0.0,0.0,0.0,0.8586,0.8691,0.8571,0.8571,0.0,0.0,0.0,0.0,0.0,0.7828,0.8742,0.9436,0.8877,0.9259,0.9704,0.9384,0.9307,0.0,0.0,0.0,0.0,0.0,0.0,0.0,0.0,0.0,0.0,0.0,0.0,0.0,0.0,0.0,0.0,0.0,0.0,0.0,0.0,0.0,0.0,0.0,0.0,0.0,1.9508,1.9516,1.9524,1.9557,1.9581,1.9581,1.9557,1.9524,1.9435,1.9297,1.9272,1.9175,0.0,0.0,1.8793,1.8485,1.8049,1.7723,1.764,1.7073,1.7047,1.7112,1.7145,1.7153,1.7153,0.0,0.0,0.0,0.0,0.0,0.0,0.0,0.0,0.0,0.0,0.0,0.0,0.0,0.0,0.0,0.0,0.0,0.0,0.0,0.0,1.0858,1.0484,1.0663,1.0762,1.0843,1.1245,1.17,1.2409,1.2847,1.3233,1.3339,1.3083,1.2534,1.1594,1.0302,0.963,0.9478,0.928,0.9218,0.921,0.0,0.0,0.0,0.0,0.0,0.0,0.0,0.0,0.0,0.0,0.8848,0.8901,0.8519,0.0,0.0,0.0,0.0,0.0,0.7724,0.8497,0.9314,0.9084,0.9774,1.0453,1.0198,0.9959,0.0,0.0,0.0,0.0,0.0,0.0,0.0,0.0,0.0,0.0,0.0,0.0,0.0,0.0,0.0,0.0,0.0,0.0,0.0,0.0,0.0,0.0,0.0,0.0,0.0,0.0,1.9925,1.9716,1.9516,1.9419,1.9378,1.9378,1.9378,1.9281,1.911,1.911,1.9013,1.8842,0.0,1.8606,1.8436,1.8054,1.7772,1.7632,1.7362,1.7226,1.7274,1.7364,1.7339,1.7258,0.0,0.0,0.0,0.0,0.0,0.0,0.0,0.0,0.0,0.0,0.0,0.0,0.0,0.0,0.0,0.0,0.0,0.0,0.0,0.0,1.0475,1.0184,1.0454,1.0747,1.1012,1.1397,1.1898,1.2525,1.31,1.3526,1.3919,1.2447,1.1585,1.1141,0.9981,0.9301,0.9183,0.905,0.8999,0.9031,0.0,0.0,0.0,0.0,0.0,0.0,0.0,0.0,0.0,0.0,0.0,0.0,0.0,0.0,0.0,0.7989,0.7731,0.7699,0.7893,0.8474,0.9135,0.9556,1.0309,1.0997,1.1078,0.0,0.0,0.0,0.0,0.0,0.0,0.0,0.0,0.0,0.0,0.0,0.0,0.0,0.0,0.0,0.0,0.0,0.0,0.0,0.0,0.0,0.0,0.0,0.0,0.0,0.0,0.0,2.0041,1.9817,1.9451,1.924,1.9175,1.9256,1.9216,1.9118,1.898,1.8939,1.8826,1.8655,1.8509,1.8428,1.8363,1.8046,1.7811,1.7624,1.7453,1.7364,1.7339,1.7469,1.7437,1.7323,0.0,0.0,0.0,0.0,0.0,0.0,0.0,0.0,0.0,0.0,0.0,0.0,0.0,0.0,0.0,0.0,0.0,0.0,0.0,0.0,0.9783,0.9503,1.0019,1.0809,1.1994,1.1731,1.2006,1.275,1.3439,1.3863,1.4121,1.2526,1.1483,1.1018,0.9689,0.882,0.8357,0.8528,0.8698,0.8828,0.8666,0.0,0.0,0.0,0.0,0.0,0.0,0.0,0.0,0.0,0.0,0.0,0.0,0.0,0.8722,0.859,0.8261,0.8005,0.8667,0.9099,0.9377,1.0031,1.0222,0.0,1.1273,1.1045,0.0,1.1524,0.0,0.0,0.0,0.0,0.0,0.0,0.0,0.0,0.0,0.0,0.0,0.0,0.0,0.0,0.0,0.0,0.0,0.0,0.0,0.0,0.0,0.0,0.0,0.0,0.0,1.9102,1.9272,1.8939,1.8931,1.9256,1.9086,1.8996,1.8972,1.8818,1.8647,1.8468,1.846,1.8355,1.8184,1.7997,1.7811,1.7624,1.7453,1.7283,1.7128,1.7145,1.7136,1.7128,0.0,0.0,0.0,0.0,0.0,0.0,0.0,0.0,0.0,0.0,0.0,0.0,0.0,0.0,0.0,0.0,0.0,0.0,0.0,0.9405,0.9486,0.9432,0.9863,1.0418,1.1209,1.167,1.2325,1.3325,1.3654,1.3712,1.3602,1.1896,1.0933,1.057,0.937,0.8812,0.8625,0.8698,0.8763,0.8804,0.8633,0.8576,0.0,0.0,0.0,0.0,0.0,0.0,0.0,0.0,0.8591,0.8906,0.8559,0.8753,0.9021,0.8613,0.8317,0.8225,0.8475,0.8973,0.9533,1.0028,1.0453,0.0,0.0,1.1931,1.2199,1.2816,0.0,0.0,0.0,0.0,0.0,0.0,0.0,0.0,0.0,0.0,0.0,0.0,0.0,0.0,0.0,0.0,0.0,0.0,0.0,0.0,0.0,0.0,0.0,0.0,0.0,1.975,1.8931,1.8793,1.8793,1.8923,1.8858,1.8761,1.8655,1.8582,1.8452,1.8282,1.8282,1.8241,1.816,1.7989,1.7811,1.7624,1.7453,1.7274,1.7128,1.7242,1.721,1.7112,0.0,0.0,0.0,0.0,0.0,0.0,0.0,0.0,0.0,0.0,0.0,0.0,0.0,0.0,0.0,0.0,0.0,0.0,0.8999,0.897,0.8993,0.9169,0.9527,0.9998,1.0599,1.1492,1.2373,1.3244,1.3561,1.3404,1.2759,1.146,1.065,1.0348,0.9378,0.8991,0.8982,0.8869,0.8787,0.8723,0.8552,0.8406,0.0,0.0,0.0,0.0,0.0,0.0,0.0,0.0,0.836,0.8762,0.8436,0.88,0.9226,0.8798,0.8591,0.8641,0.8527,0.8938,0.9527,1.0039,0.0,0.0,1.2264,1.2743,1.3189,1.3847,0.0,0.0,0.0,0.0,0.0,0.0,0.0,0.0,0.0,0.0,0.0,0.0,0.0,0.0,0.0,0.0,0.0,0.0,0.0,0.0,0.0,0.0,0.0,0.0,0.0,1.9722,1.8639,1.8582,1.855,1.855,1.855,1.8517,1.8452,1.8395,1.8298,1.8176,1.8176,1.8144,1.8079,1.79,1.7689,1.7461,1.7348,1.7226,1.7128,1.725,1.7218,1.7112,0.0,0.0,0.0,0.0,0.0,0.0,0.0,0.0,0.0,0.0,0.0,0.0,0.0,0.0,0.0,0.0,0.0,0.0,0.8886,0.8553,0.8446,0.8804,0.9161,0.9689,1.0404,1.1305,1.1939,1.2304,1.2731,1.2566,1.1829,1.1388,1.0932,1.0439,0.9698,0.9356,0.9332,0.8974,0.8723,0.8552,0.8365,0.8292,0.8268,0.0,0.0,0.0,0.0,0.0,0.0,0.0,0.8122,0.8381,0.8635,0.8901,0.9104,0.9096,0.9218,0.9315,0.9137,0.9226,0.9535,0.0,0.0,0.0,1.3051,1.3384,1.3636,1.4538,0.0,0.0,0.0,0.0,0.0,0.0,0.0,0.0,0.0,0.0,0.0,0.0,0.0,0.0,0.0,0.0,0.0,0.0,0.0,0.0,0.0,0.0,0.0,0.0,0.0,0.0,1.8452,1.8265,1.8176,1.8176,1.8176,1.8273,1.8444,1.8257,1.8176,1.8176,1.8176,1.807,1.79,1.7713,1.7429,1.7112,1.7112,1.7112,1.7112,1.7112,1.7112,1.7112,0.0,0.0,0.0,0.0,0.0,0.0,0.0,0.0,0.0,0.0,0.0,0.0,0.0,0.0,0.0,0.0,0.0,0.0,0.8246,0.8098,0.813,0.8625,0.8861,0.9137,0.9486,1.0249,1.1306,1.2557,1.2473,1.2183,1.1793,1.1,1.0611,1.0365,0.9895,0.9518,0.9177,0.9194,0.9023,0.8739,0.8682,0.8511,0.8284,0.0,0.0,0.0,0.0,0.0,0.0,0.0,0.0,0.0,0.8537,0.8971,0.9397,0.9015,0.912,0.9267,0.8836,0.9315,0.0,0.0,0.0,0.0,0.0,1.4115,0.0,0.0,0.0,0.0,0.0,0.0,0.0,0.0,0.0,0.0,0.0,0.0,0.0,0.0,0.0,0.0,0.0,0.0,0.0,0.0,0.0,0.0,0.0,0.0,0.0,0.0,0.0,0.0,1.938,1.9199,1.9173,1.9294,1.8922,1.8582,1.8257,1.82,1.8363,1.8735,1.8601,1.8702,1.8817,1.8304,1.7679,1.7112,1.7112,1.7112,1.7112,1.7112,1.7112,1.7112,0.0,0.0,0.0,0.0,0.0,0.0,0.0,0.0,0.0,0.0,0.8251,0.8178,0.0,0.0,0.0,0.0,0.0,0.0,0.0,0.7894,0.8,0.8544,0.8666,0.8934,0.9397,0.9973,1.0808,1.1693,1.1816,1.1673,1.1298,1.1138,1.0911,1.0627,1.0535,1.0233,0.973,0.9689,0.9348,0.8828,0.8901,0.8593,0.8097,0.0,0.0,0.0,0.0,0.0,0.0,0.0,0.0,0.0,0.8308,0.869,0.9064,0.8877,0.9072,0.9332,0.9226,0.0,0.0,0.0,0.0,0.0,0.0,0.0,0.0,0.0,0.0,0.0,0.0,0.0,0.0,0.0,0.0,0.0,0.0,0.0,0.0,0.0,0.0,0.0,0.0,0.0,0.0,0.0,0.0,0.0,0.0,0.0,0.0,0.0,0.0,0.0,1.9437,1.9332,1.9332,1.9437,1.907,1.8702,1.8518,1.8223,1.8256,1.8803,1.8715,1.8785,1.913,1.8466,1.7873,1.7189,1.7438,1.7247,1.7015,1.7088,1.7112,1.7112,0.0,0.0,0.7634,0.7959,0.0,0.0,0.0,0.0,0.0,0.0,0.7992,0.7992,0.0,0.0,0.0,0.0,0.0,0.0,0.0,0.0,0.8016,0.8544,0.8617,0.9007,0.9795,1.0128,1.0244,1.0201,1.0828,1.0941,1.0593,1.1368,1.1518,1.1042,1.1339,1.1126,1.055,1.0209,0.9567,0.8787,0.8991,0.8568,0.7845,0.817,0.0,0.0,0.0,0.0,0.0,0.0,0.0,0.0,0.8008,0.8154,0.8373,0.8682,0.9072,0.9502,0.9965,0.0,0.0,0.0,0.0,0.0,0.0,0.0,0.0,0.0,0.0,0.0,0.0,0.0,0.0,0.0,0.0,0.0,0.0,0.0,0.0,0.0,0.0,0.0,0.0,0.0,0.0,0.0,0.0,0.0,0.0,0.0,0.0,0.0,0.0,0.0,1.9086,1.9068,1.9068,0.0,1.8905,1.8905,1.8914,1.8367,1.8251,1.8758,1.8945,1.8956,1.8752,1.8567,1.8209,1.7552,1.7729,1.7347,1.6868,1.7031,1.7096,1.7112,0.0,0.0,0.7927,0.8,0.0,0.0,0.0,0.0,0.0,0.0,0.0,0.0,0.0,0.0,0.0,0.0,0.0,0.0,0.0,0.0,0.8138,0.8552,0.8966,0.921,0.9267,0.9202,0.9225,0.9418,1.01,1.0408,1.0384,1.0946,1.1059,1.0814,1.0964,1.055,0.9632,0.9421,0.8966,0.843,0.8747,0.8601,0.8187,0.826,0.804,0.0,0.0,0.0,0.0,0.0,0.0,0.0,0.7967,0.8243,0.8495,0.8422,0.9056,0.9738,0.9575,1.0412,0.0,0.0,0.0,0.0,0.0,0.0,0.0,0.0,0.0,0.0,0.0,0.0,0.0,0.0,0.0,0.0,0.0,0.0,0.0,0.0,0.0,0.0,0.0,0.0,0.0,0.0,0.0,0.0,0.0,0.0,0.0,1.9934,2.0055,1.983,1.9094,1.9303,1.9303,0.0,1.8733,1.8561,1.8561,1.8776,1.8888,1.9276,1.9729,1.9591,1.9084,1.8885,1.8432,1.8052,1.775,1.7396,1.7371,1.6893,1.6998,1.7088,0.0,0.0,0.0,0.0,0.0,0.0,0.0,0.0,0.0,0.0,0.0,0.0,0.0,0.0,0.0,0.0,0.0,0.0,0.0,0.0,0.813,0.8666,0.9039,0.9194,0.9096,0.8917,0.8827,0.8811,0.9225,0.9723,1.0192,1.0653,1.0874,1.0826,1.0834,1.0379,0.9592,0.9332,0.8909,0.8463,0.8901,0.8706,0.817,0.826,0.8016,0.7618,0.7537,0.0,0.0,0.0,0.0,0.0,0.0,0.0,0.8008,0.8422,0.8885,0.938,0.9965,0.0,0.0,1.3271,0.0,0.0,0.0,0.0,0.0,0.0,0.0,0.0,0.0,0.0,0.0,0.0,0.0,0.0,0.0,0.0,0.0,0.0,0.0,0.0,0.0,0.0,0.0,0.0,0.0,0.0,0.0,2.0384,2.0159,1.9524,1.9508,1.9277,1.8673,1.8751,1.8796,1.8813,1.8644,1.8592,1.869,1.8769,1.8831,1.9077,1.9606,1.954,1.9266,1.9154,1.8712,1.8291,1.8049,1.769,1.7281,1.7024,1.6951,1.6844,0.0,0.0,0.0,0.0,0.0,0.0,0.0,0.0,0.0,0.0,0.0,0.0,0.0,0.0,0.0,0.0,0.0,0.0,0.0,0.0,0.0,0.8747,0.8982,0.908,0.9047,0.8836,0.8599,0.8321,0.8545,0.9091,1.0,1.0526,1.0841,1.0964,1.0777,1.0355,0.977,0.938,0.8909,0.8471,0.8934,0.8658,0.7992,0.817,0.791,0.7423,0.7277,0.7439,0.7795,0.7795,0.0,0.0,0.0,0.0,0.7504,0.8455,0.8698,0.8966,1.0355,0.0,1.232,1.4153,1.5234,0.0,0.0,0.0,0.0,0.0,0.0,0.0,0.0,0.0,0.0,0.0,0.0,0.0,0.0,0.0,0.0,0.0,0.0,0.0,0.0,0.0,0.0,0.0,0.0,0.0,2.0129,2.011,1.984,1.9287,1.8949,1.8515,1.7991,1.7991,1.8078,1.8244,1.8244,1.8485,1.8641,1.8468,1.8551,1.8781,1.9128,1.9297,1.9297,1.9259,1.8969,1.8496,1.8493,1.7953,1.7161,1.7146,1.6883,1.6576,0.0,0.0,0.0,0.0,0.0,0.0,0.0,0.0,0.0,0.0,0.7748,0.7748,0.0,0.7748,0.7748,0.7724,0.7724,0.7675,0.7561,0.0,0.0,0.8593,0.8917,0.9023,0.8861,0.8703,0.8572,0.859,0.8556,0.9024,0.9895,1.0272,1.0623,1.0964,1.0777,1.0217,0.9397,0.8885,0.8365,0.7886,0.8105,0.8032,0.7813,0.7983,0.7724,0.7261,0.7236,0.7434,0.776,0.7598,0.797,0.0,0.0,0.0,0.0,0.8312,0.8674,0.9137,0.0,0.0,1.2906,0.0,1.5043,1.5474,0.0,0.0,0.0,0.0,0.0,0.0,0.0,0.0,0.0,0.0,0.0,0.0,0.0,0.0,0.0,0.0,0.0,0.0,0.0,0.0,0.0,0.0,0.0,0.0,1.9694,1.9675,1.9409,1.8694,1.8657,1.8139,1.7281,1.746,1.7298,1.682,1.7153,1.7561,1.7715,1.8085,1.867,1.9128,1.9297,1.9297,1.9288,1.9099,1.9004,1.881,1.8005,1.7662,1.7478,1.6659,1.6438,1.656,0.0,0.0,0.0,0.0,0.0,0.0,0.0,0.0,0.0,0.0,0.0,0.7862,0.7772,0.7845,0.7902,0.7902,0.7715,0.7618,0.7634,0.7951,0.8219,0.8406,0.856,0.8609,0.8528,0.8353,0.8296,0.8296,0.8279,0.8865,0.987,1.0125,1.0543,1.0948,1.0461,0.9908,0.9315,0.8682,0.8162,0.778,0.8057,0.8122,0.804,0.8081,0.7948,0.7774,0.0,0.0,0.0,0.0,0.0,0.8561,0.8514,0.0,0.0,0.0,0.8562,0.9018,1.0609,1.1872,1.3103,0.0,1.5077,1.5496,1.6051,0.0,0.0,0.0,0.0,0.0,0.0,0.0,0.0,0.0,0.0,0.0,0.0,0.0,0.0,0.0,0.0,0.0,0.0,0.0,0.0,0.0,0.0,1.9826,1.9609,1.9599,1.9278,1.8457,1.8448,1.8103,1.7423,1.7432,1.7483,1.7256,1.7756,1.7998,1.7978,1.8477,1.88,1.8947,1.8947,1.8947,1.8938,1.8843,1.8739,1.8636,1.8092,1.7572,1.7164,1.6774,1.6377,1.6267,0.0,0.0,0.0,0.0,0.0,0.0,0.0,0.0,0.0,0.0,0.0,0.7764,0.7634,0.0,0.0,0.0,0.7545,0.7496,0.7675,0.7805,0.7959,0.8146,0.8154,0.8154,0.8154,0.8098,0.8024,0.7951,0.8277,0.8996,1.0059,1.0518,1.0874,1.1323,1.0526,0.9973,0.951,0.8747,0.8251,0.8057,0.8238,0.8336,0.8276,0.8397,0.0,0.848,0.7983,0.0,0.0,0.0,0.0,0.0,0.0,0.0,0.0,0.0,0.0,0.0,0.0,0.0,1.2611,1.4111,1.4813,1.5294,0.0,0.0,0.0,0.0,0.0,0.0,0.0,0.0,0.0,0.0,0.0,0.0,0.0,0.0,0.0,0.0,0.0,0.0,0.0,0.0,0.0,0.0,0.0,1.9666,1.9448,1.9439,1.9109,1.8422,1.8238,1.8072,1.7731,1.7565,1.7645,1.7794,1.8235,1.8302,1.8165,1.8604,1.8654,1.8522,1.8636,1.8673,1.8673,1.8673,1.8579,1.8447,1.7891,1.7548,1.6982,1.6588,1.6328,1.6048,0.0,0.0,0.0,0.0,0.0,0.0,0.0,0.0,0.0,0.0,0.0,0.7261,0.7253,0.7261,0.7196,0.7097,0.7147,0.7317,0.7488,0.7504,0.7594,0.778,0.7789,0.0,0.7789,0.8171,0.8162,0.7772,0.8945,0.9908,1.0681,1.1437,1.2107,1.2445,1.152,1.0769,1.0063,0.9169,0.0,0.0,0.0,0.0,0.8341,0.0,0.0,0.0,0.0,0.0,0.0,0.0,0.0,0.0,0.0,0.0,0.0,0.0,0.0,0.0,0.0,1.0792,0.0,1.3285,1.4121,0.0,0.0,0.0,0.0,0.0,0.0,0.0,0.0,0.0,0.0,0.0,0.0,0.0,0.0,0.0,0.0,0.0,0.0,0.0,0.0,0.0,0.0,0.0,0.0,1.924,1.9023,1.9004,1.891,1.8702,1.8192,1.8019,1.8019,1.7536,1.7381,1.739,1.7693,1.7755,1.7745,1.8023,1.8087,1.8106,1.8503,1.8673,1.8673,1.8673,1.8664,1.8636,1.7476,1.7188,1.7328,1.617,1.5894,1.6048,0.0,0.0,0.0,0.0,0.0,0.0,0.0,0.0,0.0,0.0,0.0,0.0,0.0,0.7293,0.7244,0.7293,0.7253,0.7204,0.7147,0.7147,0.722,0.7407,0.7415,0.7548,0.7819,0.7974,0.8112,0.8145,0.8765,0.9535,1.0423,1.1194,1.1824,1.2199,1.1524,1.0899,1.0257,0.9099,0.0,0.0,0.0,0.0,0.0,0.0,0.0,0.0,0.0,0.0,0.0,0.0,0.0,0.0,0.0,0.0,0.0,0.0,0.0,0.0,0.0,0.0,0.0,1.28,1.3673,1.4362,0.0,0.0,0.0,0.0,0.0,0.0,0.0,0.0,0.0,0.0,0.0,0.0,0.0,0.0,0.0,0.0,0.0,0.0,0.0,0.0,0.0,0.0,0.0,0.0,1.8985,1.8976,1.8881,1.8683,1.851,1.851,1.851,1.8346,1.8118,1.798,1.8068,1.8126,1.7836,1.792,1.805,1.8059,1.821,1.8276,1.8276,1.8276,1.8276,1.8116,1.736,1.71,1.7008,1.6253,1.5991,1.6048,0.0,0.0,0.0,0.0,0.0,0.0,0.0,0.0,0.0,0.0,0.0,0.0,0.0,0.0,0.7204,0.7382,0.7236,0.7106,0.7049,0.7056,0.7178,0.7286,0.7368,0.7534,0.7872,0.7949,0.8086,0.8286,0.8809,0.9407,1.0325,1.1152,1.1684,1.2134,1.1441,1.0971,0.0,0.0,0.0,0.8827,0.0,0.0,0.9407,0.0,0.0,0.0,0.0,0.0,0.0,0.0,0.0,0.0,0.0,0.0,0.0,0.0,0.0,0.0,0.9662,0.0,0.0,0.0,1.3161,1.3837,1.4973,0.0,0.0,0.0,0.0,0.0,0.0,0.0,0.0,0.0,0.0,0.0,0.0,0.0,0.0,0.0,0.0,0.0,0.0,0.0,0.0,0.0,0.0,0.0,1.8881,1.8872,1.8815,1.8683,1.8673,1.8673,1.8673,1.8673,1.8569,1.8352,1.8286,1.8144,1.7936,1.787,1.7842,1.7842,1.7842,1.7917,1.805,1.805,1.8087,1.7995,1.7422,1.7199,1.7315,1.6512,1.627,1.6534,0.0,0.0,0.0,0.0,0.0,0.0,0.0,0.0,0.0,0.6684,0.0,0.0,0.0,0.0,0.0,0.722,0.7066,0.7105,0.7204,0.7258,0.7377,0.7499,0.7729,0.79,0.8102,0.8331,0.8331,0.8111,0.9082,0.9854,1.0278,1.1288,1.1884,1.209,1.1244,1.125,1.1748,0.0,1.0143,0.9844,0.0,1.0027,0.9998,0.0,0.0,0.0,1.2028,1.1996,0.0,0.0,0.0,0.0,0.0,0.0,0.0,0.0,0.0,0.0,0.0,0.0,0.0,0.0,0.0,0.0,1.5302,0.0,0.0,0.0,0.0,0.0,0.0,0.0,0.0,0.0,0.0,0.0,0.0,0.0,0.0,0.0,0.0,0.0,0.0,0.0,0.0,0.0,0.0,1.8664,1.8673,1.8673,1.8673,1.8664,1.8673,1.8673,1.8654,1.8664,1.855,1.8333,1.8135,1.7927,1.7709,1.752,1.7426,1.7426,1.7426,1.7653,1.8031,1.804,1.8163,1.8324,1.764,1.7645,1.7946,1.7084,1.7021,1.7319,0.0,0.0,0.0,0.0,0.0,0.0,0.6703,0.0,0.6871,0.0,0.0,0.0,0.7147,0.7484,0.7651,0.7711,0.769,0.7543,0.7313,0.7276,0.7329,0.752,0.766,0.7974,0.8322,0.8408,0.8548,0.8783,0.903,0.9274,0.9602,1.0376,1.0868,1.1082,1.126,1.1132,1.0821,0.9687,0.0,0.0,1.0117,1.0396,0.0,0.0,0.0,0.0,0.0,1.2936,0.0,0.0,1.2285,1.134,0.0,0.0,0.0,0.0,0.0,0.0,0.9044,0.0,0.0,0.0,0.0,0.0,1.3082,1.3658,0.0,0.0,0.0,0.0,0.0,0.0,0.0,0.0,0.0,0.0,0.0,0.0,0.0,0.0,0.0,0.0,0.0,0.0,0.0,0.0,1.8409,1.8513,1.8664,1.8673,1.8607,1.8447,1.8598,1.8532,1.822,1.8371,1.8258,1.7898,1.7842,1.7709,1.7501,1.7454,1.7426,1.7426,1.7426,1.7492,1.7615,1.7757,1.7936,1.8125,1.7585,1.7472,1.7554,1.6977,1.6845,1.6933,0.0,0.0,0.702,0.6937,0.0,0.7105,0.707,0.7007,0.7017,0.0,0.0,0.0,0.7534,0.8233,0.8486,0.8164,0.8111,0.79,0.7397,0.7486,0.7539,0.7593,0.7925,0.8234,0.8681,0.8598,0.8653,0.9025,0.893,0.8996,0.9214,0.9752,1.0074,1.0206,1.0575,1.0631,1.0386,0.0,0.0,0.0,1.0635,0.0,0.0,1.268,1.3166,0.0,0.0,0.0,1.3769,1.3769,1.2965,0.0,0.0,0.0,0.0,0.0,0.0,0.0,0.0,0.0,0.0,0.0,0.0,0.0,1.2814,1.3173,1.3693,0.0,0.0,0.0,0.0,0.0,0.0,0.0,0.0,0.0,0.0,0.0,0.0,0.0,0.0,0.0,0.0,0.0,0.0,1.821,1.8305,1.8409,1.8532,1.8541,1.8447,1.8229,1.8352,1.8295,1.805,1.8172,1.8059,1.7728,1.7728,1.7624,1.7426,1.7426,1.7426,1.7426,1.7426,1.7473,1.7558,1.7681,1.7804,1.7917,1.7594,1.765,1.7557,1.7317,1.7178,1.7241,0.0,0.0,0.744,0.7313,0.7237,0.7368,0.7526,0.7335,0.7237,0.0,0.7333,0.7569,0.8295,0.9258,0.9472,0.8684,0.8622,0.8344,0.7654,0.7771,0.7815,0.7833,0.8253,0.8618,0.9015,0.8855,0.8864,0.9053,0.8845,0.8836,0.9034,0.9384,0.0,0.9545,0.9545,0.9752,1.0055,0.0,0.0,1.0122,1.1502,1.2128,0.0,0.0,1.4241,0.0,1.477,1.4742,1.444,1.4345,1.3419,0.0,0.0,0.0,0.0,0.0,0.9771,0.0,0.0,0.0,0.0,0.0,0.0,0.0,1.3249,1.3287,1.3372,0.0,0.0,0.0,0.0,0.0,0.0,0.0,0.0,0.0,0.0,0.0,0.0,0.0,0.0,0.0,0.0,1.7709,1.7785,1.7993,1.8201,1.8324,1.8324,1.8324,1.822,1.8021,1.804,1.8031,1.7974,1.8002,1.7908,1.769,1.769,1.7596,1.7426,1.7426,1.7426,1.7426,1.7426,1.753,1.769,1.769,1.7709,1.7728,1.7728,1.7832,1.7955,1.7766,1.7813,1.7955,0.7636,0.7483,0.7445,0.7643,0.7691,0.7699,0.7918,0.7959,0.818,0.8615,0.8965,0.949,1.0277,1.0222,1.0086,0.9931,0.9489,0.8987,0.8476,0.8217,0.8084,0.8262,0.8533,0.876,0.9015,0.9138,0.9223,0.9271,0.9063,0.8978,0.0,0.893,0.0,0.8883,0.8883,0.893,0.9053,0.0,0.0,1.096,1.1409,0.0,1.3629,1.4156,1.4591,1.5007,1.513,1.5233,1.5215,0.0,1.3901,1.3183,0.0,0.0,0.0,0.0,0.0,0.0,0.0,0.0,0.0,0.0,0.0,0.0,1.1444,1.1794,1.2342,0.0,0.0,0.0,0.0,0.0,0.0,0.0,0.0,0.0,0.0,0.0,0.0,0.0,0.0,0.0,0.0,1.7577,1.7568,1.7776,1.7983,1.8106,1.8106,1.8106,1.8012,1.7794,1.7955,1.7889,1.7549,1.7709,1.7681,1.7483,1.7483,1.7464,1.7426,1.7426,1.7426,1.7426,1.7426,1.7445,1.7483,1.7483,1.7577,1.7728,1.7728,1.7653,1.7539,1.7501,1.7511,1.7539,0.7566,0.7671,0.79,0.7966,0.8167,0.8555,0.8931,0.899,0.9216,0.9696,1.0278,1.066,1.0854,1.0854,1.0744,1.022,0.9705,0.9227,0.8737,0.8403,0.8288,0.8401,0.859,0.8902,0.9327,0.9409,0.9456,0.9488,0.9417,0.9203,0.0,0.8942,0.0,0.0,0.8911,0.9034,0.9346,0.0,1.0338,1.1274,1.2219,0.0,1.4374,1.4884,1.5271,1.5574,1.6058,1.6351,1.6431,1.5453,1.4984,0.0,0.0,1.3059,1.298,0.0,1.2082,1.224,0.0,0.0,0.0,1.1688,0.0,0.0,0.0,1.2001,1.2382,1.3458,0.0,0.0,0.0,0.0,0.0,0.0,0.0,0.0,0.0,0.0,0.0,0.0,0.0,0.0,0.0,1.7679,1.7538,1.8162,1.8387,1.8465,1.8358,1.8048,1.7894,1.7577,1.7721,1.7587,1.7265,1.7473,1.753,1.7426,1.7426,1.7426,1.7426,1.7426,1.7426,1.7426,1.7426,1.7426,1.7426,1.7426,1.7426,1.7426,1.753,1.752,1.7426,1.7426,1.7273,1.7111,0.7485,0.7943,0.8349,0.819,0.8626,0.913,0.9648,0.9713,0.9837,1.0387,1.1171,1.1485,1.1189,0.0,0.0,0.0,1.0036,0.9592,0.0,0.0,0.0,0.8581,0.8694,0.9044,0.963,0.9727,0.9679,0.9609,0.9587,0.932,0.8837,0.9048,0.0,0.0,0.0,0.0,0.0,0.0,0.0,1.1942,0.0,1.4099,1.4496,1.5394,1.5744,1.5939,1.6739,1.7384,1.7541,1.651,0.0,1.6012,1.4748,1.4595,0.0,0.0,0.0,0.0,0.0,0.0,0.0,0.0,0.0,1.2435,0.0,0.0,0.0,1.3608,0.0,0.0,0.0,0.0,0.0,0.0,0.0,0.0,0.0,0.0,0.0,0.0,0.0,0.0,0.0,1.7438,1.7351,1.817,1.822,1.822,1.822,1.7908,1.7592,1.7243,1.7283,1.7246,1.7105,1.7237,1.735,1.7426,1.7388,1.736,1.736,1.736,1.7341,1.7312,1.735,1.7341,1.7312,1.735,1.7237,1.7067,1.7331,1.7398,1.7369,1.7407,1.7121,1.6959,0.815,0.8171,0.8271,0.8566,0.879,0.8956,0.9279,0.9455,0.9793,1.04,1.1411,1.1971,0.0,0.0,0.0,0.0,0.0,0.0,1.0112,0.0,0.0,0.9214,0.9072,0.9275,0.9882,0.9872,0.9761,0.9557,0.9439,0.9321,0.9213,0.8894,0.0,0.0,0.935,0.0,0.0,0.0,1.2102,0.0,1.437,1.4103,0.0,1.4855,1.53,1.5404,1.6632,1.7484,1.7834,0.0,1.6722,1.6399,0.0,1.5309,0.0,0.0,0.0,0.0,0.0,0.0,0.0,0.0,1.3507,0.0,0.0,0.0,1.2735,1.2597,0.0,0.0,0.0,0.0,0.0,0.0,0.0,0.0,0.0,0.0,0.0,0.0,0.0,0.0,0.0,0.0,1.6167,1.6959,1.6349,1.6263,1.6987,1.7025,1.6849,1.6802,1.6849,1.6953,1.7105,1.6953,1.7057,1.7426,1.7237,1.7142,1.7142,1.7142,1.7048,1.6887,1.7067,1.7038,1.6887,1.7067,1.702,1.6878,1.7275,1.7312,1.7161,1.736,1.7426,1.7273,0.7827,0.7994,0.8245,0.8617,0.8937,0.9347,1.0122,1.0904,1.1429,1.1578,1.2206,0.0,0.0,0.0,0.0,0.0,0.0,0.0,0.0,0.0,0.0,0.0,0.0,0.0,0.0,1.0288,1.0161,0.9767,0.9874,0.9662,0.9309,0.9416,0.9677,0.0,1.0288,0.0,1.1905,0.0,0.0,0.0,0.0,0.0,0.0,1.5781,1.6768,1.7178,1.7847,1.8508,1.898,0.0,1.7802,0.0,0.0,0.0,0.0,0.0,0.0,0.0,0.0,0.0,0.0,0.0,0.0,0.0,0.0,0.0,1.2829,0.0,0.0,0.0,0.0,0.0,0.0,0.0,0.0,0.0,0.0,0.0,0.0,0.0,0.0,0.0,0.0,0.0,0.0,0.0,0.0,1.6372,1.7122,1.6991,1.6856,1.6721,1.6816,1.6783,1.6745,1.6783,1.6887,1.7067,1.6972,1.6925,1.6925,1.6925,1.6887,1.6812,1.6897,1.6878,1.6812,1.6897,1.6812,1.6651,1.6953,1.7076,1.7133,1.735,1.7273,1.6959,0.773,0.8017,0.8413,0.869,0.911,0.9638,1.049,1.1557,0.0,0.0,0.0,0.0,1.325,1.3389,0.0,0.0,0.0,1.2987,0.0,0.0,1.1323,0.0,0.0,0.0,0.0,0.0,1.0419,0.9978,1.0069,0.9932,0.9581,0.9839,1.0274,0.0,0.0,1.2083,1.3236,0.0,0.0,1.4241,1.4945,1.5318,1.5484,1.6807,1.7816,1.856,1.8623,1.9117,1.9542,1.8789,1.8487,0.0,1.7873,0.0,0.0,0.0,0.0,0.0,1.558,0.0,0.0,0.0,0.0,0.0,0.0,0.0,0.0,0.0,0.0,0.0,0.0,0.0,0.0,0.0,0.0,0.0,0.0,0.0,0.0,0.0,0.0,0.0,0.0,0.0,0.0,0.0,0.0,0.0,1.6708,1.6685,1.6613,1.6506,1.6587,1.6585,1.6481,1.6585,1.6689,1.6802,1.6745,1.6717,1.6717,1.6717,1.6689,1.6642,1.6689,1.6689,1.6642,1.6689,1.6594,1.6424,1.6632,1.684,1.7048,1.7256,1.7217,1.6959,0.822,0.8492,0.0,0.0,0.0,0.0,0.0,0.0,0.0,0.0,0.0,0.0,0.0,0.0,0.0,0.0,0.0,1.4761,1.3719,0.0,1.2433,0.0,0.0,0.0,0.0,0.0,0.0,0.0,0.9827,0.9865,1.0293,0.9905,1.0295,0.0,0.0,1.319,1.4425,1.4874,1.6247,1.7906,1.7486,1.7992,1.8806,0.0,1.7672,1.8581,1.8801,0.0,0.0,1.8864,1.8616,0.0,0.0,0.0,0.0,0.0,0.0,0.0,0.0,0.0,0.0,1.5649,0.0,0.0,0.0,0.0,1.4327,0.0,0.0,0.0,0.0,0.0,0.0,1.3456,0.0,0.0,0.0,0.0,0.0,0.0,0.0,0.0,0.0,0.0,0.0,0.0,0.0,0.0,1.5186,1.547,1.5678,1.5867,1.6084,1.6292,1.6481,1.6301,1.6405,1.6802,1.6594,1.649,1.649,1.649,1.6386,1.6216,1.6405,1.6386,1.6216,1.6415,1.6377,1.6216,1.6415,1.6623,1.684,1.7038,1.7246,1.7273,0.8928,0.0,0.0,0.0,0.0,0.0,0.0,1.0726,0.0,0.0,0.0,0.0,0.0,0.0,1.597,0.0,0.0,1.6145,1.4855,1.4371,0.0,0.0,0.0,1.2236,0.0,0.0,0.0,0.0,0.0,0.0,1.0781,1.0614,1.108,0.0,0.0,1.4104,0.0,0.0,0.0,0.0,0.0,1.8412,1.9564,0.0,0.0,1.9255,1.949,1.9426,0.0,1.9467,1.9015,1.8433,1.8714,1.8085,1.7543,1.8095,1.8028,0.0,0.0,0.0,1.8519,1.7054,0.0,0.0,0.0,0.0,0.0,0.0,0.0,0.0,0.0,0.0,1.3954,1.3538,1.3356,0.0,0.0,0.0,0.0,0.0,0.0,0.0,0.0,0.0,0.0,0.0,0.0,0.0,0.0,1.5366,1.5649,1.5848,1.5933,1.6075,1.6282,1.6216,1.6254,1.6396,1.632,1.6282,1.6282,1.6282,1.6245,1.6188,1.6254,1.6245,1.6188,1.6254,1.6245,1.6188,1.6254,1.6405,1.6613,1.6831,1.7123,1.7273,0.9488,0.0,0.0,0.0,0.0,0.0,0.0,0.0,0.0,0.0,1.3924,0.0,1.5663,0.0,1.6954,0.0,1.7406,1.7066,1.572,1.5483,0.0,1.503,1.4101,0.0,0.0,0.0,0.0,0.0,0.0,1.1434,1.175,1.1488,1.1882,1.2863,0.0,1.4852,1.6252,0.0,1.7636,0.0,0.0,1.9025,0.0,0.0,1.9575,1.9531,0.0,1.9639,1.9402,1.9553,1.9279,1.8714,1.9074,1.86,1.8195,1.8755,1.8687,1.844,1.8787,1.9312,0.0,1.8256,1.7758,0.0,1.5626,0.0,0.0,0.0,0.0,0.0,0.0,0.0,0.0,1.4243,1.3696,1.2845,0.0,1.1345,0.0,0.0,0.0,0.0,0.0,0.0,0.0,0.0,0.0,0.0,0.0,0.0,1.5319,1.5526,1.5744,1.5895,1.5961,1.6112,1.6141,1.6065,1.615,1.6178,1.6178,1.6178,1.6178,1.6178,1.6178,1.6141,1.6075,1.615,1.6141,1.6075,1.615,1.6301,1.65,1.6642,1.6953,1.7322,0.0,0.0,0.0,0.0,0.9958,0.0,0.0,0.0,1.3495,0.0,1.5038,1.6266,1.697,1.7321,1.7647,1.811,1.8142,0.0,1.6495,1.6409,0.0,0.0,1.5456,1.5299,1.5643,0.0,0.0,0.0,0.0,0.0,1.318,1.2496,1.2665,1.3505,1.4283,0.0,1.6761,1.7716,1.8778,1.9844,1.9844,1.9854,2.0016,1.9865,0.0,1.9564,1.979,1.9575,1.9187,1.9187,1.9315,1.9337,1.9082,1.9127,1.921,1.9347,1.9358,1.9278,1.9669,1.9726,1.9554,1.9229,0.0,0.0,0.0,0.0,1.7567,0.0,0.0,0.0,0.0,0.0,0.0,1.549,1.4267,1.2973,1.1564,0.0,0.0,0.0,0.0,0.0,0.0,0.0,0.0,0.0,0.0,0.0,0.0,0.0,1.4695,1.4922,1.5517,1.5744,1.5564,1.5961,1.6065,1.5867,1.6075,1.6178,1.6178,1.6178,1.6178,1.6178,1.6178,1.6065,1.5895,1.6093,1.6065,1.5895,1.6103,1.6301,1.6481,1.65,1.6755,1.7123,1.0196,1.0417,1.0557,0.0,1.009,1.012,0.0,0.0,0.0,0.0,1.5877,1.7234,1.7938,1.8301,1.8745,1.8864,1.8875,0.0,0.0,0.0,0.0,1.8018,1.7462,1.7097,1.7219,1.5919,0.0,1.5151,0.0,0.0,1.3509,1.3108,1.3176,1.3545,0.0,0.0,1.7014,1.7792,1.8778,1.9844,1.9844,2.0266,0.0,0.0,2.0538,2.095,2.0702,2.0536,2.0579,2.0579,2.0286,2.0014,2.0048,1.9922,1.9876,2.0438,2.0568,2.0638,2.1198,2.1126,2.0936,2.0874,2.0179,1.934,0.0,0.0,0.0,0.0,0.0,0.0,0.0,0.0,0.0,0.0,1.3456,0.0,0.0,0.0,0.0,0.0,0.0,0.0,0.0,0.0,0.0,0.0,0.0,0.0,0.0,0.0,0.0,1.4912,1.5233,1.5441,1.5564,1.581,1.5914,1.5867,1.6075,1.6178,1.6178,1.6178,1.6178,1.6178,1.6178,1.615,1.6103,1.616,1.615,1.6103,1.616,1.6301,1.6519,1.6831,1.6916,1.6934,1.093,0.0,0.0,1.163,0.0,0.0,1.2242,0.0,0.0,1.5251,1.6571,0.0,1.8282,1.8724,1.9181,1.9569,1.9337,0.0,0.0,0.0,0.0,1.909,1.887,1.8792,1.87,1.7608,0.0,1.6476,0.0,0.0,1.4433,1.3808,1.3727,1.4044,0.0,1.5716,1.7044,1.8417,1.957,2.0303,2.0252,0.0,0.0,2.0638,2.0977,2.1742,2.1437,2.1197,2.0911,2.1026,2.0796,2.0399,2.0544,2.0415,2.0345,2.0886,2.1018,2.1102,2.1909,2.1848,2.1679,2.1788,2.1281,2.0581,1.9917,1.9796,1.97,0.0,0.0,0.0,0.0,0.0,0.0,0.0,0.0,0.0,0.0,0.0,0.0,0.0,0.0,0.0,0.0,0.0,0.0,0.0,0.0,0.0,0.0,0.0,0.0,1.4515,1.4988,1.5252,1.529,1.5668,1.5819,1.5734,1.6037,1.6178,1.6178,1.6178,1.6178,1.6178,1.6178,1.6075,1.5923,1.6112,1.6075,1.5933,1.6112,1.6254,1.6405,1.6821,1.6906,1.6868,0.0,0.0,0.0,0.0,0.0,0.0,0.0,1.4579,0.0,1.6523,0.0,1.8276,1.8675,1.8975,1.9437,2.0386,0.0,1.9588,1.9554,2.0163,2.026,1.9717,2.0142,2.0304,2.005,1.9434,0.0,0.0,0.0,0.0,1.5323,1.4406,1.4205,1.4652,0.0,0.0,0.0,1.9404,2.0455,2.0637,2.0519,2.0793,2.1185,2.091,2.1437,2.2048,2.2083,2.165,2.0992,2.1164,2.1067,2.0781,2.071,2.0697,2.0859,2.1064,2.116,2.1378,2.2114,2.2126,2.1981,2.2247,2.2114,2.1728,2.0991,2.0617,2.0424,2.0388,1.9736,1.9362,0.0,0.0,0.0,0.0,0.0,0.0,0.0,0.0,0.0,0.0,0.0,0.0,0.0,0.0,0.0,0.0,0.0,0.0,0.0,0.0,0.0,1.4005,1.4752,0.0,1.4931,0.0,1.5734,1.5564,1.598,1.6178,1.6178,1.6178,1.6178,1.6178,1.6178,1.5961,1.563,1.6018,1.5971,1.5678,1.6037,1.6197,1.6264,1.6632,1.6764,1.6831,0.0,0.0,0.0,0.0,0.0,1.5635,1.6567,1.7315,1.8125,1.863,1.9776,0.0,2.0672,2.0637,2.0739,2.0923,2.0889,0.0,0.0,0.0,0.0,2.1078,2.1354,2.1414,2.0871,1.9893,1.8988,0.0,0.0,0.0,1.4855,1.4612,1.4469,1.4441,1.4894,0.0,1.8182,1.9461,0.0,2.0832,2.0513,2.0995,2.1654,2.1033,2.1284,2.2071,2.2283,2.2449,2.2625,2.2241,2.2025,2.1981,2.1402,2.1523,2.1631,2.1462,2.1716,2.2126,2.2488,2.2392,2.2259,2.2512,2.238,2.2102,2.174,2.1462,2.1209,2.0967,2.0143,1.9316,1.906,0.0,0.0,0.0,0.0,0.0,0.0,0.0,0.0,0.0,0.0,0.0,0.0,0.0,0.0,0.0,0.0,0.0,0.0,0.0,0.0,0.0,1.4487,0.0,0.0,0.0,1.5593,1.5564,1.598,1.6178,1.6178,1.6178,1.6178,1.6178,1.6178,1.6037,1.5829,1.6075,1.6141,1.6084,1.615,1.6282,1.6443,1.6509,1.6538,1.6623,0.0,0.0,0.0,0.0,0.0,0.0,0.0,1.9823,0.0,1.9542,1.9895,2.0416,2.0561,2.0773,2.1061,2.1648,2.1382,2.1312,2.1769,2.1888,2.2001,2.1897,2.2005,0.0,2.1486,2.0702,1.97,1.8493,0.0,0.0,0.0,1.4592,1.4472,1.4564,1.5767,1.7268,0.0,0.0,0.0,2.1557,2.1532,2.1893,2.2424,2.1969,2.221,2.2567,2.2686,2.2805,2.2802,2.2549,2.2198,2.1836,2.1716,2.1764,2.1848,2.1716,2.1957,2.2259,2.2247,2.215,2.2054,2.2042,2.2054,2.1993,2.1728,2.1571,2.1402,2.1112,2.0503,1.9819,1.8879,1.7481,0.0,0.0,0.0,0.0,0.0,0.0,0.0,0.0,0.0,0.0,0.0,0.0,0.0,0.0,0.0,0.0,0.0,0.0,0.0,0.0,0.0,0.0,0.0,0.0,0.0,1.5394,1.5958,1.6158,1.6018,1.6263,1.6461,1.6461,1.6461,1.6477,1.6421,1.6389,1.6225,1.6178,1.6178,1.6245,1.6349,1.6566,1.6509,1.6405,0.0,1.5615,0.0,0.0,1.8275,0.0,0.0,2.1402,2.181,2.0402,2.0144,2.0285,2.0568,2.0834,2.1425,2.2247,2.1817,2.1793,2.2247,2.2367,2.2404,2.2343,2.2404,2.2307,2.2042,2.151,2.0448,0.0,0.0,0.0,0.0,0.0,0.0,0.0,0.0,0.0,0.0,0.0,2.1824,2.2313,2.2413,2.2769,2.2997,2.2839,2.2768,2.2889,2.3043,2.2874,2.2657,2.2657,2.2198,2.1667,2.1824,2.1909,2.1945,2.1885,2.2054,2.2211,2.2005,2.1909,2.1824,2.1619,2.1679,2.1728,2.1523,2.1438,2.1329,2.11,2.081,2.0195,1.8915,1.7974,0.0,0.0,0.0,0.0,0.0,0.0,0.0,0.0,0.0,0.0,0.0,0.0,0.0,0.0,0.0,0.0,0.0,0.0,0.0,0.0,0.0,1.4421,1.4799,0.0,1.5281,0.0,1.6118,1.6322,1.6005,1.6496,1.6705,1.6806,1.6666,1.6708,1.6827,1.6421,1.6269,1.6178,1.6178,1.6178,1.6226,1.6547,1.6462,1.6226,0.0,0.0,0.0,0.0,0.0,0.0,0.0,2.1402,2.2223,2.2126,2.2114,2.2114,2.2114,2.2174,2.2235,2.2259,2.2452,2.2488,2.2271,2.2705,2.2862,2.2621,2.285,2.285,2.2585,2.2066,2.1003,0.0,0.0,0.0,0.0,0.0,0.0,0.0,0.0,0.0,0.0,2.1016,2.1905,2.2353,2.24,2.2565,2.2764,2.2541,2.2447,2.2579,2.2889,2.2721,2.22,2.2657,2.2452,2.215,2.1933,2.2029,2.2174,2.1933,2.2054,2.2259,2.2235,2.2054,2.186,2.1836,2.1679,2.151,2.1486,2.1281,2.1088,2.1064,2.0665,1.9977,1.8891,1.9181,1.9108,0.0,0.0,0.0,0.0,0.0,0.0,0.0,0.0,0.0,0.0,0.0,0.0,0.0,0.0,0.0,0.0,0.0,0.0,1.3088,0.0,1.4147,1.4364,1.5139,1.5432,1.5243,1.6263,1.6607,1.6431,1.6637,1.6777,1.7015,1.6589,1.6441,1.6421,1.6135,1.5989,1.6178,1.6178,1.6178,1.6188,1.6226,1.6216,1.6188,0.0,0.0,0.0,0.0,0.0,0.0,0.0,2.215,2.27,2.301,2.2603,2.2319,2.2476,2.25,2.2561,2.2718,2.2826,2.2838,2.2742,2.2923,2.2995,2.2887,2.2983,2.3068,2.3128,2.2609,2.1704,0.0,0.0,0.0,0.0,0.0,0.0,0.0,0.0,1.9845,2.0895,2.18,2.2457,2.2984,2.3139,2.327,2.3353,2.3246,2.3115,2.2972,2.3128,2.2961,2.2709,2.2705,2.2476,2.2247,2.2138,2.2283,2.244,2.2186,2.2295,2.2428,2.2114,2.1945,2.1836,2.1679,2.1679,2.1631,2.1305,2.1269,2.1221,2.0895,2.0653,2.0327,1.9748,1.9507,1.9289,0.0,0.0,0.0,0.0,0.0,0.0,0.0,0.0,0.0,0.0,0.0,0.0,0.0,0.0,0.0,0.0,0.0,0.0,1.2654,0.0,1.4175,1.4506,1.5205,1.5586,1.551,1.6157,1.6431,1.6245,1.6578,1.6685,1.6747,1.6897,1.6747,1.6607,1.6467,1.6375,1.6178,1.6178,1.6178,1.6197,1.632,1.6282,1.6197,2.0423,0.0,2.0219,0.0,2.1695,2.1783,2.2928,2.3175,2.3261,2.3678,2.3277,2.2863,2.3047,2.2919,2.2992,2.334,2.3426,2.3593,2.3507,2.3499,2.3561,2.363,2.3393,0.0,2.3721,2.3271,2.2554,2.1414,2.0367,0.0,0.0,0.0,0.0,0.0,2.0124,2.112,2.1873,2.2669,2.3225,2.3587,2.3852,2.3913,2.384,2.384,2.3731,2.3562,2.3562,2.3393,2.314,2.2947,2.2657,2.2367,2.2283,2.2392,2.25,2.2319,2.2392,2.2452,2.209,2.1933,2.1824,2.1643,2.1679,2.1631,2.116,2.1209,2.1221,2.0762,2.0665,2.0593,2.0327,1.9869,1.9567,1.9639,0.0,0.0,0.0,0.0,0.0,0.0,0.0,1.3668,1.2416,0.0,0.0,0.0,0.0,0.0,0.0,0.0,0.0,0.0,0.0,0.0,0.0,1.5481,1.5827,1.582,1.639,1.6529,1.639,1.6758,1.6917,1.6787,1.6927,1.6927,1.6646,1.6564,1.6452,1.632,1.6178,1.632,1.6339,1.6339,1.6301,1.6207,2.2111,2.1988,2.2082,2.3393,2.3774,2.3845,2.3858,2.41,2.4176,2.3909,2.41,2.4111,2.3649,2.3661,2.3661,2.3661,2.4377,2.457,2.429,2.434,2.4514,0.0,0.0,2.4,2.4492,2.4194,2.3495,2.2247,0.0,0.0,1.9434,0.0,2.0385,2.0984,2.1939,2.2584,2.2693,2.349,2.384,2.3864,2.413,2.4082,2.384,2.384,2.384,2.384,2.384,2.3671,2.3442,2.3442,2.3092,2.2609,2.2343,2.2259,2.2259,2.2259,2.2259,2.2259,2.2259,2.2066,2.1873,2.1873,2.1679,2.1414,2.1124,2.1064,2.0991,2.0726,2.0665,2.0593,2.0327,2.0484,2.0303,1.9253,0.0,0.0,0.0,0.0,0.0,0.0,1.3892,1.2598,1.2173,0.0,0.0,0.0,0.0,0.0,0.0,0.0,0.0,1.3022,1.4246,0.0,1.4827,1.5932,1.6419,1.5984,1.684,1.7193,1.7203,1.7423,1.7261,1.6995,1.657,1.6421,1.6441,1.6234,1.6461,1.6593,1.632,1.6461,1.6593,1.632,1.6188,1.6178,2.346,2.3351,2.3301,2.4071,2.4044,2.3998,2.4367,2.4507,2.4751,2.5166,2.4956,2.4863,2.5165,2.4516,2.4009,0.0,2.4464,2.4635,0.0,2.5046,2.5135,2.5003,2.4949,2.51,2.5248,2.497,2.4447,2.3982,0.0,0.0,0.0,2.171,2.2061,2.2509,2.3042,2.3532,2.3744,2.3997,2.4214,2.4383,2.4468,2.4456,2.4383,2.4383,2.4263,2.4106,2.4106,2.3937,2.3659,2.3297,2.3056,2.2838,2.2404,2.2259,2.2295,2.2476,2.2404,2.2295,2.2476,2.2331,2.2138,2.2138,2.2078,2.1897,2.145,2.1064,2.0774,2.069,2.081,2.0859,2.0593,2.0762,2.0702,2.0014,1.9893,0.0,0.0,0.0,0.0,0.0,0.0,1.3622,0.0,1.2501,0.0,0.0,0.0,0.0,0.0,0.0,0.0,0.0,1.4941,0.0,1.5633,1.6651,1.7011,1.684,1.7159,1.7096,1.6818,1.6877,1.6777,1.6506,1.6365,1.6225,1.6225,1.6433,1.6593,1.6734,1.6885,1.6885,1.6734,1.6593,1.6461,1.6178,2.439,2.4143,2.4074,2.4697,2.4644,2.4765,2.5114,2.5257,2.5505,2.5898,2.5687,2.5555,2.5596,2.5046,0.0,2.5097,2.5181,2.5327,2.5749,2.5667,2.5628,2.5607,2.5455,2.5558,2.5545,0.0,0.0,2.4685,2.4176,2.3856,2.3581,2.3864,2.4137,2.4351,2.4617,2.4937,2.5022,2.4857,2.479,2.4948,2.4782,2.4721,2.4625,2.4625,2.4468,2.4238,2.4238,2.4009,2.3647,2.3309,2.3068,2.2838,2.2512,2.2343,2.2295,2.2452,2.2392,2.2295,2.2464,2.238,2.2259,2.2259,2.2259,2.2126,2.1595,2.1136,2.0786,2.069,2.0798,2.0859,2.0702,2.0798,2.081,2.0472,2.0038,1.9519,1.8915,0.0,0.0,0.0,0.0,0.0,0.0,1.3453,0.0,0.0,0.0,0.0,0.0,0.0,0.0,1.4371,1.5792,0.0,1.6491,1.7275,1.7558,1.7328,1.7431,1.7177,1.7037,1.6836,1.6593,1.6461,1.6461,1.6461,1.6461,1.6734,1.7017,1.7157,1.7308,1.7298,1.7157,1.7017,1.6793,1.6586,2.4733,2.4728,0.0,0.0,2.5558,0.0,2.5985,2.6213,2.6293,2.6026,2.6226,2.6122,2.5374,2.5583,2.6029,2.617,0.0,0.0,0.0,2.6281,2.6149,2.6453,2.5685,2.5525,2.5977,2.5964,2.5503,2.4905,2.4931,2.5229,2.5951,2.6226,2.6209,2.6248,2.6509,2.6631,2.6401,2.5899,2.5719,2.5731,2.524,2.4914,2.4685,2.4661,2.4492,2.4263,2.4226,2.3888,2.3442,2.3406,2.3068,2.2645,2.2633,2.2452,2.2259,2.2283,2.2271,2.2259,2.2283,2.2271,2.2259,2.2259,2.2247,2.2102,2.1619,2.1281,2.0991,2.075,2.0678,2.0665,2.0665,2.0665,2.0653,2.0617,1.9965,1.9362,1.9036,0.0,0.0,0.0,0.0,0.0,0.0,1.4396,1.4492,0.0,0.0,0.0,0.0,0.0,1.4396,1.5441,1.6592,1.7203,1.7224,1.7855,1.8003,1.7766,1.7581,1.7548,1.742,1.6917,1.6734,1.6734,1.6734,1.6734,1.6734,1.7168,1.759,1.7861,1.7449,1.759,1.7861,1.7449,1.7298,1.7047,0.0,0.0,2.5107,2.5317,2.5531,2.5772,2.6213,2.6346,2.636,2.6293,2.6346,2.636,2.6135,2.6188,2.6441,2.6945,2.6558,2.6426,2.6814,2.7012,2.7131,2.7068,2.7105,2.6954,2.6905,2.6892,2.6746,2.6294,2.6518,2.6706,2.656,2.6865,2.6954,2.6848,2.6913,2.6762,2.6694,2.6174,2.6004,2.6004,2.5507,2.5301,2.5228,2.5023,2.477,2.448,2.4082,2.3731,2.3393,2.2983,2.2754,2.2621,2.2416,2.2307,2.2295,2.25,2.2416,2.2307,2.25,2.2416,2.2259,2.2259,2.2114,2.1933,2.18,2.1402,2.104,2.0979,2.081,2.0665,2.0665,2.0665,2.0533,2.0134,1.9736,1.9157,1.8287,1.772,0.0,0.0,1.6216,1.5939,1.5353,1.5434,1.5319,0.0,0.0,0.0,0.0,1.575,1.6188,1.6562,1.7459,1.7866,1.7876,1.8239,1.8186,1.7844,1.7757,1.7498,1.6937,1.6705,1.6734,1.6734,1.6734,1.6875,1.7168,1.759,1.7861,1.7861,1.8012,1.8012,1.7861,1.7721,1.748,1.7248,2.5772,2.589,2.5882,2.606,2.6348,2.6635,2.6963,2.7018,2.686,2.6702,2.6824,2.6706,2.64,2.6627,2.6867,2.7054,2.6759,2.6558,2.7014,2.7321,2.7375,2.7081,2.7348,2.7428,2.7268,2.7268,2.7255,2.7228,2.7388,2.7455,2.7428,2.7589,2.7583,2.7574,2.7574,2.7486,2.7461,2.6953,2.6613,2.6443,2.5933,2.5604,2.5421,2.5277,2.4975,2.4589,2.4299,2.3876,2.3393,2.2971,2.2826,2.279,2.2524,2.2524,2.2645,2.279,2.2561,2.2295,2.244,2.2367,2.2259,2.2259,2.2299,2.2313,2.1897,2.1643,2.1402,2.1281,2.104,2.0847,2.0847,2.075,2.0496,1.9977,1.9555,1.9,1.8179,1.7732,0.0,1.7068,1.7041,1.6973,1.6715,1.6589,1.622,1.5631,0.0,0.0,1.6086,1.6872,1.7324,1.7335,1.7927,1.825,1.825,1.8229,1.8153,1.8153,1.7731,1.7439,1.7298,1.7116,1.7116,1.7026,1.7268,1.7399,1.759,1.8012,1.8142,1.8153,1.8293,1.8293,1.8142,1.8142,1.7934,1.7765,2.6399,2.656,2.6654,2.671,2.7186,2.7577,2.7633,2.7633,2.7476,2.7175,2.7409,2.7333,2.6797,2.7055,2.7297,2.7136,2.7122,2.7068,2.7321,2.7375,2.7281,2.7028,2.7268,2.7402,2.7402,2.7402,2.7495,2.7696,2.7749,2.7869,2.8083,2.8123,2.8136,2.8136,2.8136,2.8136,2.8136,2.7643,2.7304,2.6796,2.6273,2.5933,2.5592,2.5519,2.5203,2.4778,2.4656,2.4182,2.3575,2.3332,2.3389,2.3316,2.3132,2.3206,2.3353,2.3353,2.3035,2.2518,2.2331,2.2445,2.2408,2.2259,2.2558,2.2794,2.2129,2.1897,2.1812,2.1583,2.1317,2.1112,2.1064,2.0986,2.0622,1.9917,1.9374,1.8945,1.8251,0.0,1.7612,1.7793,1.772,1.7789,1.7878,1.7599,1.72,1.6741,1.7161,1.7195,0.0,1.7647,1.8013,1.783,1.8218,1.8455,1.8487,1.8237,1.8237,1.8346,1.7783,1.7642,1.7924,1.7694,1.7694,1.7561,1.8,1.8101,1.8054,1.8304,1.8433,1.8433,1.8433,1.8433,1.8433,1.8433,1.828,1.8195,2.6546,2.6686,2.6865,2.6668,2.7018,2.7339,2.7591,2.7633,2.7633,2.7476,2.7518,2.7629,2.7852,2.795,2.8039,2.8194,2.8071,2.8084,2.7629,2.7869,2.7989,2.7936,2.7976,2.8003,2.8003,2.8003,2.7909,2.7696,2.7949,2.7963,2.7776,2.803,2.8136,2.8136,2.8136,2.8136,2.8136,2.7643,2.7487,2.7304,2.6443,2.6273,2.6575,2.5595,2.5537,2.5703,2.4983,2.4642,2.4528,2.449,2.4313,2.4162,2.4351,2.4275,2.4124,2.4124,2.4061,2.3794,2.2961,2.2729,2.2707,2.2408,2.2558,2.2843,2.236,2.2029,2.186,2.1824,2.1595,2.1341,2.11,2.1114,2.0823,1.9783,1.934,1.884,1.7708,0.0,1.7744,1.7563,1.8336,1.8776,1.8442,1.8221,1.7995,1.8083,1.7467,1.7303,1.7841,1.8013,1.8164,1.8315,1.839,1.853,1.8724,1.8784,1.8651,1.8164,1.8164,1.7878,1.7725,1.7765,1.8011,1.8446,1.8289,1.8338,1.8713,1.8519,1.8433,1.8433,1.8433,1.8433,1.8433,1.8433,1.8455,1.8357,2.6923,2.7213,2.7531,2.753,2.7845,2.8089,2.8232,2.8261,2.8261,2.7961,2.8103,2.81,2.8081,2.8249,2.8298,2.8426,2.8606,2.8689,2.8359,2.8311,2.8238,2.8257,2.8392,2.8487,2.8487,2.8305,2.807,2.7936,2.807,2.807,2.7936,2.8083,2.823,2.839,2.8217,2.823,2.8377,2.8047,2.7812,2.7487,2.6965,2.6796,2.6745,2.6171,2.5931,2.5893,2.5346,2.5053,2.4926,2.4926,2.4939,2.4964,2.4926,2.4939,2.4939,2.4786,2.4418,2.4023,2.3441,2.3367,2.3451,2.3005,2.3154,2.3451,2.3005,2.2757,2.267,2.267,2.2313,2.2042,2.1901,2.1505,2.0997,2.046,1.9633,0.0,0.0,1.8594,1.8557,1.8582,1.9279,1.9638,1.9388,1.8982,1.868,1.8642,1.8039,1.7861,1.8067,1.8099,1.8196,1.8422,1.8552,1.8616,1.8595,1.8545,1.8545,1.8322,1.817,1.8028,1.8028,1.8296,1.8349,1.8471,1.8492,1.8571,1.8584,1.8476,1.8433,1.8433,1.8433,1.8433,1.8433,1.8433,1.8433,1.8455,2.7408,2.773,2.8052,2.8373,2.8695,2.8886,2.8886,2.8886,2.8744,2.8431,2.8705,2.8776,2.8514,2.874,2.8748,2.8832,2.9057,2.9184,2.9019,2.8646,2.8547,2.8662,2.8868,2.8992,2.8992,2.8642,2.8473,2.8473,2.8305,2.8305,2.8305,2.8318,2.827,2.8484,2.8243,2.827,2.8484,2.8243,2.7981,2.7643,2.7474,2.7266,2.7006,2.662,2.6364,2.6259,2.604,2.5821,2.5654,2.5706,2.5834,2.5937,2.5706,2.5744,2.5821,2.5525,2.4933,2.4353,2.4124,2.4057,2.4013,2.3616,2.389,2.3987,2.354,2.354,2.3527,2.3464,2.2978,2.2764,2.262,2.2115,2.1383,2.1047,0.0,0.0,0.0,1.9475,1.9499,1.9774,2.0166,2.0367,2.0112,1.9757,1.9376,1.897,1.8699,1.8402,1.8239,1.8207,1.825,1.8433,1.8659,1.8745,1.8681,1.8524,1.8492,1.8605,1.8312,1.8312,1.8605,1.8789,1.8799,1.8681,1.8756,1.8713,1.8595,1.8476,1.8466,1.8509,1.8455,1.8433,1.8433,1.8433,1.8433,1.8466,2.7408,2.773,2.8052,2.8373,2.8695,2.8886,2.8886,2.8886,2.8886,2.8886,2.9178,2.9486,2.9793,2.9851,2.9821,2.9635,2.9692,2.9528,2.9019,2.9313,2.9481,2.9453,2.9467,2.9481,2.9481,2.9481,2.9481,2.9481,2.8992,2.8824,2.8824,2.8318,2.815,2.8177,2.815,2.8163,2.8177,2.815,2.815,2.815,2.7643,2.7486,2.7569,2.7057,2.7026,2.7268,2.7241,2.7215,2.7241,2.7509,2.7442,2.7228,2.7201,2.7028,2.66,2.6321,2.6159,2.567,2.4624,2.4353,2.4501,2.4303,2.4328,2.4285,2.3983,2.3833,2.3756,2.3502,2.3426,2.3324,2.3057,2.2834,2.2177,2.1206,0.0,0.0,1.9824,1.989,2.0157,2.0462,2.0718,2.0786,2.0786,2.0323,1.9912,1.9623,1.9206,1.8898,1.8724,1.853,1.8422,1.8433,1.8659,1.8993,1.9413,1.9219,1.8966,1.9101,1.8955,1.8955,1.9101,1.9112,1.923,1.9391,1.8972,1.8896,1.9068,1.8616,1.8562,1.8735,1.8519,1.8433,1.8433,1.8433,1.8433,1.8466,2.7955,2.8174,2.8344,2.8666,2.8968,2.9212,2.8886,2.9056,2.9212,2.8886,2.9178,2.9427,2.9544,2.9559,2.969,2.9865,2.9705,2.9514,2.954,2.9857,2.995,2.9998,2.9998,2.9998,2.9998,2.9663,2.9481,2.9481,2.9314,2.916,2.8824,2.8655,2.8676,2.8684,2.831,2.835,2.8671,2.8297,2.8136,2.815,2.7981,2.7915,2.7949,2.7609,2.7463,2.7509,2.7335,2.7148,2.7068,2.7535,2.7509,2.7295,2.7482,2.7335,2.7001,2.6533,2.6186,2.5932,2.5502,2.5264,2.4987,2.4573,2.4723,2.4723,2.4402,2.435,2.4324,2.4206,2.3896,2.3754,2.3589,2.3027,2.2597,2.2211,0.0,2.0954,2.1319,2.1176,2.111,2.1408,2.1378,2.1333,2.1059,2.0743,2.032,2.0192,2.0063,1.9895,1.9714,1.9636,1.9371,1.909,1.9326,1.9315,1.9058,1.8972,1.8918,1.8918,1.8778,1.8778,1.8918,1.8918,1.9058,1.9273,1.909,1.9058,1.9122,1.8789,1.8702,1.8756,1.8519,1.8433,1.8433,1.8433,1.8293,1.8184,2.8253,2.8428,2.8571,2.8983,2.9368,2.9523,2.9212,2.9368,2.9553,2.9345,2.9656,3.0052,3.0156,3.0171,3.026,3.0483,3.0129,2.9924,3.016,3.0483,3.0432,3.0332,3.0346,3.0346,3.0346,2.9998,2.9983,2.9983,2.983,2.9495,2.916,2.8992,2.8873,2.891,2.8493,2.8377,2.8724,2.8323,2.8136,2.8136,2.8136,2.8083,2.7989,2.7883,2.7776,2.7682,2.7575,2.7415,2.7295,2.7696,2.7709,2.7549,2.7562,2.7295,2.6907,2.6507,2.6253,2.6052,2.5865,2.5732,2.5531,2.5187,2.5147,2.5173,2.4972,2.4999,2.5012,2.4676,2.4407,2.4301,2.4008,2.3377,2.3047,2.2926,2.2151,2.1701,2.2365,2.2191,2.207,2.2133,2.2087,2.1824,2.137,2.1016,2.0695,2.0368,2.038,2.0344,2.0169,2.0329,2.0129,1.9566,1.9624,1.9459,1.8931,1.8864,1.8939,1.9004,1.8767,1.8778,1.9004,1.8928,1.9025,1.9252,1.9187,1.9155,1.9133,1.8885,1.8789,1.8756,1.8519,1.8433,1.8433,1.8433,1.8293,1.8044,2.8402,2.8537,2.8761,2.9404,2.9834,2.9989,2.9523,2.9834,3.0111,3.0145,3.0794,3.1289,3.1625,3.1671,3.1671,3.1671,3.133,3.0988,3.0988,3.0807,3.0817,3.0817,3.0817,3.0817,3.0817,3.0817,3.0817,3.0817,3.0332,3.0179,3.0179,2.9328,2.8824,2.8824,2.8318,2.815,2.815,2.8136,2.8136,2.8136,2.8136,2.7963,2.7736,2.803,2.7963,2.7736,2.803,2.8136,2.8136,2.8136,2.8136,2.803,2.7455,2.6867,2.64,2.6386,2.6386,2.6253,2.5665,2.5718,2.6034,2.6044,2.591,2.5691,2.5691,2.591,2.5799,2.4756,2.4877,2.4903,2.4315,2.3968,2.3581,2.2966,2.2619,2.2432,2.2418,2.2672,2.2859,2.2859,2.2691,2.2395,2.1823,2.1315,2.0814,2.0145,2.0121,2.0099,1.9929,2.0409,2.0455,1.9952,1.9748,1.9615,1.9382,1.9181,1.9262,1.9488,1.9262,1.9273,1.9488,1.9262,1.9284,1.9488,1.9252,1.9155,1.9133,1.8885,1.8789,1.8756,1.8519,1.8433,1.8433,1.8433,1.8433,1.8466,2.8562,2.9017,2.9245,2.915,2.9992,3.0454,2.9989,3.0299,3.05,3.0126,3.0801,3.1106,3.0968,3.1381,3.1671,3.1671,3.128,3.1073,3.0973,3.0765,3.0583,3.0817,3.0817,3.0817,3.0817,3.0817,3.0817,3.0817,3.0665,3.0499,3.0179,2.9844,2.9775,2.962,2.8906,2.8764,2.8955,2.8399,2.8318,2.8655,2.8655,2.8601,2.8533,2.8615,2.8433,2.8016,2.811,2.7883,2.7562,2.7762,2.7562,2.7228,2.7255,2.7148,2.6921,2.6507,2.6239,2.5959,2.5371,2.5268,2.5459,2.5527,2.5595,2.5636,2.5417,2.5595,2.5705,2.516,2.5026,2.5052,2.4739,2.4273,2.3875,2.3287,2.3113,2.2979,2.2766,2.2993,2.3113,2.2886,2.2789,2.2447,2.1798,2.142,2.1187,2.1066,2.1438,2.1531,2.116,2.1609,2.1472,2.0729,2.0946,2.0797,2.0125,1.9246,1.8928,1.8993,1.9101,1.9187,1.9262,1.9348,1.9521,1.9736,1.9499,1.9391,1.9359,1.895,1.8789,1.8756,1.8519,1.8433,1.8433,1.8433,1.8293,1.8044,2.9118,2.9517,2.9839,2.967,3.0484,3.0933,3.0454,3.0778,3.098,3.0623,3.129,3.16,3.1538,3.2019,3.236,3.236,3.2011,3.1803,3.1511,3.1033,3.0957,3.115,3.0817,3.0817,3.0817,3.0817,3.0817,3.0817,3.0817,3.0665,3.0499,3.0346,3.0097,2.993,2.9411,2.9257,2.9423,2.8892,2.881,2.916,2.916,2.8992,2.8824,2.8992,2.8642,2.8136,2.8318,2.8009,2.7468,2.7642,2.7308,2.6854,2.7028,2.7014,2.6854,2.6493,2.6266,2.5999,2.5563,2.5582,2.5527,2.5575,2.5806,2.5903,2.5709,2.5903,2.6043,2.5575,2.5405,2.5377,2.5062,2.4661,2.4222,2.3754,2.3487,2.33,2.3233,2.3287,2.326,2.3073,2.2986,2.2602,2.181,2.1558,2.1359,2.1293,2.1716,2.1846,2.1805,2.1953,2.1953,2.137,2.1507,2.13,2.0603,1.9814,1.9257,1.9208,1.9262,1.9338,1.9424,1.9478,1.9575,1.9704,1.9564,1.9391,1.9198,1.8907,1.8724,1.8638,1.8487,1.8433,1.8433,1.8433,1.8293,1.8174,3.0155,3.0249,3.0373,3.0685,3.1071,3.1241,3.0948,3.1087,3.1352,3.1387,3.2032,3.2555,3.292,3.327,3.3492,3.3492,3.3148,3.267,3.2339,3.1828,3.1482,3.1482,3.1179,3.0861,3.0817,3.0846,3.0861,3.0861,3.089,3.089,3.0861,3.0542,3.0208,3.0179,2.983,2.9481,2.9481,2.9481,2.9481,2.9481,2.9481,2.9328,2.8992,2.9314,2.8978,2.8305,2.8615,2.8438,2.7696,2.7642,2.7241,2.6948,2.6814,2.664,2.6426,2.6558,2.6544,2.641,2.6099,2.6088,2.6253,2.6396,2.6399,2.6399,2.6399,2.6629,2.6623,2.6003,2.6004,2.5951,2.5376,2.4999,2.4609,2.4289,2.3794,2.3514,2.3741,2.3554,2.3394,2.3367,2.3119,2.2675,2.1874,2.1598,2.1378,2.1112,2.1378,2.1655,2.1897,2.1909,2.1909,2.1909,2.1591,2.1179,2.0944,2.0445,2.0065,1.993,1.9607,1.9628,1.9811,1.9618,1.9531,1.9531,1.951,1.9241,1.881,1.8789,1.8649,1.8433,1.8433,1.8433,1.8433,1.8433,1.8433,1.8433,2.9993,3.0379,3.0735,3.0526,3.0898,3.1395,3.1241,3.1395,3.1522,3.1715,3.2205,3.2555,3.292,3.327,3.3492,3.3492,3.3148,3.2819,3.267,3.2339,3.1828,3.1482,3.1569,3.1416,3.0832,3.1081,3.1198,3.1198,3.1461,3.1461,3.1198,3.1044,3.0898,3.0665,3.0165,2.9998,2.9998,2.9663,2.9663,2.9998,2.9998,3.0012,2.9844,3.0012,2.9495,2.8628,2.8883,2.8593,2.8139,2.7676,2.7415,2.7471,2.7401,2.7268,2.7333,2.7402,2.7175,2.684,2.6295,2.6523,2.6737,2.6485,2.6692,2.6838,2.6546,2.6629,2.6772,2.631,2.6154,2.6171,2.6546,2.6074,2.5609,2.5212,2.5007,2.4643,2.3964,2.3915,2.3928,2.3701,2.3353,2.2834,2.2128,2.1709,2.145,2.139,2.1824,2.2114,2.2174,2.2174,2.2174,2.2174,2.2174,2.1841,2.1496,2.1405,2.0809,1.9746,1.9767,1.9704,1.9575,1.9714,1.9768,1.9758,1.9575,1.9338,1.9058,1.8864,1.8649,1.8433,1.8433,1.8433,1.8433,1.8433,1.8433,1.8433,3.0536,3.0846,3.1109,3.0819,3.1115,3.1395,3.1395,3.1395,3.1522,3.1872,3.2205,3.2555,3.292,3.327,3.3492,3.3492,3.3328,3.3148,3.3148,3.267,3.2339,3.2159,3.2161,3.1918,3.1386,3.1712,3.1631,3.1315,3.1476,3.1563,3.1534,3.1388,3.1227,3.1051,3.0738,3.0499,3.0499,3.015,3.0332,3.0499,3.0499,3.0332,3.0179,3.0332,2.9898,2.8911,2.9255,2.8837,2.8191,2.7734,2.7616,2.7661,2.7513,2.7568,2.7541,2.7518,2.7476,2.7167,2.6847,2.705,2.7173,2.6851,2.6954,2.7174,2.6735,2.6822,2.6894,2.6721,2.6475,2.6458,2.6752,2.6402,2.6101,2.5769,2.5332,2.4939,2.4499,2.4219,2.3995,2.3981,2.3681,2.3196,2.2599,2.2294,2.2236,2.2236,2.2473,2.2558,2.2558,2.2408,2.2259,2.2259,2.2259,2.2259,2.196,2.181,2.1382,2.0672,2.0325,2.008,1.996,1.994,1.979,1.9671,1.9553,1.937,1.9133,1.8885,1.8713,1.8584,1.8476,1.8433,1.8433,1.8433,1.8433,1.8455,3.1549,3.1549,3.1549,3.1549,3.1549,3.1565,3.1474,3.149,3.1633,3.2046,3.2332,3.2634,3.3,3.3301,3.3492,3.3492,3.3492,3.3492,3.3492,3.3164,3.285,3.2912,3.2643,3.2434,3.2143,3.2364,3.2223,3.1402,3.1505,3.1637,3.1798,3.1578,3.1417,3.13,3.1022,3.0876,3.0817,3.0817,3.0817,3.0817,3.0817,3.0665,3.0346,3.0665,3.0116,2.9184,2.9635,2.9044,2.8142,2.7945,2.7833,2.779,2.779,2.779,2.779,2.779,2.779,2.7664,2.7502,2.7683,2.7668,2.707,2.7188,2.732,2.7056,2.6983,2.6983,2.6983,2.6938,2.6858,2.6858,2.6602,2.6318,2.6262,2.5681,2.5125,2.5198,2.4512,2.4008,2.4249,2.3945,2.3443,2.2968,2.3006,2.3006,2.2968,2.2965,2.2992,2.2794,2.2533,2.2408,2.2259,2.2259,2.2259,2.2259,2.196,2.181,2.181,2.1048,2.0597,2.0447,2.0145,1.9886,1.9564,1.9564,1.9424,1.9187,1.895,1.8821,1.8756,1.8519,1.8433,1.8433,1.8433,1.8433,1.8466,3.184,3.1993,3.1993,3.1993,3.1993,3.1952,3.1792,3.1856,3.2078,3.273,3.2857,3.3015,3.3381,3.346,3.3492,3.3492,3.3492,3.3492,3.3492,3.3492,3.3289,3.3255,3.3535,3.3229,3.2663,3.2759,3.258,3.1739,3.2295,3.231,3.1798,3.2046,3.1856,3.1315,3.1271,3.1081,3.0817,3.0817,3.0817,3.0817,3.0817,3.0832,3.0665,3.0817,3.0296,2.9664,2.9865,2.9355,2.8831,2.8604,2.8662,2.873,2.8275,2.8289,2.8275,2.8573,2.8431,2.8146,2.7821,2.7827,2.7696,2.7159,2.7027,2.7042,2.6998,2.6983,2.6983,2.6983,2.6938,2.6858,2.7318,2.7237,2.7036,2.6915,2.634,2.5917,2.5267,2.4716,2.4529,2.4569,2.4063,2.3365,2.2675,2.2879,2.293,2.2688,2.3012,2.3041,2.2509,2.2732,2.2707,2.2259,2.2259,2.2259,2.2259,2.2259,2.2259,2.2259,2.181,2.121,2.0447,2.0447,2.0274,1.9801,1.9801,1.9671,1.9435,1.9198,1.8972,1.8756,1.8519,1.8433,1.8433,1.8433,1.8433,1.8444,3.1993,3.2146,3.2299,3.2299,3.2462,3.2659,3.2667,3.2549,3.2697,3.321,3.3113,3.3095,3.3444,3.3492,3.3492,3.3492,3.3492,3.3572,3.3762,3.3587,3.3565,3.3934,3.3903,3.3829,3.3553,3.3674,3.3421,3.2925,3.2877,3.2791,3.2339,3.2644,3.2377,3.1578,3.1388,3.1124,3.0817,3.0817,3.0817,3.0817,3.0817,3.0817,3.0817,3.115,3.0957,3.0439,3.01,2.9453,2.8915,2.8904,2.9017,2.9212,2.8744,2.8744,2.89,2.8886,2.873,2.8642,2.8191,2.8227,2.8066,2.7422,2.7261,2.7217,2.7027,2.6983,2.6983,2.6983,2.6954,2.7056,2.7203,2.7172,2.7068,2.6923,2.6453,2.5954,2.5534,2.4931,2.4636,2.4636,2.4369,2.409,2.3812,2.3771,2.3797,2.3679,2.3754,2.3536,2.3273,2.3227,2.3005,2.2707,2.2707,2.2558,2.2259,2.2259,2.2259,2.2259,2.2109,2.166,2.121,2.0748,2.0447,2.0135,1.9854,1.9596,1.9467,1.9101,1.8885,1.8756,1.8519,1.8433,1.8433,1.8433,1.8433,1.8433]}]]